Time,TemperatureF,DewpointF,PressureIn,WindDirection,WindDirectionDegrees,WindSpeedMPH,WindSpeedGustMPH,Humidity,HourlyPrecipIn,Conditions,Clouds,dailyrainin,SoftwareType,DateUTC
2013-10-26 00:00:00,41.9,33.2,30.13,SSW,213,9.0,17.0,71,0.00,,,0.01,VWS V14.00,2013-10-26 04:00:00,
2013-10-26 00:01:00,42.0,33.3,30.13,South,184,5.0,17.0,71,0.00,,,0.01,VWS V14.00,2013-10-26 04:01:00,
2013-10-26 00:02:00,41.9,33.2,30.13,SW,224,10.0,17.0,71,0.00,,,0.01,VWS V14.00,2013-10-26 04:02:00,
2013-10-26 00:03:00,41.9,33.2,30.13,SW,234,3.0,13.0,71,0.00,,,0.00,VWS V14.00,2013-10-26 04:03:00,
2013-10-26 00:04:00,42.0,33.3,30.13,SW,225,2.0,13.0,71,0.00,,,0.00,VWS V14.00,2013-10-26 04:04:00,
2013-10-26 00:05:00,42.0,33.3,30.13,SW,233,3.0,13.0,71,0.00,,,0.00,VWS V14.00,2013-10-26 04:05:00,
2013-10-26 00:06:00,42.0,33.3,30.13,SSW,209,10.0,13.0,71,0.00,,,0.00,VWS V14.00,2013-10-26 04:06:00,
2013-10-26 00:07:00,41.9,32.8,30.12,SW,219,7.0,17.0,70,0.00,,,0.01,VWS V14.00,2013-10-26 04:07:00,
2013-10-26 00:08:00,42.0,33.3,30.12,SW,229,7.0,13.0,71,0.00,,,0.00,VWS V14.00,2013-10-26 04:08:00,
2013-10-26 00:09:00,42.0,33.3,30.12,SSE,152,10.0,13.0,71,0.00,,,0.00,VWS V14.00,2013-10-26 04:09:00,
2013-10-26 00:10:00,42.0,33.3,30.12,South,173,6.0,13.0,71,0.00,,,0.00,VWS V14.00,2013-10-26 04:10:00,
2013-10-26 00:11:00,42.0,33.3,30.13,SW,216,5.0,13.0,71,0.00,,,0.00,VWS V14.00,2013-10-26 04:11:00,
2013-10-26 00:12:00,41.9,33.2,30.12,WSW,250,4.0,13.0,71,0.00,,,0.00,VWS V14.00,2013-10-26 04:12:00,
2013-10-26 00:13:00,42.0,33.3,30.12,SW,232,4.0,13.0,71,0.00,,,0.00,VWS V14.00,2013-10-26 04:13:00,
2013-10-26 00:14:00,42.0,33.3,30.12,SW,234,5.0,13.0,71,0.00,,,0.00,VWS V14.00,2013-10-26 04:14:00,
2013-10-26 00:15:00,42.0,33.3,30.12,SW,214,9.0,13.0,71,0.00,,,0.00,VWS V14.00,2013-10-26 04:15:00,
2013-10-26 00:16:00,42.0,33.3,30.12,SW,236,2.0,13.0,71,0.00,,,0.00,VWS V14.00,2013-10-26 04:16:00,
2013-10-26 00:17:00,42.0,33.3,30.13,SW,227,10.0,13.0,71,0.00,,,0.00,VWS V14.00,2013-10-26 04:17:00,
2013-10-26 00:18:00,42.0,33.3,30.12,WSW,248,2.0,13.0,71,0.00,,,0.00,VWS V14.00,2013-10-26 04:18:00,
2013-10-26 00:19:00,41.9,33.2,30.12,SSW,211,5.0,13.0,71,0.00,,,0.00,VWS V14.00,2013-10-26 04:19:00,
2013-10-26 00:20:00,41.9,32.8,30.12,SW,225,11.0,13.0,70,0.00,,,0.00,VWS V14.00,2013-10-26 04:20:00,
2013-10-26 00:21:00,41.9,32.8,30.12,SW,232,4.0,15.0,70,0.00,,,0.00,VWS V14.00,2013-10-26 04:21:00,
2013-10-26 00:22:00,42.0,33.3,30.13,SSW,213,11.0,13.0,71,0.00,,,0.00,VWS V14.00,2013-10-26 04:22:00,
2013-10-26 00:23:00,41.9,33.2,30.12,SW,230,6.0,15.0,71,0.00,,,0.00,VWS V14.00,2013-10-26 04:23:00,
2013-10-26 00:24:00,41.9,33.2,30.12,SW,231,2.0,15.0,71,0.00,,,0.00,VWS V14.00,2013-10-26 04:24:00,
2013-10-26 00:25:00,41.9,33.2,30.12,SSW,202,5.0,15.0,71,0.00,,,0.00,VWS V14.00,2013-10-26 04:25:00,
2013-10-26 00:26:00,41.8,33.1,30.12,SW,234,3.0,15.0,71,0.00,,,0.00,VWS V14.00,2013-10-26 04:26:00,
2013-10-26 00:27:00,42.0,33.3,30.12,SW,225,6.0,13.0,71,0.00,,,0.00,VWS V14.00,2013-10-26 04:27:00,
2013-10-26 00:28:00,41.8,33.1,30.12,SSW,198,2.0,15.0,71,0.00,,,0.00,VWS V14.00,2013-10-26 04:28:00,
2013-10-26 00:29:00,41.8,33.1,30.12,WSW,245,6.0,15.0,71,0.00,,,0.00,VWS V14.00,2013-10-26 04:29:00,
2013-10-26 00:30:00,41.8,33.1,30.12,SSW,213,6.0,15.0,71,0.00,,,0.00,VWS V14.00,2013-10-26 04:30:00,
2013-10-26 00:31:00,41.8,33.1,30.11,SSW,198,7.0,9.0,71,0.00,,,0.00,VWS V14.00,2013-10-26 04:31:00,
2013-10-26 00:32:00,41.9,33.2,30.12,SW,233,2.0,15.0,71,0.00,,,0.00,VWS V14.00,2013-10-26 04:32:00,
2013-10-26 00:33:00,41.8,33.1,30.11,SW,215,4.0,9.0,71,0.00,,,0.00,VWS V14.00,2013-10-26 04:33:00,
2013-10-26 00:34:00,41.8,33.1,30.11,SSW,205,6.0,13.0,71,0.00,,,0.00,VWS V14.00,2013-10-26 04:34:00,
2013-10-26 00:35:00,41.8,33.1,30.11,SW,219,3.0,13.0,71,0.00,,,0.00,VWS V14.00,2013-10-26 04:35:00,
2013-10-26 00:36:00,41.8,33.1,30.11,SSW,209,6.0,13.0,71,0.00,,,0.00,VWS V14.00,2013-10-26 04:36:00,
2013-10-26 00:37:00,41.8,33.1,30.12,SSW,204,4.0,15.0,71,0.00,,,0.00,VWS V14.00,2013-10-26 04:37:00,
2013-10-26 00:38:00,41.8,33.1,30.11,WSW,242,10.0,13.0,71,0.00,,,0.00,VWS V14.00,2013-10-26 04:38:00,
2013-10-26 00:39:00,41.8,33.1,30.11,South,173,7.0,13.0,71,0.00,,,0.00,VWS V14.00,2013-10-26 04:39:00,
2013-10-26 00:40:00,41.8,33.5,30.11,SW,223,2.0,13.0,72,0.00,,,0.00,VWS V14.00,2013-10-26 04:40:00,
2013-10-26 00:41:00,41.8,33.5,30.11,South,169,5.0,13.0,72,0.00,,,0.00,VWS V14.00,2013-10-26 04:41:00,
2013-10-26 00:42:00,41.8,33.1,30.11,SSW,199,5.0,9.0,71,0.00,,,0.00,VWS V14.00,2013-10-26 04:42:00,
2013-10-26 00:43:00,41.8,33.1,30.10,SSW,208,2.0,13.0,71,0.00,,,0.00,VWS V14.00,2013-10-26 04:43:00,
2013-10-26 00:44:00,41.8,33.1,30.10,SW,223,1.0,13.0,71,0.00,,,0.00,VWS V14.00,2013-10-26 04:44:00,
2013-10-26 00:45:00,41.8,33.1,30.11,SW,214,9.0,13.0,71,0.00,,,0.00,VWS V14.00,2013-10-26 04:45:00,
2013-10-26 00:46:00,41.8,33.1,30.10,SW,229,6.0,13.0,71,0.00,,,0.00,VWS V14.00,2013-10-26 04:46:00,
2013-10-26 00:47:00,41.8,33.1,30.11,SW,232,4.0,13.0,71,0.00,,,0.00,VWS V14.00,2013-10-26 04:47:00,
2013-10-26 00:48:00,41.8,33.1,30.10,SSW,202,1.0,13.0,71,0.00,,,0.00,VWS V14.00,2013-10-26 04:48:00,
2013-10-26 00:49:00,41.8,33.1,30.10,SSW,210,5.0,13.0,71,0.00,,,0.00,VWS V14.00,2013-10-26 04:49:00,
2013-10-26 00:50:00,41.8,33.1,30.10,SSW,202,5.0,13.0,71,0.00,,,0.00,VWS V14.00,2013-10-26 04:50:00,
2013-10-26 00:51:00,41.9,33.2,30.10,SSE,164,3.0,13.0,71,0.00,,,0.00,VWS V14.00,2013-10-26 04:51:00,
2013-10-26 00:52:00,41.8,33.5,30.11,WSW,239,11.0,13.0,72,0.00,,,0.00,VWS V14.00,2013-10-26 04:52:00,
2013-10-26 00:53:00,41.9,33.2,30.10,SW,218,3.0,13.0,71,0.00,,,0.00,VWS V14.00,2013-10-26 04:53:00,
2013-10-26 00:54:00,41.9,33.2,30.10,SW,225,7.0,13.0,71,0.00,,,0.00,VWS V14.00,2013-10-26 04:54:00,
2013-10-26 00:55:00,41.9,33.2,30.10,WSW,247,3.0,13.0,71,0.00,,,0.00,VWS V14.00,2013-10-26 04:55:00,
2013-10-26 00:56:00,41.9,33.2,30.10,SW,229,5.0,13.0,71,0.00,,,0.00,VWS V14.00,2013-10-26 04:56:00,
2013-10-26 00:57:00,41.8,33.1,30.10,SSW,209,2.0,13.0,71,0.00,,,0.00,VWS V14.00,2013-10-26 04:57:00,
2013-10-26 00:58:00,41.9,33.2,30.10,SW,215,7.0,13.0,71,0.00,,,0.00,VWS V14.00,2013-10-26 04:58:00,
2013-10-26 00:59:00,41.9,33.2,30.10,SSW,199,6.0,13.0,71,0.00,,,0.00,VWS V14.00,2013-10-26 04:59:00,
2013-10-26 01:00:00,42.0,33.3,30.10,SSW,213,7.0,13.0,71,0.00,,,0.00,VWS V14.00,2013-10-26 05:00:00,
2013-10-26 01:01:00,42.0,33.3,30.09,SW,234,7.0,11.0,71,0.00,,,0.00,VWS V14.00,2013-10-26 05:01:00,
2013-10-26 01:02:00,41.8,33.1,30.10,SW,232,10.0,13.0,71,0.00,,,0.00,VWS V14.00,2013-10-26 05:02:00,
2013-10-26 01:03:00,42.0,33.3,30.10,SW,230,10.0,11.0,71,0.00,,,0.00,VWS V14.00,2013-10-26 05:03:00,
2013-10-26 01:04:00,42.0,33.3,30.09,SW,234,3.0,13.0,71,0.00,,,0.00,VWS V14.00,2013-10-26 05:04:00,
2013-10-26 01:05:00,42.0,33.3,30.10,SSE,160,12.0,13.0,71,0.00,,,0.00,VWS V14.00,2013-10-26 05:05:00,
2013-10-26 01:06:00,42.1,33.4,30.10,SSW,199,5.0,13.0,71,0.00,,,0.00,VWS V14.00,2013-10-26 05:06:00,
2013-10-26 01:07:00,41.9,33.2,30.10,SW,223,9.0,13.0,71,0.00,,,0.00,VWS V14.00,2013-10-26 05:07:00,
2013-10-26 01:08:00,42.1,33.4,30.09,SSW,213,1.0,13.0,71,0.00,,,0.00,VWS V14.00,2013-10-26 05:08:00,
2013-10-26 01:09:00,42.1,33.4,30.09,SW,234,2.0,13.0,71,0.00,,,0.00,VWS V14.00,2013-10-26 05:09:00,
2013-10-26 01:10:00,42.1,33.4,30.09,West,273,8.0,13.0,71,0.00,,,0.00,VWS V14.00,2013-10-26 05:10:00,
2013-10-26 01:11:00,42.1,33.4,30.09,SSW,198,6.0,14.0,71,0.00,,,0.00,VWS V14.00,2013-10-26 05:11:00,
2013-10-26 01:12:00,42.0,33.3,30.09,SSW,209,4.0,11.0,71,0.00,,,0.00,VWS V14.00,2013-10-26 05:12:00,
2013-10-26 01:13:00,42.1,33.4,30.09,SW,236,6.0,14.0,71,0.00,,,0.00,VWS V14.00,2013-10-26 05:13:00,
2013-10-26 01:14:00,42.1,33.4,30.09,SSW,207,6.0,14.0,71,0.00,,,0.00,VWS V14.00,2013-10-26 05:14:00,
2013-10-26 01:15:00,42.1,33.4,30.08,SW,236,3.0,14.0,71,0.00,,,0.00,VWS V14.00,2013-10-26 05:15:00,
2013-10-26 01:16:00,42.2,33.5,30.09,SW,232,5.0,14.0,71,0.00,,,0.00,VWS V14.00,2013-10-26 05:16:00,
2013-10-26 01:17:00,42.1,33.4,30.10,SSW,213,5.0,13.0,71,0.00,,,0.00,VWS V14.00,2013-10-26 05:17:00,
2013-10-26 01:18:00,42.2,33.5,30.09,SW,217,7.0,14.0,71,0.00,,,0.00,VWS V14.00,2013-10-26 05:18:00,
2013-10-26 01:19:00,42.2,33.5,30.09,SW,226,3.0,14.0,71,0.00,,,0.00,VWS V14.00,2013-10-26 05:19:00,
2013-10-26 01:20:00,42.2,33.5,30.09,SW,224,9.0,14.0,71,0.00,,,0.00,VWS V14.00,2013-10-26 05:20:00,
2013-10-26 01:21:00,42.3,33.6,30.09,WSW,243,7.0,14.0,71,0.00,,,0.00,VWS V14.00,2013-10-26 05:21:00,
2013-10-26 01:22:00,42.1,33.4,30.09,South,177,4.0,14.0,71,0.00,,,0.00,VWS V14.00,2013-10-26 05:22:00,
2013-10-26 01:23:00,42.3,33.6,30.09,SSW,210,10.0,14.0,71,0.00,,,0.00,VWS V14.00,2013-10-26 05:23:00,
2013-10-26 01:24:00,42.3,33.6,30.09,SW,218,3.0,14.0,71,0.00,,,0.00,VWS V14.00,2013-10-26 05:24:00,
2013-10-26 01:25:00,42.4,33.7,30.09,SW,227,5.0,14.0,71,0.00,,,0.00,VWS V14.00,2013-10-26 05:25:00,
2013-10-26 01:26:00,42.3,33.6,30.09,SSW,200,7.0,14.0,71,0.00,,,0.00,VWS V14.00,2013-10-26 05:26:00,
2013-10-26 01:27:00,42.2,33.5,30.09,SW,234,5.0,14.0,71,0.00,,,0.00,VWS V14.00,2013-10-26 05:27:00,
2013-10-26 01:28:00,42.4,33.3,30.09,SSW,192,5.0,14.0,70,0.00,,,0.00,VWS V14.00,2013-10-26 05:28:00,
2013-10-26 01:29:00,42.4,33.3,30.08,WSW,240,6.0,14.0,70,0.00,,,0.00,VWS V14.00,2013-10-26 05:29:00,
2013-10-26 01:30:00,42.4,33.3,30.08,SW,227,4.0,14.0,70,0.00,,,0.00,VWS V14.00,2013-10-26 05:30:00,
2013-10-26 01:31:00,42.4,33.3,30.09,WSW,246,7.0,11.0,70,0.00,,,0.00,VWS V14.00,2013-10-26 05:31:00,
2013-10-26 01:32:00,42.2,33.5,30.09,SW,229,9.0,14.0,71,0.00,,,0.00,VWS V14.00,2013-10-26 05:32:00,
2013-10-26 01:33:00,42.4,33.3,30.09,SSW,213,5.0,11.0,70,0.00,,,0.00,VWS V14.00,2013-10-26 05:33:00,
2013-10-26 01:34:00,42.4,33.3,30.09,SW,233,8.0,11.0,70,0.00,,,0.00,VWS V14.00,2013-10-26 05:34:00,
2013-10-26 01:35:00,42.5,33.4,30.08,SW,223,6.0,11.0,70,0.00,,,0.00,VWS V14.00,2013-10-26 05:35:00,
2013-10-26 01:36:00,42.5,33.4,30.08,South,190,9.0,13.0,70,0.00,,,0.00,VWS V14.00,2013-10-26 05:36:00,
2013-10-26 01:37:00,42.4,33.7,30.09,SSW,207,4.0,14.0,71,0.00,,,0.00,VWS V14.00,2013-10-26 05:37:00,
2013-10-26 01:38:00,42.5,33.1,30.08,SW,234,6.0,15.0,69,0.00,,,0.00,VWS V14.00,2013-10-26 05:38:00,
2013-10-26 01:39:00,42.5,33.4,30.08,SW,229,4.0,15.0,70,0.00,,,0.00,VWS V14.00,2013-10-26 05:39:00,
2013-10-26 01:40:00,42.5,33.4,30.08,SW,232,3.0,15.0,70,0.00,,,0.00,VWS V14.00,2013-10-26 05:40:00,
2013-10-26 01:41:00,42.6,33.5,30.08,SW,221,3.0,15.0,70,0.00,,,0.00,VWS V14.00,2013-10-26 05:41:00,
2013-10-26 01:42:00,42.4,33.3,30.09,SW,215,9.0,11.0,70,0.00,,,0.00,VWS V14.00,2013-10-26 05:42:00,
2013-10-26 01:43:00,42.6,33.5,30.08,WSW,242,3.0,15.0,70,0.00,,,0.00,VWS V14.00,2013-10-26 05:43:00,
2013-10-26 01:44:00,42.6,33.2,30.08,SSW,210,3.0,15.0,69,0.00,,,0.00,VWS V14.00,2013-10-26 05:44:00,
2013-10-26 01:45:00,42.7,33.2,30.08,SW,232,6.0,15.0,69,0.00,,,0.00,VWS V14.00,2013-10-26 05:45:00,
2013-10-26 01:46:00,42.7,33.2,30.08,SSW,210,5.0,15.0,69,0.00,,,0.00,VWS V14.00,2013-10-26 05:46:00,
2013-10-26 01:47:00,42.5,33.4,30.08,WSW,238,11.0,15.0,70,0.00,,,0.00,VWS V14.00,2013-10-26 05:47:00,
2013-10-26 01:48:00,42.7,33.2,30.08,WSW,244,6.0,15.0,69,0.00,,,0.00,VWS V14.00,2013-10-26 05:48:00,
2013-10-26 01:49:00,42.7,33.2,30.08,SW,223,5.0,15.0,69,0.00,,,0.00,VWS V14.00,2013-10-26 05:49:00,
2013-10-26 01:50:00,42.7,33.2,30.07,SSW,213,9.0,15.0,69,0.00,,,0.00,VWS V14.00,2013-10-26 05:50:00,
2013-10-26 01:51:00,42.7,33.2,30.07,SSW,213,3.0,15.0,69,0.00,,,0.00,VWS V14.00,2013-10-26 05:51:00,
2013-10-26 01:52:00,42.6,33.5,30.08,WSW,238,6.0,15.0,70,0.00,,,0.00,VWS V14.00,2013-10-26 05:52:00,
2013-10-26 01:53:00,42.7,33.2,30.07,SW,223,4.0,15.0,69,0.00,,,0.00,VWS V14.00,2013-10-26 05:53:00,
2013-10-26 01:54:00,42.8,33.3,30.07,South,181,6.0,15.0,69,0.00,,,0.00,VWS V14.00,2013-10-26 05:54:00,
2013-10-26 01:55:00,42.8,33.3,30.07,SSW,204,7.0,15.0,69,0.00,,,0.00,VWS V14.00,2013-10-26 05:55:00,
2013-10-26 01:56:00,42.8,33.3,30.07,SW,227,5.0,15.0,69,0.00,,,0.00,VWS V14.00,2013-10-26 05:56:00,
2013-10-26 01:57:00,42.7,33.2,30.08,SSW,206,4.0,15.0,69,0.00,,,0.00,VWS V14.00,2013-10-26 05:57:00,
2013-10-26 01:58:00,42.8,33.3,30.07,SSW,194,15.0,15.0,69,0.00,,,0.00,VWS V14.00,2013-10-26 05:58:00,
2013-10-26 01:59:00,42.8,33.3,30.06,SSE,152,5.0,15.0,69,0.00,,,0.00,VWS V14.00,2013-10-26 05:59:00,
2013-10-26 02:00:00,42.8,33.3,30.06,SW,222,4.0,15.0,69,0.00,,,0.00,VWS V14.00,2013-10-26 06:00:00,
2013-10-26 02:01:00,42.8,33.3,30.06,South,183,10.0,11.0,69,0.00,,,0.00,VWS V14.00,2013-10-26 06:01:00,
2013-10-26 02:02:00,42.7,33.2,30.07,SSW,211,12.0,15.0,69,0.00,,,0.00,VWS V14.00,2013-10-26 06:02:00,
2013-10-26 02:03:00,42.9,33.1,30.06,SSW,209,5.0,18.0,68,0.00,,,0.00,VWS V14.00,2013-10-26 06:03:00,
2013-10-26 02:04:00,42.9,33.1,30.06,SSW,194,5.0,18.0,68,0.00,,,0.00,VWS V14.00,2013-10-26 06:04:00,
2013-10-26 02:05:00,42.9,33.1,30.06,SSW,194,13.0,18.0,68,0.00,,,0.00,VWS V14.00,2013-10-26 06:05:00,
2013-10-26 02:06:00,42.9,33.1,30.06,SW,216,7.0,18.0,68,0.00,,,0.00,VWS V14.00,2013-10-26 06:06:00,
2013-10-26 02:07:00,42.8,33.3,30.07,SW,222,5.0,15.0,69,0.00,,,0.00,VWS V14.00,2013-10-26 06:07:00,
2013-10-26 02:08:00,43.0,33.2,30.06,SSW,200,10.0,18.0,68,0.00,,,0.00,VWS V14.00,2013-10-26 06:08:00,
2013-10-26 02:09:00,43.0,33.2,30.06,SSW,212,7.0,18.0,68,0.00,,,0.00,VWS V14.00,2013-10-26 06:09:00,
2013-10-26 02:10:00,43.0,33.2,30.05,South,170,4.0,18.0,68,0.00,,,0.00,VWS V14.00,2013-10-26 06:10:00,
2013-10-26 02:11:00,43.0,33.2,30.05,SW,233,3.0,18.0,68,0.00,,,0.00,VWS V14.00,2013-10-26 06:11:00,
2013-10-26 02:12:00,42.8,33.3,30.06,SW,224,6.0,18.0,69,0.00,,,0.00,VWS V14.00,2013-10-26 06:12:00,
2013-10-26 02:13:00,43.0,33.2,30.05,SW,223,9.0,18.0,68,0.00,,,0.00,VWS V14.00,2013-10-26 06:13:00,
2013-10-26 02:14:00,43.0,32.8,30.05,SW,219,3.0,18.0,67,0.00,,,0.00,VWS V14.00,2013-10-26 06:14:00,
2013-10-26 02:15:00,43.0,32.8,30.05,SW,219,6.0,18.0,67,0.00,,,0.00,VWS V14.00,2013-10-26 06:15:00,
2013-10-26 02:16:00,43.0,33.2,30.05,SSW,207,7.0,18.0,68,0.00,,,0.00,VWS V14.00,2013-10-26 06:16:00,
2013-10-26 02:17:00,42.9,33.1,30.06,SW,227,13.0,18.0,68,0.00,,,0.00,VWS V14.00,2013-10-26 06:17:00,
2013-10-26 02:18:00,43.0,33.2,30.05,WSW,238,2.0,18.0,68,0.00,,,0.00,VWS V14.00,2013-10-26 06:18:00,
2013-10-26 02:19:00,43.0,33.2,30.05,SW,230,5.0,18.0,68,0.00,,,0.00,VWS V14.00,2013-10-26 06:19:00,
2013-10-26 02:20:00,43.0,33.2,30.05,SSE,153,2.0,18.0,68,0.00,,,0.00,VWS V14.00,2013-10-26 06:20:00,
2013-10-26 02:21:00,43.0,33.2,30.05,WSW,247,5.0,18.0,68,0.00,,,0.00,VWS V14.00,2013-10-26 06:21:00,
2013-10-26 02:22:00,43.0,33.2,30.05,SSW,207,7.0,18.0,68,0.00,,,0.00,VWS V14.00,2013-10-26 06:22:00,
2013-10-26 02:23:00,43.0,33.2,30.05,SW,230,3.0,18.0,68,0.00,,,0.00,VWS V14.00,2013-10-26 06:23:00,
2013-10-26 02:24:00,43.0,33.2,30.05,SSW,195,5.0,18.0,68,0.00,,,0.00,VWS V14.00,2013-10-26 06:24:00,
2013-10-26 02:25:00,43.0,33.2,30.04,SSW,210,5.0,18.0,68,0.00,,,0.00,VWS V14.00,2013-10-26 06:25:00,
2013-10-26 02:26:00,43.0,32.8,30.05,SSE,159,9.0,18.0,67,0.00,,,0.00,VWS V14.00,2013-10-26 06:26:00,
2013-10-26 02:27:00,43.0,33.2,30.05,SSW,210,5.0,18.0,68,0.00,,,0.00,VWS V14.00,2013-10-26 06:27:00,
2013-10-26 02:28:00,43.0,32.8,30.05,SSE,164,13.0,18.0,67,0.00,,,0.00,VWS V14.00,2013-10-26 06:28:00,
2013-10-26 02:29:00,42.9,32.7,30.04,SW,226,7.0,18.0,67,0.00,,,0.00,VWS V14.00,2013-10-26 06:29:00,
2013-10-26 02:30:00,43.0,32.8,30.04,South,178,6.0,18.0,67,0.00,,,0.00,VWS V14.00,2013-10-26 06:30:00,
2013-10-26 02:31:00,43.0,33.2,30.04,South,169,1.0,11.0,68,0.00,,,0.00,VWS V14.00,2013-10-26 06:31:00,
2013-10-26 02:32:00,43.0,33.2,30.05,SW,232,6.0,18.0,68,0.00,,,0.00,VWS V14.00,2013-10-26 06:32:00,
2013-10-26 02:33:00,43.0,32.8,30.04,SSW,211,3.0,15.0,67,0.00,,,0.00,VWS V14.00,2013-10-26 06:33:00,
2013-10-26 02:34:00,43.0,32.8,30.04,SW,216,4.0,15.0,67,0.00,,,0.00,VWS V14.00,2013-10-26 06:34:00,
2013-10-26 02:35:00,43.0,32.8,30.04,SW,227,3.0,15.0,67,0.00,,,0.00,VWS V14.00,2013-10-26 06:35:00,
2013-10-26 02:36:00,43.0,32.8,30.04,WSW,244,10.0,15.0,67,0.00,,,0.00,VWS V14.00,2013-10-26 06:36:00,
2013-10-26 02:37:00,43.0,32.8,30.05,SSW,212,3.0,18.0,67,0.00,,,0.00,VWS V14.00,2013-10-26 06:37:00,
2013-10-26 02:38:00,43.0,33.2,30.04,WSW,242,4.0,15.0,68,0.00,,,0.00,VWS V14.00,2013-10-26 06:38:00,
2013-10-26 02:39:00,43.0,33.2,30.04,SSE,153,4.0,15.0,68,0.00,,,0.00,VWS V14.00,2013-10-26 06:39:00,
2013-10-26 02:40:00,43.0,33.2,30.04,SW,230,9.0,15.0,68,0.00,,,0.00,VWS V14.00,2013-10-26 06:40:00,
2013-10-26 02:41:00,43.0,33.2,30.04,SSW,202,5.0,16.0,68,0.00,,,0.00,VWS V14.00,2013-10-26 06:41:00,
2013-10-26 02:42:00,43.0,32.8,30.04,SW,220,6.0,15.0,67,0.00,,,0.00,VWS V14.00,2013-10-26 06:42:00,
2013-10-26 02:43:00,43.0,32.8,30.03,SW,229,5.0,16.0,67,0.00,,,0.00,VWS V14.00,2013-10-26 06:43:00,
2013-10-26 02:44:00,43.0,32.8,30.03,SSW,210,3.0,16.0,67,0.00,,,0.00,VWS V14.00,2013-10-26 06:44:00,
2013-10-26 02:45:00,42.9,32.7,30.03,SSE,166,11.0,16.0,67,0.00,,,0.00,VWS V14.00,2013-10-26 06:45:00,
2013-10-26 02:46:00,43.0,32.8,30.03,South,173,6.0,16.0,67,0.00,,,0.00,VWS V14.00,2013-10-26 06:46:00,
2013-10-26 02:47:00,43.0,33.2,30.04,SSW,207,9.0,15.0,68,0.00,,,0.00,VWS V14.00,2013-10-26 06:47:00,
2013-10-26 02:48:00,43.0,32.8,30.03,SSW,210,9.0,16.0,67,0.00,,,0.00,VWS V14.00,2013-10-26 06:48:00,
2013-10-26 02:49:00,43.0,32.8,30.03,SW,225,6.0,16.0,67,0.00,,,0.00,VWS V14.00,2013-10-26 06:49:00,
2013-10-26 02:50:00,42.9,32.7,30.03,South,183,4.0,16.0,67,0.00,,,0.00,VWS V14.00,2013-10-26 06:50:00,
2013-10-26 02:51:00,42.9,33.1,30.03,SW,227,3.0,16.0,68,0.00,,,0.00,VWS V14.00,2013-10-26 06:51:00,
2013-10-26 02:52:00,43.0,33.2,30.04,SW,235,11.0,16.0,68,0.00,,,0.00,VWS V14.00,2013-10-26 06:52:00,
2013-10-26 02:53:00,42.9,32.7,30.03,SSW,206,6.0,16.0,67,0.00,,,0.00,VWS V14.00,2013-10-26 06:53:00,
2013-10-26 02:54:00,42.9,33.1,30.03,SW,218,3.0,16.0,68,0.00,,,0.00,VWS V14.00,2013-10-26 06:54:00,
2013-10-26 02:55:00,42.9,32.7,30.03,WSW,238,11.0,16.0,67,0.00,,,0.00,VWS V14.00,2013-10-26 06:55:00,
2013-10-26 02:56:00,42.9,32.7,30.03,SW,229,3.0,16.0,67,0.00,,,0.00,VWS V14.00,2013-10-26 06:56:00,
2013-10-26 02:57:00,43.0,32.8,30.03,SW,215,3.0,16.0,67,0.00,,,0.00,VWS V14.00,2013-10-26 06:57:00,
2013-10-26 02:58:00,42.9,33.1,30.02,SW,221,9.0,16.0,68,0.00,,,0.00,VWS V14.00,2013-10-26 06:58:00,
2013-10-26 02:59:00,42.8,33.0,30.02,SSW,196,6.0,16.0,68,0.00,,,0.00,VWS V14.00,2013-10-26 06:59:00,
2013-10-26 03:00:00,42.8,32.6,30.02,SSW,211,4.0,16.0,67,0.00,,,0.00,VWS V14.00,2013-10-26 07:00:00,
2013-10-26 03:01:00,42.8,33.0,30.03,South,176,6.0,17.0,68,0.00,,,0.00,VWS V14.00,2013-10-26 07:01:00,
2013-10-26 03:02:00,42.9,33.1,30.03,WSW,237,7.0,16.0,68,0.00,,,0.00,VWS V14.00,2013-10-26 07:02:00,
2013-10-26 03:03:00,42.8,32.6,30.02,SW,217,6.0,17.0,67,0.00,,,0.00,VWS V14.00,2013-10-26 07:03:00,
2013-10-26 03:04:00,42.8,32.6,30.02,South,173,4.0,17.0,67,0.00,,,0.00,VWS V14.00,2013-10-26 07:04:00,
2013-10-26 03:05:00,42.8,32.6,30.03,South,178,13.0,17.0,67,0.00,,,0.00,VWS V14.00,2013-10-26 07:05:00,
2013-10-26 03:06:00,42.7,32.9,30.02,West,265,9.0,17.0,68,0.00,,,0.00,VWS V14.00,2013-10-26 07:06:00,
2013-10-26 03:07:00,42.9,33.1,30.03,SW,225,4.0,16.0,68,0.00,,,0.00,VWS V14.00,2013-10-26 07:07:00,
2013-10-26 03:08:00,42.7,32.9,30.02,SSW,196,5.0,17.0,68,0.00,,,0.00,VWS V14.00,2013-10-26 07:08:00,
2013-10-26 03:09:00,42.7,32.9,30.02,SSW,200,5.0,17.0,68,0.00,,,0.00,VWS V14.00,2013-10-26 07:09:00,
2013-10-26 03:10:00,42.7,32.9,30.02,SSW,206,6.0,17.0,68,0.00,,,0.00,VWS V14.00,2013-10-26 07:10:00,
2013-10-26 03:11:00,42.7,32.5,30.02,SW,217,6.0,17.0,67,0.00,,,0.00,VWS V14.00,2013-10-26 07:11:00,
2013-10-26 03:12:00,42.8,32.6,30.03,SSE,155,10.0,17.0,67,0.00,,,0.00,VWS V14.00,2013-10-26 07:12:00,
2013-10-26 03:13:00,42.7,32.9,30.01,WSW,241,6.0,17.0,68,0.00,,,0.00,VWS V14.00,2013-10-26 07:13:00,
2013-10-26 03:14:00,42.7,32.9,30.01,SW,227,6.0,17.0,68,0.00,,,0.00,VWS V14.00,2013-10-26 07:14:00,
2013-10-26 03:15:00,42.7,32.9,30.01,SW,232,18.0,18.0,68,0.00,,,0.00,VWS V14.00,2013-10-26 07:15:00,
2013-10-26 03:16:00,42.7,32.9,30.01,SW,230,9.0,18.0,68,0.00,,,0.00,VWS V14.00,2013-10-26 07:16:00,
2013-10-26 03:17:00,42.7,32.5,30.02,WSW,244,6.0,17.0,67,0.00,,,0.00,VWS V14.00,2013-10-26 07:17:00,
2013-10-26 03:18:00,42.7,32.9,30.01,SW,224,11.0,18.0,68,0.00,,,0.00,VWS V14.00,2013-10-26 07:18:00,
2013-10-26 03:19:00,42.7,32.9,30.01,SW,221,12.0,18.0,68,0.00,,,0.00,VWS V14.00,2013-10-26 07:19:00,
2013-10-26 03:20:00,42.7,32.9,30.01,South,184,9.0,18.0,68,0.00,,,0.00,VWS V14.00,2013-10-26 07:20:00,
2013-10-26 03:21:00,42.7,32.9,30.01,SW,219,10.0,18.0,68,0.00,,,0.00,VWS V14.00,2013-10-26 07:21:00,
2013-10-26 03:22:00,42.7,32.9,30.02,SSW,201,4.0,17.0,68,0.00,,,0.00,VWS V14.00,2013-10-26 07:22:00,
2013-10-26 03:23:00,42.7,32.5,30.01,South,184,5.0,18.0,67,0.00,,,0.00,VWS V14.00,2013-10-26 07:23:00,
2013-10-26 03:24:00,42.7,32.5,30.01,SSW,192,5.0,18.0,67,0.00,,,0.00,VWS V14.00,2013-10-26 07:24:00,
2013-10-26 03:25:00,42.7,32.5,30.02,SE,140,4.0,18.0,67,0.00,,,0.00,VWS V14.00,2013-10-26 07:25:00,
2013-10-26 03:26:00,42.7,32.9,30.02,SSW,194,4.0,18.0,68,0.00,,,0.00,VWS V14.00,2013-10-26 07:26:00,
2013-10-26 03:27:00,42.7,32.9,30.01,WSW,237,16.0,18.0,68,0.00,,,0.00,VWS V14.00,2013-10-26 07:27:00,
2013-10-26 03:28:00,42.7,32.9,30.02,SSW,212,5.0,18.0,68,0.00,,,0.00,VWS V14.00,2013-10-26 07:28:00,
2013-10-26 03:29:00,42.6,32.8,30.02,SW,215,7.0,18.0,68,0.00,,,0.00,VWS V14.00,2013-10-26 07:29:00,
2013-10-26 03:30:00,42.6,32.8,30.02,SW,234,10.0,18.0,68,0.00,,,0.00,VWS V14.00,2013-10-26 07:30:00,
2013-10-26 03:31:00,42.6,32.8,30.02,SSW,200,9.0,11.0,68,0.00,,,0.00,VWS V14.00,2013-10-26 07:31:00,
2013-10-26 03:32:00,42.7,32.5,30.01,South,173,4.0,18.0,67,0.00,,,0.00,VWS V14.00,2013-10-26 07:32:00,
2013-10-26 03:33:00,42.6,32.8,30.01,SSW,213,6.0,12.0,68,0.00,,,0.00,VWS V14.00,2013-10-26 07:33:00,
2013-10-26 03:34:00,42.6,32.8,30.01,South,180,6.0,15.0,68,0.00,,,0.00,VWS V14.00,2013-10-26 07:34:00,
2013-10-26 03:35:00,42.5,32.7,30.01,South,180,5.0,15.0,68,0.00,,,0.00,VWS V14.00,2013-10-26 07:35:00,
2013-10-26 03:36:00,42.5,32.7,30.01,SSW,207,10.0,15.0,68,0.00,,,0.00,VWS V14.00,2013-10-26 07:36:00,
2013-10-26 03:37:00,42.7,32.9,30.02,SW,230,16.0,18.0,68,0.00,,,0.00,VWS V14.00,2013-10-26 07:37:00,
2013-10-26 03:38:00,42.5,32.7,30.01,SW,231,15.0,17.0,68,0.00,,,0.00,VWS V14.00,2013-10-26 07:38:00,
2013-10-26 03:39:00,42.5,32.7,30.01,SW,227,5.0,17.0,68,0.00,,,0.00,VWS V14.00,2013-10-26 07:39:00,
2013-10-26 03:40:00,42.4,32.6,30.01,SSE,164,6.0,17.0,68,0.00,,,0.00,VWS V14.00,2013-10-26 07:40:00,
2013-10-26 03:41:00,42.4,32.6,30.01,SW,236,3.0,17.0,68,0.00,,,0.00,VWS V14.00,2013-10-26 07:41:00,
2013-10-26 03:42:00,42.6,32.8,30.02,SSW,207,5.0,11.0,68,0.00,,,0.00,VWS V14.00,2013-10-26 07:42:00,
2013-10-26 03:43:00,42.4,32.6,30.01,South,185,7.0,17.0,68,0.00,,,0.00,VWS V14.00,2013-10-26 07:43:00,
2013-10-26 03:44:00,42.3,32.9,30.01,South,173,5.0,17.0,69,0.00,,,0.00,VWS V14.00,2013-10-26 07:44:00,
2013-10-26 03:45:00,42.3,32.9,30.01,SSW,205,5.0,17.0,69,0.00,,,0.00,VWS V14.00,2013-10-26 07:45:00,
2013-10-26 03:46:00,42.2,32.4,30.00,SSW,198,3.0,17.0,68,0.00,,,0.00,VWS V14.00,2013-10-26 07:46:00,
2013-10-26 03:47:00,42.5,32.7,30.01,South,186,9.0,17.0,68,0.00,,,0.00,VWS V14.00,2013-10-26 07:47:00,
2013-10-26 03:48:00,42.2,32.4,30.00,SSW,203,4.0,17.0,68,0.00,,,0.00,VWS V14.00,2013-10-26 07:48:00,
2013-10-26 03:49:00,42.2,32.8,30.00,South,190,5.0,17.0,69,0.00,,,0.00,VWS V14.00,2013-10-26 07:49:00,
2013-10-26 03:50:00,42.1,32.7,30.00,SSE,157,11.0,17.0,69,0.00,,,0.00,VWS V14.00,2013-10-26 07:50:00,
2013-10-26 03:51:00,42.1,32.7,30.00,SSW,196,11.0,17.0,69,0.00,,,0.00,VWS V14.00,2013-10-26 07:51:00,
2013-10-26 03:52:00,42.4,32.6,30.01,South,169,10.0,17.0,68,0.00,,,0.00,VWS V14.00,2013-10-26 07:52:00,
2013-10-26 03:53:00,42.0,32.2,30.00,SSE,167,4.0,17.0,68,0.00,,,0.00,VWS V14.00,2013-10-26 07:53:00,
2013-10-26 03:54:00,42.0,32.2,30.00,SSE,167,12.0,17.0,68,0.00,,,0.00,VWS V14.00,2013-10-26 07:54:00,
2013-10-26 03:55:00,42.0,32.6,30.00,SSW,199,14.0,17.0,69,0.00,,,0.00,VWS V14.00,2013-10-26 07:55:00,
2013-10-26 03:56:00,42.0,32.6,30.00,SSW,194,9.0,17.0,69,0.00,,,0.00,VWS V14.00,2013-10-26 07:56:00,
2013-10-26 03:57:00,42.2,32.8,30.00,SSW,194,11.0,17.0,69,0.00,,,0.00,VWS V14.00,2013-10-26 07:57:00,
2013-10-26 03:58:00,42.0,32.6,29.99,WSW,238,11.0,18.0,69,0.00,,,0.00,VWS V14.00,2013-10-26 07:58:00,
2013-10-26 03:59:00,42.0,32.6,29.99,South,177,6.0,18.0,69,0.00,,,0.00,VWS V14.00,2013-10-26 07:59:00,
2013-10-26 04:00:00,41.9,32.5,29.99,SE,144,11.0,18.0,69,0.00,,,0.00,VWS V14.00,2013-10-26 08:00:00,
2013-10-26 04:01:00,41.9,32.5,29.99,SSW,199,3.0,14.0,69,0.00,,,0.00,VWS V14.00,2013-10-26 08:01:00,
2013-10-26 04:02:00,42.1,32.7,30.00,SW,217,10.0,17.0,69,0.00,,,0.00,VWS V14.00,2013-10-26 08:02:00,
2013-10-26 04:03:00,42.0,32.6,29.99,SW,234,7.0,16.0,69,0.00,,,0.00,VWS V14.00,2013-10-26 08:03:00,
2013-10-26 04:04:00,42.0,32.6,29.99,SW,215,6.0,16.0,69,0.00,,,0.00,VWS V14.00,2013-10-26 08:04:00,
2013-10-26 04:05:00,42.0,32.6,29.99,SSW,209,10.0,17.0,69,0.00,,,0.00,VWS V14.00,2013-10-26 08:05:00,
2013-10-26 04:06:00,42.0,32.6,29.99,SSW,211,11.0,17.0,69,0.00,,,0.00,VWS V14.00,2013-10-26 08:06:00,
2013-10-26 04:07:00,42.0,32.6,30.00,WSW,247,16.0,17.0,69,0.00,,,0.00,VWS V14.00,2013-10-26 08:07:00,
2013-10-26 04:08:00,41.9,32.5,29.99,SSW,213,13.0,18.0,69,0.00,,,0.00,VWS V14.00,2013-10-26 08:08:00,
2013-10-26 04:09:00,42.0,32.6,29.99,SSW,202,9.0,18.0,69,0.00,,,0.00,VWS V14.00,2013-10-26 08:09:00,
2013-10-26 04:10:00,42.0,32.9,29.99,SW,233,9.0,18.0,70,0.00,,,0.00,VWS V14.00,2013-10-26 08:10:00,
2013-10-26 04:11:00,42.0,32.9,29.99,South,175,7.0,18.0,70,0.00,,,0.00,VWS V14.00,2013-10-26 08:11:00,
2013-10-26 04:12:00,42.0,32.6,29.99,South,180,13.0,14.0,69,0.00,,,0.00,VWS V14.00,2013-10-26 08:12:00,
2013-10-26 04:13:00,42.0,32.9,29.99,SSW,210,7.0,18.0,70,0.00,,,0.00,VWS V14.00,2013-10-26 08:13:00,
2013-10-26 04:14:00,41.9,32.8,29.99,SW,227,7.0,18.0,70,0.00,,,0.00,VWS V14.00,2013-10-26 08:14:00,
2013-10-26 04:15:00,41.9,32.8,29.99,South,187,6.0,18.0,70,0.00,,,0.00,VWS V14.00,2013-10-26 08:15:00,
2013-10-26 04:16:00,41.9,32.8,29.99,SW,217,1.0,18.0,70,0.00,,,0.00,VWS V14.00,2013-10-26 08:16:00,
2013-10-26 04:17:00,42.0,32.6,29.99,SW,229,11.0,18.0,69,0.00,,,0.00,VWS V14.00,2013-10-26 08:17:00,
2013-10-26 04:18:00,41.9,32.5,29.99,SW,225,5.0,18.0,69,0.00,,,0.00,VWS V14.00,2013-10-26 08:18:00,
2013-10-26 04:19:00,41.9,32.8,29.99,South,171,7.0,18.0,70,0.00,,,0.00,VWS V14.00,2013-10-26 08:19:00,
2013-10-26 04:20:00,41.9,32.8,29.99,South,183,6.0,18.0,70,0.00,,,0.00,VWS V14.00,2013-10-26 08:20:00,
2013-10-26 04:21:00,41.9,32.8,29.99,SW,214,12.0,18.0,70,0.00,,,0.00,VWS V14.00,2013-10-26 08:21:00,
2013-10-26 04:22:00,42.0,32.9,29.99,SSW,206,15.0,18.0,70,0.00,,,0.00,VWS V14.00,2013-10-26 08:22:00,
2013-10-26 04:23:00,41.9,32.8,29.99,SW,223,5.0,18.0,70,0.00,,,0.00,VWS V14.00,2013-10-26 08:23:00,
2013-10-26 04:24:00,41.8,32.4,29.98,SW,229,4.0,18.0,69,0.00,,,0.00,VWS V14.00,2013-10-26 08:24:00,
2013-10-26 04:25:00,41.8,32.4,29.98,SW,232,6.0,18.0,69,0.00,,,0.00,VWS V14.00,2013-10-26 08:25:00,
2013-10-26 04:26:00,41.8,32.8,29.98,SW,224,3.0,18.0,70,0.00,,,0.00,VWS V14.00,2013-10-26 08:26:00,
2013-10-26 04:27:00,41.9,32.8,29.99,SW,236,11.0,18.0,70,0.00,,,0.00,VWS V14.00,2013-10-26 08:27:00,
2013-10-26 04:28:00,41.8,32.8,29.98,ESE,111,12.0,18.0,70,0.00,,,0.00,VWS V14.00,2013-10-26 08:28:00,
2013-10-26 04:29:00,41.8,32.4,29.98,SW,223,7.0,19.0,69,0.00,,,0.00,VWS V14.00,2013-10-26 08:29:00,
2013-10-26 04:30:00,41.8,32.4,29.98,SW,226,5.0,19.0,69,0.00,,,0.00,VWS V14.00,2013-10-26 08:30:00,
2013-10-26 04:31:00,41.8,32.4,29.98,SW,222,5.0,6.0,69,0.00,,,0.00,VWS V14.00,2013-10-26 08:31:00,
2013-10-26 04:32:00,41.8,32.8,29.99,WSW,245,11.0,18.0,70,0.00,,,0.00,VWS V14.00,2013-10-26 08:32:00,
2013-10-26 04:33:00,41.8,32.8,29.98,South,180,10.0,12.0,70,0.00,,,0.00,VWS V14.00,2013-10-26 08:33:00,
2013-10-26 04:34:00,41.8,32.8,29.98,SSW,211,6.0,16.0,70,0.00,,,0.00,VWS V14.00,2013-10-26 08:34:00,
2013-10-26 04:35:00,41.8,32.4,29.98,SSW,210,2.0,17.0,69,0.00,,,0.00,VWS V14.00,2013-10-26 08:35:00,
2013-10-26 04:36:00,41.8,32.4,29.97,South,175,13.0,17.0,69,0.00,,,0.00,VWS V14.00,2013-10-26 08:36:00,
2013-10-26 04:37:00,41.8,32.8,29.98,South,190,10.0,18.0,70,0.00,,,0.00,VWS V14.00,2013-10-26 08:37:00,
2013-10-26 04:38:00,41.8,32.8,29.98,South,185,9.0,17.0,70,0.00,,,0.00,VWS V14.00,2013-10-26 08:38:00,
2013-10-26 04:39:00,41.8,32.8,29.98,SSW,209,3.0,17.0,70,0.00,,,0.00,VWS V14.00,2013-10-26 08:39:00,
2013-10-26 04:40:00,41.8,32.8,29.98,SSW,198,12.0,17.0,70,0.00,,,0.00,VWS V14.00,2013-10-26 08:40:00,
2013-10-26 04:41:00,41.8,32.8,29.98,SW,223,4.0,17.0,70,0.00,,,0.00,VWS V14.00,2013-10-26 08:41:00,
2013-10-26 04:42:00,41.8,32.8,29.98,SSE,163,7.0,10.0,70,0.00,,,0.00,VWS V14.00,2013-10-26 08:42:00,
2013-10-26 04:43:00,41.8,32.8,29.98,SW,223,7.0,18.0,70,0.00,,,0.00,VWS V14.00,2013-10-26 08:43:00,
2013-10-26 04:44:00,41.8,32.8,29.98,SSE,157,5.0,18.0,70,0.00,,,0.00,VWS V14.00,2013-10-26 08:44:00,
2013-10-26 04:45:00,41.8,32.8,29.98,South,189,2.0,18.0,70,0.00,,,0.00,VWS V14.00,2013-10-26 08:45:00,
2013-10-26 04:46:00,41.8,32.8,29.98,South,176,8.0,18.0,70,0.00,,,0.00,VWS V14.00,2013-10-26 08:46:00,
2013-10-26 04:47:00,41.8,32.8,29.97,SSE,152,9.0,17.0,70,0.00,,,0.00,VWS V14.00,2013-10-26 08:47:00,
2013-10-26 04:48:00,41.7,32.7,29.97,SSW,213,4.0,18.0,70,0.00,,,0.00,VWS V14.00,2013-10-26 08:48:00,
2013-10-26 04:49:00,41.7,32.7,29.97,SSW,207,4.0,18.0,70,0.00,,,0.00,VWS V14.00,2013-10-26 08:49:00,
2013-10-26 04:50:00,41.7,32.7,29.98,SSW,200,16.0,18.0,70,0.00,,,0.00,VWS V14.00,2013-10-26 08:50:00,
2013-10-26 04:51:00,41.7,32.7,29.97,SW,233,13.0,18.0,70,0.00,,,0.00,VWS V14.00,2013-10-26 08:51:00,
2013-10-26 04:52:00,41.8,32.8,29.98,SSW,211,3.0,18.0,70,0.00,,,0.00,VWS V14.00,2013-10-26 08:52:00,
2013-10-26 04:53:00,41.7,32.7,29.97,South,191,4.0,18.0,70,0.00,,,0.00,VWS V14.00,2013-10-26 08:53:00,
2013-10-26 04:54:00,41.7,32.7,29.97,SSE,159,6.0,18.0,70,0.00,,,0.00,VWS V14.00,2013-10-26 08:54:00,
2013-10-26 04:55:00,41.7,32.7,29.97,SSW,199,2.0,18.0,70,0.00,,,0.00,VWS V14.00,2013-10-26 08:55:00,
2013-10-26 04:56:00,41.7,33.0,29.96,SW,219,4.0,18.0,71,0.00,,,0.00,VWS V14.00,2013-10-26 08:56:00,
2013-10-26 04:57:00,41.7,32.7,29.98,SW,229,11.0,18.0,70,0.00,,,0.00,VWS V14.00,2013-10-26 08:57:00,
2013-10-26 04:58:00,41.7,32.7,29.97,SSW,202,6.0,18.0,70,0.00,,,0.00,VWS V14.00,2013-10-26 08:58:00,
2013-10-26 04:59:00,41.7,32.7,29.96,WSW,240,10.0,20.0,70,0.00,,,0.00,VWS V14.00,2013-10-26 08:59:00,
2013-10-26 05:00:00,41.6,32.2,29.96,SSW,209,9.0,20.0,69,0.00,,,0.00,VWS V14.00,2013-10-26 09:00:00,
2013-10-26 05:01:00,41.6,32.6,29.96,SSW,198,12.0,17.0,70,0.00,,,0.00,VWS V14.00,2013-10-26 09:01:00,
2013-10-26 05:02:00,41.7,32.7,29.97,SSW,198,8.0,18.0,70,0.00,,,0.00,VWS V14.00,2013-10-26 09:02:00,
2013-10-26 05:03:00,41.6,32.6,29.96,SSW,209,6.0,17.0,70,0.00,,,0.00,VWS V14.00,2013-10-26 09:03:00,
2013-10-26 05:04:00,41.6,32.6,29.96,SW,233,6.0,17.0,70,0.00,,,0.00,VWS V14.00,2013-10-26 09:04:00,
2013-10-26 05:05:00,41.6,32.2,29.96,WSW,238,4.0,17.0,69,0.00,,,0.00,VWS V14.00,2013-10-26 09:05:00,
2013-10-26 05:06:00,41.6,32.6,29.96,SW,227,6.0,17.0,70,0.00,,,0.00,VWS V14.00,2013-10-26 09:06:00,
2013-10-26 05:07:00,41.7,33.0,29.96,SW,232,10.0,18.0,71,0.00,,,0.00,VWS V14.00,2013-10-26 09:07:00,
2013-10-26 05:08:00,41.6,32.6,29.96,SSW,209,4.0,17.0,70,0.00,,,0.00,VWS V14.00,2013-10-26 09:08:00,
2013-10-26 05:09:00,41.6,32.6,29.96,SW,217,4.0,17.0,70,0.00,,,0.00,VWS V14.00,2013-10-26 09:09:00,
2013-10-26 05:10:00,41.6,32.6,29.96,SW,232,11.0,17.0,70,0.00,,,0.00,VWS V14.00,2013-10-26 09:10:00,
2013-10-26 05:11:00,41.6,32.6,29.96,SW,218,5.0,17.0,70,0.00,,,0.00,VWS V14.00,2013-10-26 09:11:00,
2013-10-26 05:12:00,41.6,32.6,29.96,SSW,209,13.0,17.0,70,0.00,,,0.00,VWS V14.00,2013-10-26 09:12:00,
2013-10-26 05:13:00,41.6,32.6,29.96,SSW,207,7.0,17.0,70,0.00,,,0.00,VWS V14.00,2013-10-26 09:13:00,
2013-10-26 05:14:00,41.6,32.9,29.96,SSW,211,5.0,17.0,71,0.00,,,0.00,VWS V14.00,2013-10-26 09:14:00,
2013-10-26 05:15:00,41.6,32.9,29.95,SW,235,4.0,17.0,71,0.00,,,0.00,VWS V14.00,2013-10-26 09:15:00,
2013-10-26 05:16:00,41.6,32.9,29.95,SW,219,10.0,17.0,71,0.00,,,0.00,VWS V14.00,2013-10-26 09:16:00,
2013-10-26 05:17:00,41.6,32.6,29.96,SSW,200,5.0,17.0,70,0.00,,,0.00,VWS V14.00,2013-10-26 09:17:00,
2013-10-26 05:18:00,41.6,32.9,29.96,SSW,205,6.0,17.0,71,0.00,,,0.00,VWS V14.00,2013-10-26 09:18:00,
2013-10-26 05:19:00,41.6,32.9,29.95,SSW,205,2.0,17.0,71,0.00,,,0.00,VWS V14.00,2013-10-26 09:19:00,
2013-10-26 05:20:00,41.6,32.9,29.96,South,182,5.0,17.0,71,0.00,,,0.00,VWS V14.00,2013-10-26 09:20:00,
2013-10-26 05:21:00,41.6,32.9,29.95,SSW,201,9.0,17.0,71,0.00,,,0.00,VWS V14.00,2013-10-26 09:21:00,
2013-10-26 05:22:00,41.6,32.6,29.96,SW,225,1.0,17.0,70,0.00,,,0.00,VWS V14.00,2013-10-26 09:22:00,
2013-10-26 05:23:00,41.6,32.9,29.95,SW,230,6.0,17.0,71,0.00,,,0.00,VWS V14.00,2013-10-26 09:23:00,
2013-10-26 05:24:00,41.6,32.9,29.95,WSW,240,2.0,17.0,71,0.00,,,0.00,VWS V14.00,2013-10-26 09:24:00,
2013-10-26 05:25:00,41.6,32.9,29.95,SW,215,6.0,17.0,71,0.00,,,0.00,VWS V14.00,2013-10-26 09:25:00,
2013-10-26 05:26:00,41.6,32.9,29.95,SW,224,3.0,17.0,71,0.00,,,0.00,VWS V14.00,2013-10-26 09:26:00,
2013-10-26 05:27:00,41.6,32.6,29.95,SSW,212,4.0,17.0,70,0.00,,,0.00,VWS V14.00,2013-10-26 09:27:00,
2013-10-26 05:28:00,41.6,32.9,29.95,SW,215,9.0,17.0,71,0.00,,,0.00,VWS V14.00,2013-10-26 09:28:00,
2013-10-26 05:29:00,41.6,33.3,29.95,SW,218,6.0,17.0,72,0.00,,,0.00,VWS V14.00,2013-10-26 09:29:00,
2013-10-26 05:30:00,41.6,32.9,29.95,SSW,207,11.0,17.0,71,0.00,,,0.00,VWS V14.00,2013-10-26 09:30:00,
2013-10-26 05:31:00,41.6,32.6,29.95,SSW,194,7.0,13.0,70,0.00,,,0.00,VWS V14.00,2013-10-26 09:31:00,
2013-10-26 05:32:00,41.6,32.9,29.95,WSW,242,7.0,17.0,71,0.00,,,0.00,VWS V14.00,2013-10-26 09:32:00,
2013-10-26 05:33:00,41.6,32.6,29.95,SSW,209,7.0,13.0,70,0.00,,,0.00,VWS V14.00,2013-10-26 09:33:00,
2013-10-26 05:34:00,41.6,32.6,29.95,SSW,202,8.0,17.0,70,0.00,,,0.00,VWS V14.00,2013-10-26 09:34:00,
2013-10-26 05:35:00,41.6,32.6,29.95,South,173,7.0,17.0,70,0.00,,,0.00,VWS V14.00,2013-10-26 09:35:00,
2013-10-26 05:36:00,41.6,32.6,29.95,SSW,198,8.0,17.0,70,0.00,,,0.00,VWS V14.00,2013-10-26 09:36:00,
2013-10-26 05:37:00,41.6,32.9,29.95,South,178,3.0,17.0,71,0.00,,,0.00,VWS V14.00,2013-10-26 09:37:00,
2013-10-26 05:38:00,41.6,32.9,29.95,SW,227,6.0,18.0,71,0.00,,,0.00,VWS V14.00,2013-10-26 09:38:00,
2013-10-26 05:39:00,41.6,32.6,29.95,SW,225,8.0,18.0,70,0.00,,,0.00,VWS V14.00,2013-10-26 09:39:00,
2013-10-26 05:40:00,41.6,32.6,29.95,SSE,162,12.0,19.0,70,0.00,,,0.00,VWS V14.00,2013-10-26 09:40:00,
2013-10-26 05:41:00,41.6,32.6,29.95,SSW,202,4.0,19.0,70,0.00,,,0.00,VWS V14.00,2013-10-26 09:41:00,
2013-10-26 05:42:00,41.6,32.6,29.95,SSW,201,4.0,13.0,70,0.00,,,0.00,VWS V14.00,2013-10-26 09:42:00,
2013-10-26 05:43:00,41.5,32.5,29.95,South,169,7.0,19.0,70,0.00,,,0.00,VWS V14.00,2013-10-26 09:43:00,
2013-10-26 05:44:00,41.5,32.5,29.95,SSW,195,5.0,19.0,70,0.00,,,0.00,VWS V14.00,2013-10-26 09:44:00,
2013-10-26 05:45:00,41.5,32.5,29.94,South,175,12.0,19.0,70,0.00,,,0.00,VWS V14.00,2013-10-26 09:45:00,
2013-10-26 05:46:00,41.5,32.8,29.94,SSE,155,13.0,19.0,71,0.00,,,0.00,VWS V14.00,2013-10-26 09:46:00,
2013-10-26 05:47:00,41.6,32.6,29.95,SW,236,6.0,17.0,70,0.00,,,0.00,VWS V14.00,2013-10-26 09:47:00,
2013-10-26 05:48:00,41.5,32.5,29.94,SSW,211,10.0,19.0,70,0.00,,,0.00,VWS V14.00,2013-10-26 09:48:00,
2013-10-26 05:49:00,41.5,32.5,29.94,SSW,212,7.0,19.0,70,0.00,,,0.00,VWS V14.00,2013-10-26 09:49:00,
2013-10-26 05:50:00,41.5,32.8,29.94,South,188,5.0,19.0,71,0.00,,,0.00,VWS V14.00,2013-10-26 09:50:00,
2013-10-26 05:51:00,41.5,32.5,29.94,South,172,6.0,19.0,70,0.00,,,0.00,VWS V14.00,2013-10-26 09:51:00,
2013-10-26 05:52:00,41.6,32.6,29.95,SSE,153,3.0,19.0,70,0.00,,,0.00,VWS V14.00,2013-10-26 09:52:00,
2013-10-26 05:53:00,41.5,32.8,29.94,SW,223,12.0,19.0,71,0.00,,,0.00,VWS V14.00,2013-10-26 09:53:00,
2013-10-26 05:54:00,41.5,32.8,29.94,South,176,5.0,19.0,71,0.00,,,0.00,VWS V14.00,2013-10-26 09:54:00,
2013-10-26 05:55:00,41.5,32.5,29.94,SSW,208,10.0,19.0,70,0.00,,,0.00,VWS V14.00,2013-10-26 09:55:00,
2013-10-26 05:56:00,41.5,32.8,29.94,SW,217,9.0,19.0,71,0.00,,,0.00,VWS V14.00,2013-10-26 09:56:00,
2013-10-26 05:57:00,41.5,32.8,29.94,South,180,4.0,19.0,71,0.00,,,0.00,VWS V14.00,2013-10-26 09:57:00,
2013-10-26 05:58:00,41.5,32.8,29.94,SW,217,7.0,19.0,71,0.00,,,0.00,VWS V14.00,2013-10-26 09:58:00,
2013-10-26 05:59:00,41.5,32.8,29.94,SSW,201,7.0,19.0,71,0.00,,,0.00,VWS V14.00,2013-10-26 09:59:00,
2013-10-26 06:00:00,41.5,32.8,29.94,South,175,6.0,19.0,71,0.00,,,0.00,VWS V14.00,2013-10-26 10:00:00,
2013-10-26 06:01:00,41.5,32.8,29.94,SW,228,6.0,7.0,71,0.00,,,0.00,VWS V14.00,2013-10-26 10:01:00,
2013-10-26 06:02:00,41.5,32.5,29.94,SW,232,7.0,19.0,70,0.00,,,0.00,VWS V14.00,2013-10-26 10:02:00,
2013-10-26 06:03:00,41.5,32.8,29.93,WSW,249,10.0,16.0,71,0.00,,,0.00,VWS V14.00,2013-10-26 10:03:00,
2013-10-26 06:04:00,41.5,32.8,29.93,SSW,198,3.0,19.0,71,0.00,,,0.00,VWS V14.00,2013-10-26 10:04:00,
2013-10-26 06:05:00,41.5,32.8,29.94,SSW,192,5.0,19.0,71,0.00,,,0.00,VWS V14.00,2013-10-26 10:05:00,
2013-10-26 06:06:00,41.4,32.7,29.94,SSW,207,7.0,19.0,71,0.00,,,0.00,VWS V14.00,2013-10-26 10:06:00,
2013-10-26 06:07:00,41.5,32.8,29.94,SSW,202,3.0,19.0,71,0.00,,,0.00,VWS V14.00,2013-10-26 10:07:00,
2013-10-26 06:08:00,41.5,32.8,29.93,SSW,200,3.0,19.0,71,0.00,,,0.00,VWS V14.00,2013-10-26 10:08:00,
2013-10-26 06:09:00,41.5,32.8,29.93,SSW,192,9.0,19.0,71,0.00,,,0.00,VWS V14.00,2013-10-26 10:09:00,
2013-10-26 06:10:00,41.5,32.8,29.93,SSW,207,2.0,19.0,71,0.00,,,0.00,VWS V14.00,2013-10-26 10:10:00,
2013-10-26 06:11:00,41.5,32.8,29.93,WSW,240,6.0,19.0,71,0.00,,,0.00,VWS V14.00,2013-10-26 10:11:00,
2013-10-26 06:12:00,41.5,32.8,29.94,SSW,211,2.0,16.0,71,0.00,,,0.00,VWS V14.00,2013-10-26 10:12:00,
2013-10-26 06:13:00,41.5,32.5,29.93,SW,217,12.0,19.0,70,0.00,,,0.00,VWS V14.00,2013-10-26 10:13:00,
2013-10-26 06:14:00,41.5,32.8,29.93,WSW,248,10.0,19.0,71,0.00,,,0.00,VWS V14.00,2013-10-26 10:14:00,
2013-10-26 06:15:00,41.5,32.8,29.94,SSW,212,10.0,19.0,71,0.00,,,0.00,VWS V14.00,2013-10-26 10:15:00,
2013-10-26 06:16:00,41.6,32.9,29.93,SW,216,9.0,19.0,71,0.00,,,0.00,VWS V14.00,2013-10-26 10:16:00,
2013-10-26 06:17:00,41.5,32.8,29.94,WSW,240,5.0,19.0,71,0.00,,,0.00,VWS V14.00,2013-10-26 10:17:00,
2013-10-26 06:18:00,41.6,32.9,29.93,SSW,195,6.0,19.0,71,0.00,,,0.00,VWS V14.00,2013-10-26 10:18:00,
2013-10-26 06:19:00,41.6,32.9,29.93,SSW,209,9.0,19.0,71,0.00,,,0.00,VWS V14.00,2013-10-26 10:19:00,
2013-10-26 06:20:00,41.6,32.6,29.93,SSW,203,7.0,19.0,70,0.00,,,0.00,VWS V14.00,2013-10-26 10:20:00,
2013-10-26 06:21:00,41.6,32.6,29.93,South,190,3.0,19.0,70,0.00,,,0.00,VWS V14.00,2013-10-26 10:21:00,
2013-10-26 06:22:00,41.5,32.8,29.93,WSW,246,18.0,19.0,71,0.00,,,0.00,VWS V14.00,2013-10-26 10:22:00,
2013-10-26 06:23:00,41.6,32.6,29.93,SW,219,9.0,19.0,70,0.00,,,0.00,VWS V14.00,2013-10-26 10:23:00,
2013-10-26 06:24:00,41.6,32.6,29.93,SSE,167,12.0,19.0,70,0.00,,,0.00,VWS V14.00,2013-10-26 10:24:00,
2013-10-26 06:25:00,41.6,32.6,29.93,SSW,211,7.0,19.0,70,0.00,,,0.00,VWS V14.00,2013-10-26 10:25:00,
2013-10-26 06:26:00,41.6,32.6,29.92,SW,221,4.0,19.0,70,0.00,,,0.00,VWS V14.00,2013-10-26 10:26:00,
2013-10-26 06:27:00,41.6,32.9,29.93,WSW,238,8.0,19.0,71,0.00,,,0.00,VWS V14.00,2013-10-26 10:27:00,
2013-10-26 06:28:00,41.6,32.6,29.92,South,181,12.0,19.0,70,0.00,,,0.00,VWS V14.00,2013-10-26 10:28:00,
2013-10-26 06:29:00,41.6,32.6,29.92,SW,234,14.0,19.0,70,0.00,,,0.00,VWS V14.00,2013-10-26 10:29:00,
2013-10-26 06:30:00,41.6,32.6,29.92,South,183,9.0,19.0,70,0.00,,,0.00,VWS V14.00,2013-10-26 10:30:00,
2013-10-26 06:31:00,41.6,32.6,29.92,SSE,166,3.0,20.0,70,0.00,,,0.00,VWS V14.00,2013-10-26 10:31:00,
2013-10-26 06:32:00,41.6,32.6,29.93,SSW,196,13.0,19.0,70,0.00,,,0.00,VWS V14.00,2013-10-26 10:32:00,
2013-10-26 06:33:00,41.6,32.9,29.92,South,170,5.0,20.0,71,0.00,,,0.00,VWS V14.00,2013-10-26 10:33:00,
2013-10-26 06:34:00,41.6,32.6,29.92,SSW,201,18.0,20.0,70,0.00,,,0.00,VWS V14.00,2013-10-26 10:34:00,
2013-10-26 06:35:00,41.6,32.6,29.91,South,174,7.0,20.0,70,0.00,,,0.00,VWS V14.00,2013-10-26 10:35:00,
2013-10-26 06:36:00,41.7,32.7,29.91,SW,223,10.0,20.0,70,0.00,,,0.00,VWS V14.00,2013-10-26 10:36:00,
2013-10-26 06:37:00,41.6,32.6,29.92,SSE,162,7.0,19.0,70,0.00,,,0.00,VWS V14.00,2013-10-26 10:37:00,
2013-10-26 06:38:00,41.7,32.7,29.91,SW,214,10.0,20.0,70,0.00,,,0.00,VWS V14.00,2013-10-26 10:38:00,
2013-10-26 06:39:00,41.7,32.7,29.92,SSW,212,7.0,20.0,70,0.00,,,0.00,VWS V14.00,2013-10-26 10:39:00,
2013-10-26 06:40:00,41.7,32.7,29.92,SW,221,14.0,22.0,70,0.00,,,0.00,VWS V14.00,2013-10-26 10:40:00,
2013-10-26 06:41:00,41.8,33.1,29.92,SW,231,9.0,22.0,71,0.00,,,0.00,VWS V14.00,2013-10-26 10:41:00,
2013-10-26 06:42:00,41.6,32.6,29.92,SSW,210,10.0,20.0,70,0.00,,,0.00,VWS V14.00,2013-10-26 10:42:00,
2013-10-26 06:43:00,41.8,32.8,29.92,SSW,198,4.0,22.0,70,0.00,,,0.00,VWS V14.00,2013-10-26 10:43:00,
2013-10-26 06:44:00,41.8,32.8,29.92,SW,231,7.0,22.0,70,0.00,,,0.00,VWS V14.00,2013-10-26 10:44:00,
2013-10-26 06:45:00,41.8,32.8,29.92,SW,227,3.0,22.0,70,0.00,,,0.00,VWS V14.00,2013-10-26 10:45:00,
2013-10-26 06:46:00,41.8,32.8,29.92,SW,218,8.0,22.0,70,0.00,,,0.00,VWS V14.00,2013-10-26 10:46:00,
2013-10-26 06:47:00,41.7,32.7,29.91,SW,230,11.0,20.0,70,0.00,,,0.00,VWS V14.00,2013-10-26 10:47:00,
2013-10-26 06:48:00,41.8,32.8,29.92,SW,234,6.0,22.0,70,0.00,,,0.00,VWS V14.00,2013-10-26 10:48:00,
2013-10-26 06:49:00,41.8,32.8,29.92,SW,217,6.0,22.0,70,0.00,,,0.00,VWS V14.00,2013-10-26 10:49:00,
2013-10-26 06:50:00,41.8,32.8,29.92,SSW,210,7.0,22.0,70,0.00,,,0.00,VWS V14.00,2013-10-26 10:50:00,
2013-10-26 06:51:00,41.7,32.7,29.91,SSW,198,16.0,22.0,70,0.00,,,0.00,VWS V14.00,2013-10-26 10:51:00,
2013-10-26 06:52:00,41.8,33.1,29.92,SSW,194,12.0,22.0,71,0.00,,,0.00,VWS V14.00,2013-10-26 10:52:00,
2013-10-26 06:53:00,41.8,32.8,29.91,SSW,205,6.0,22.0,70,0.00,,,0.00,VWS V14.00,2013-10-26 10:53:00,
2013-10-26 06:54:00,41.7,32.7,29.91,South,191,2.0,22.0,70,0.00,,,0.00,VWS V14.00,2013-10-26 10:54:00,
2013-10-26 06:55:00,41.7,32.7,29.91,SSE,158,6.0,22.0,70,0.00,,,0.00,VWS V14.00,2013-10-26 10:55:00,
2013-10-26 06:56:00,41.7,32.7,29.91,SW,220,11.0,22.0,70,0.00,,,0.00,VWS V14.00,2013-10-26 10:56:00,
2013-10-26 06:57:00,41.8,32.8,29.92,SW,233,11.0,22.0,70,0.00,,,0.00,VWS V14.00,2013-10-26 10:57:00,
2013-10-26 06:58:00,41.7,32.7,29.91,South,171,10.0,22.0,70,0.00,,,0.00,VWS V14.00,2013-10-26 10:58:00,
2013-10-26 06:59:00,41.7,32.7,29.90,South,176,10.0,22.0,70,0.00,,,0.00,VWS V14.00,2013-10-26 10:59:00,
2013-10-26 07:00:00,41.7,32.7,29.90,South,188,12.0,22.0,70,0.00,,,0.00,VWS V14.00,2013-10-26 11:00:00,
2013-10-26 07:01:00,41.6,32.6,29.91,SW,234,9.0,16.0,70,0.00,,,0.00,VWS V14.00,2013-10-26 11:01:00,
2013-10-26 07:02:00,41.7,32.7,29.91,SSE,160,9.0,22.0,70,0.00,,,0.00,VWS V14.00,2013-10-26 11:02:00,
2013-10-26 07:03:00,41.6,32.9,29.91,WSW,249,9.0,16.0,71,0.00,,,0.00,VWS V14.00,2013-10-26 11:03:00,
2013-10-26 07:04:00,41.6,32.6,29.91,SSW,198,15.0,16.0,70,0.00,,,0.00,VWS V14.00,2013-10-26 11:04:00,
2013-10-26 07:05:00,41.6,32.6,29.91,South,182,12.0,20.0,70,0.00,,,0.00,VWS V14.00,2013-10-26 11:05:00,
2013-10-26 07:06:00,41.6,32.6,29.90,South,179,12.0,20.0,70,0.00,,,0.00,VWS V14.00,2013-10-26 11:06:00,
2013-10-26 07:07:00,41.7,32.7,29.91,SW,233,10.0,22.0,70,0.00,,,0.00,VWS V14.00,2013-10-26 11:07:00,
2013-10-26 07:08:00,41.6,32.6,29.91,SSE,159,6.0,20.0,70,0.00,,,0.00,VWS V14.00,2013-10-26 11:08:00,
2013-10-26 07:09:00,41.6,32.6,29.91,SSE,167,5.0,20.0,70,0.00,,,0.00,VWS V14.00,2013-10-26 11:09:00,
2013-10-26 07:10:00,41.6,32.6,29.90,SW,221,3.0,20.0,70,0.00,,,0.00,VWS V14.00,2013-10-26 11:10:00,
2013-10-26 07:11:00,41.6,32.6,29.90,SSE,168,5.0,20.0,70,0.00,,,0.00,VWS V14.00,2013-10-26 11:11:00,
2013-10-26 07:12:00,41.6,32.6,29.91,SW,219,6.0,16.0,70,0.00,,,0.00,VWS V14.00,2013-10-26 11:12:00,
2013-10-26 07:13:00,41.7,32.7,29.90,SSW,213,7.0,20.0,70,0.00,,,0.00,VWS V14.00,2013-10-26 11:13:00,
2013-10-26 07:14:00,41.7,32.7,29.90,SW,233,6.0,20.0,70,0.00,,,0.00,VWS V14.00,2013-10-26 11:14:00,
2013-10-26 07:15:00,41.7,33.0,29.90,SSE,153,9.0,20.0,71,0.00,,,0.00,VWS V14.00,2013-10-26 11:15:00,
2013-10-26 07:16:00,41.7,32.7,29.90,SW,232,13.0,20.0,70,0.00,,,0.00,VWS V14.00,2013-10-26 11:16:00,
2013-10-26 07:17:00,41.6,32.6,29.90,SSE,157,10.0,20.0,70,0.00,,,0.00,VWS V14.00,2013-10-26 11:17:00,
2013-10-26 07:18:00,41.7,32.7,29.90,South,185,6.0,20.0,70,0.00,,,0.00,VWS V14.00,2013-10-26 11:18:00,
2013-10-26 07:19:00,41.8,33.1,29.90,West,261,6.0,20.0,71,0.00,,,0.00,VWS V14.00,2013-10-26 11:19:00,
2013-10-26 07:20:00,41.8,32.8,29.90,SSW,195,7.0,20.0,70,0.00,,,0.00,VWS V14.00,2013-10-26 11:20:00,
2013-10-26 07:21:00,41.8,32.8,29.90,SSE,166,5.0,20.0,70,0.00,,,0.00,VWS V14.00,2013-10-26 11:21:00,
2013-10-26 07:22:00,41.6,32.6,29.90,SW,223,5.0,20.0,70,0.00,,,0.00,VWS V14.00,2013-10-26 11:22:00,
2013-10-26 07:23:00,41.8,32.8,29.89,South,189,9.0,20.0,70,0.00,,,0.00,VWS V14.00,2013-10-26 11:23:00,
2013-10-26 07:24:00,41.9,32.8,29.89,SSW,196,11.0,20.0,70,0.00,,,0.00,VWS V14.00,2013-10-26 11:24:00,
2013-10-26 07:25:00,41.9,32.8,29.89,South,172,5.0,20.0,70,0.00,,,0.00,VWS V14.00,2013-10-26 11:25:00,
2013-10-26 07:26:00,41.9,32.8,29.89,South,172,5.0,20.0,70,0.00,,,0.00,VWS V14.00,2013-10-26 11:26:00,
2013-10-26 07:27:00,41.7,32.7,29.90,SSW,197,4.0,20.0,70,0.00,,,0.00,VWS V14.00,2013-10-26 11:27:00,
2013-10-26 07:28:00,41.8,32.4,29.89,South,173,7.0,20.0,69,0.00,,,0.00,VWS V14.00,2013-10-26 11:28:00,
2013-10-26 07:29:00,41.9,32.5,29.90,SSE,166,12.0,20.0,69,0.00,,,0.00,VWS V14.00,2013-10-26 11:29:00,
2013-10-26 07:30:00,41.9,32.8,29.90,SW,223,4.0,20.0,70,0.00,,,0.00,VWS V14.00,2013-10-26 11:30:00,
2013-10-26 07:31:00,41.9,32.8,29.89,SW,229,16.0,16.0,70,0.00,,,0.00,VWS V14.00,2013-10-26 11:31:00,
2013-10-26 07:32:00,41.8,32.8,29.90,SSE,159,11.0,20.0,70,0.00,,,0.00,VWS V14.00,2013-10-26 11:32:00,
2013-10-26 07:33:00,41.9,32.5,29.89,SW,230,12.0,24.0,69,0.00,,,0.00,VWS V14.00,2013-10-26 11:33:00,
2013-10-26 07:34:00,41.9,32.5,29.89,SW,214,9.0,24.0,69,0.00,,,0.00,VWS V14.00,2013-10-26 11:34:00,
2013-10-26 07:35:00,41.9,32.5,29.89,West,267,4.0,24.0,69,0.00,,,0.00,VWS V14.00,2013-10-26 11:35:00,
2013-10-26 07:36:00,41.9,32.5,29.89,SSW,196,10.0,24.0,69,0.00,,,0.00,VWS V14.00,2013-10-26 11:36:00,
2013-10-26 07:37:00,41.8,32.4,29.89,South,175,12.0,20.0,69,0.00,,,0.00,VWS V14.00,2013-10-26 11:37:00,
2013-10-26 07:38:00,41.9,32.5,29.89,South,174,7.0,24.0,69,0.00,,,0.00,VWS V14.00,2013-10-26 11:38:00,
2013-10-26 07:39:00,41.9,32.5,29.89,SSE,168,6.0,24.0,69,0.00,,,0.00,VWS V14.00,2013-10-26 11:39:00,
2013-10-26 07:40:00,41.9,32.5,29.89,SSE,163,3.0,24.0,69,0.00,,,0.00,VWS V14.00,2013-10-26 11:40:00,
2013-10-26 07:41:00,41.9,32.8,29.89,South,190,9.0,24.0,70,0.00,,,0.00,VWS V14.00,2013-10-26 11:41:00,
2013-10-26 07:42:00,41.9,32.5,29.89,South,176,16.0,16.0,69,0.00,,,0.00,VWS V14.00,2013-10-26 11:42:00,
2013-10-26 07:43:00,41.9,32.8,29.89,South,189,16.0,24.0,70,0.00,,,0.00,VWS V14.00,2013-10-26 11:43:00,
2013-10-26 07:44:00,41.9,32.8,29.89,SSW,195,11.0,24.0,70,0.00,,,0.00,VWS V14.00,2013-10-26 11:44:00,
2013-10-26 07:45:00,41.9,32.8,29.89,SW,215,2.0,24.0,70,0.00,,,0.00,VWS V14.00,2013-10-26 11:45:00,
2013-10-26 07:46:00,41.9,32.8,29.89,SSW,202,6.0,24.0,70,0.00,,,0.00,VWS V14.00,2013-10-26 11:46:00,
2013-10-26 07:47:00,41.9,32.5,29.89,SW,219,10.0,24.0,69,0.00,,,0.00,VWS V14.00,2013-10-26 11:47:00,
2013-10-26 07:48:00,41.9,32.5,29.89,SSW,203,12.0,24.0,69,0.00,,,0.00,VWS V14.00,2013-10-26 11:48:00,
2013-10-26 07:49:00,41.9,32.5,29.89,SSW,206,3.0,24.0,69,0.00,,,0.00,VWS V14.00,2013-10-26 11:49:00,
2013-10-26 07:50:00,41.9,32.5,29.89,SSW,208,4.0,24.0,69,0.00,,,0.00,VWS V14.00,2013-10-26 11:50:00,
2013-10-26 07:51:00,41.9,32.5,29.89,WSW,238,11.0,24.0,69,0.00,,,0.00,VWS V14.00,2013-10-26 11:51:00,
2013-10-26 07:52:00,41.9,32.8,29.89,SW,214,3.0,24.0,70,0.00,,,0.00,VWS V14.00,2013-10-26 11:52:00,
2013-10-26 07:53:00,41.9,32.5,29.89,SSW,197,14.0,24.0,69,0.00,,,0.00,VWS V14.00,2013-10-26 11:53:00,
2013-10-26 07:54:00,41.9,32.5,29.89,SSW,195,4.0,24.0,69,0.00,,,0.00,VWS V14.00,2013-10-26 11:54:00,
2013-10-26 07:55:00,41.9,32.5,29.89,WSW,250,2.0,24.0,69,0.00,,,0.00,VWS V14.00,2013-10-26 11:55:00,
2013-10-26 07:56:00,41.9,32.5,29.88,SW,229,9.0,24.0,69,0.00,,,0.00,VWS V14.00,2013-10-26 11:56:00,
2013-10-26 07:57:00,42.0,32.6,29.89,SW,219,3.0,24.0,69,0.00,,,0.00,VWS V14.00,2013-10-26 11:57:00,
2013-10-26 07:58:00,41.9,32.5,29.88,South,190,7.0,24.0,69,0.00,,,0.00,VWS V14.00,2013-10-26 11:58:00,
2013-10-26 07:59:00,41.9,32.5,29.88,SW,225,6.0,24.0,69,0.00,,,0.00,VWS V14.00,2013-10-26 11:59:00,
2013-10-26 08:00:00,41.9,32.5,29.88,South,178,7.0,24.0,69,0.00,,,0.00,VWS V14.00,2013-10-26 12:00:00,
2013-10-26 08:01:00,41.9,32.5,29.88,WSW,244,7.0,13.0,69,0.00,,,0.00,VWS V14.00,2013-10-26 12:01:00,
2013-10-26 08:02:00,41.9,32.8,29.89,SSW,213,10.0,24.0,70,0.00,,,0.00,VWS V14.00,2013-10-26 12:02:00,
2013-10-26 08:03:00,41.8,32.4,29.88,SSW,205,10.0,18.0,69,0.00,,,0.00,VWS V14.00,2013-10-26 12:03:00,
2013-10-26 08:04:00,41.8,32.4,29.88,South,169,10.0,18.0,69,0.00,,,0.00,VWS V14.00,2013-10-26 12:04:00,
2013-10-26 08:05:00,41.8,32.4,29.88,South,191,7.0,18.0,69,0.00,,,0.00,VWS V14.00,2013-10-26 12:05:00,
2013-10-26 08:06:00,41.8,32.4,29.88,SSW,200,7.0,18.0,69,0.00,,,0.00,VWS V14.00,2013-10-26 12:06:00,
2013-10-26 08:07:00,41.9,32.5,29.88,SW,219,12.0,24.0,69,0.00,,,0.00,VWS V14.00,2013-10-26 12:07:00,
2013-10-26 08:08:00,41.8,32.8,29.88,WSW,258,6.0,18.0,70,0.00,,,0.00,VWS V14.00,2013-10-26 12:08:00,
2013-10-26 08:09:00,41.8,32.8,29.88,SSW,211,4.0,18.0,70,0.00,,,0.00,VWS V14.00,2013-10-26 12:09:00,
2013-10-26 08:10:00,41.8,32.8,29.88,WSW,238,7.0,18.0,70,0.00,,,0.00,VWS V14.00,2013-10-26 12:10:00,
2013-10-26 08:11:00,41.8,32.8,29.88,SW,223,12.0,18.0,70,0.00,,,0.00,VWS V14.00,2013-10-26 12:11:00,
2013-10-26 08:12:00,41.9,32.5,29.88,SSW,192,15.0,17.0,69,0.00,,,0.00,VWS V14.00,2013-10-26 12:12:00,
2013-10-26 08:13:00,41.8,32.4,29.88,WNW,301,7.0,18.0,69,0.00,,,0.00,VWS V14.00,2013-10-26 12:13:00,
2013-10-26 08:14:00,41.8,32.4,29.88,SW,230,5.0,18.0,69,0.00,,,0.00,VWS V14.00,2013-10-26 12:14:00,
2013-10-26 08:15:00,41.8,32.4,29.88,SE,143,5.0,18.0,69,0.00,,,0.00,VWS V14.00,2013-10-26 12:15:00,
2013-10-26 08:16:00,41.8,32.4,29.88,SW,215,7.0,18.0,69,0.00,,,0.00,VWS V14.00,2013-10-26 12:16:00,
2013-10-26 08:17:00,41.8,32.8,29.88,SSW,199,6.0,18.0,70,0.00,,,0.00,VWS V14.00,2013-10-26 12:17:00,
2013-10-26 08:18:00,41.8,32.8,29.88,SW,233,9.0,18.0,70,0.00,,,0.00,VWS V14.00,2013-10-26 12:18:00,
2013-10-26 08:19:00,41.8,32.8,29.88,SE,140,5.0,18.0,70,0.00,,,0.00,VWS V14.00,2013-10-26 12:19:00,
2013-10-26 08:20:00,41.8,32.8,29.88,SSW,208,4.0,18.0,70,0.00,,,0.00,VWS V14.00,2013-10-26 12:20:00,
2013-10-26 08:21:00,41.8,32.8,29.88,SW,218,7.0,18.0,70,0.00,,,0.00,VWS V14.00,2013-10-26 12:21:00,
2013-10-26 08:22:00,41.8,32.8,29.88,SSE,157,9.0,18.0,70,0.00,,,0.00,VWS V14.00,2013-10-26 12:22:00,
2013-10-26 08:23:00,41.8,32.8,29.88,SW,229,4.0,18.0,70,0.00,,,0.00,VWS V14.00,2013-10-26 12:23:00,
2013-10-26 08:24:00,41.8,32.8,29.88,South,175,4.0,18.0,70,0.00,,,0.00,VWS V14.00,2013-10-26 12:24:00,
2013-10-26 08:25:00,41.8,32.8,29.88,SW,221,5.0,18.0,70,0.00,,,0.00,VWS V14.00,2013-10-26 12:25:00,
2013-10-26 08:26:00,41.8,32.8,29.87,SE,142,7.0,18.0,70,0.00,,,0.00,VWS V14.00,2013-10-26 12:26:00,
2013-10-26 08:27:00,41.8,32.4,29.88,SW,217,9.0,18.0,69,0.00,,,0.00,VWS V14.00,2013-10-26 12:27:00,
2013-10-26 08:28:00,41.8,32.8,29.88,South,186,7.0,18.0,70,0.00,,,0.00,VWS V14.00,2013-10-26 12:28:00,
2013-10-26 08:29:00,41.8,32.8,29.87,SSW,195,6.0,18.0,70,0.00,,,0.00,VWS V14.00,2013-10-26 12:29:00,
2013-10-26 08:30:00,41.8,33.1,29.87,SSW,211,9.0,18.0,71,0.00,,,0.00,VWS V14.00,2013-10-26 12:30:00,
2013-10-26 08:31:00,41.8,32.8,29.87,SW,230,4.0,17.0,70,0.00,,,0.00,VWS V14.00,2013-10-26 12:31:00,
2013-10-26 08:32:00,41.8,32.8,29.88,SW,223,10.0,18.0,70,0.00,,,0.00,VWS V14.00,2013-10-26 12:32:00,
2013-10-26 08:33:00,41.8,32.8,29.87,SW,214,12.0,17.0,70,0.00,,,0.00,VWS V14.00,2013-10-26 12:33:00,
2013-10-26 08:34:00,41.9,32.5,29.87,SSE,150,19.0,19.0,69,0.00,,,0.00,VWS V14.00,2013-10-26 12:34:00,
2013-10-26 08:35:00,41.9,32.5,29.87,South,171,9.0,19.0,69,0.00,,,0.00,VWS V14.00,2013-10-26 12:35:00,
2013-10-26 08:36:00,41.9,32.8,29.87,SSW,196,12.0,19.0,70,0.00,,,0.00,VWS V14.00,2013-10-26 12:36:00,
2013-10-26 08:37:00,41.8,32.8,29.87,South,169,6.0,18.0,70,0.00,,,0.00,VWS V14.00,2013-10-26 12:37:00,
2013-10-26 08:38:00,41.9,32.8,29.87,SW,234,6.0,19.0,70,0.00,,,0.00,VWS V14.00,2013-10-26 12:38:00,
2013-10-26 08:39:00,41.9,33.2,29.87,SW,224,4.0,19.0,71,0.00,,,0.00,VWS V14.00,2013-10-26 12:39:00,
2013-10-26 08:40:00,41.9,33.2,29.87,SW,230,9.0,19.0,71,0.00,,,0.00,VWS V14.00,2013-10-26 12:40:00,
2013-10-26 08:41:00,41.9,32.8,29.87,SSE,160,11.0,19.0,70,0.00,,,0.00,VWS V14.00,2013-10-26 12:41:00,
2013-10-26 08:42:00,41.8,32.8,29.87,SSW,194,4.0,17.0,70,0.00,,,0.00,VWS V14.00,2013-10-26 12:42:00,
2013-10-26 08:43:00,41.9,32.8,29.87,WSW,246,12.0,19.0,70,0.00,,,0.00,VWS V14.00,2013-10-26 12:43:00,
2013-10-26 08:44:00,42.0,32.9,29.87,SSE,166,15.0,19.0,70,0.00,,,0.00,VWS V14.00,2013-10-26 12:44:00,
2013-10-26 08:45:00,42.0,32.9,29.87,SSE,162,8.0,19.0,70,0.00,,,0.00,VWS V14.00,2013-10-26 12:45:00,
2013-10-26 08:46:00,42.0,32.9,29.86,SSW,211,13.0,19.0,70,0.00,,,0.00,VWS V14.00,2013-10-26 12:46:00,
2013-10-26 08:47:00,41.9,32.8,29.87,SW,217,5.0,19.0,70,0.00,,,0.00,VWS V14.00,2013-10-26 12:47:00,
2013-10-26 08:48:00,42.0,32.9,29.86,SW,215,3.0,19.0,70,0.00,,,0.00,VWS V14.00,2013-10-26 12:48:00,
2013-10-26 08:49:00,41.9,32.8,29.86,SW,223,5.0,19.0,70,0.00,,,0.00,VWS V14.00,2013-10-26 12:49:00,
2013-10-26 08:50:00,42.0,32.9,29.86,South,191,10.0,19.0,70,0.00,,,0.00,VWS V14.00,2013-10-26 12:50:00,
2013-10-26 08:51:00,42.0,32.9,29.86,WSW,257,12.0,19.0,70,0.00,,,0.00,VWS V14.00,2013-10-26 12:51:00,
2013-10-26 08:52:00,42.0,32.9,29.87,SSW,210,7.0,19.0,70,0.00,,,0.00,VWS V14.00,2013-10-26 12:52:00,
2013-10-26 08:53:00,42.0,32.9,29.86,SW,227,4.0,19.0,70,0.00,,,0.00,VWS V14.00,2013-10-26 12:53:00,
2013-10-26 08:54:00,42.0,33.3,29.86,SW,214,10.0,19.0,71,0.00,,,0.00,VWS V14.00,2013-10-26 12:54:00,
2013-10-26 08:55:00,42.0,33.3,29.86,SSW,213,9.0,19.0,71,0.00,,,0.00,VWS V14.00,2013-10-26 12:55:00,
2013-10-26 08:56:00,42.0,32.9,29.86,SW,227,5.0,19.0,70,0.00,,,0.00,VWS V14.00,2013-10-26 12:56:00,
2013-10-26 08:57:00,41.9,32.8,29.86,SW,232,15.0,19.0,70,0.00,,,0.00,VWS V14.00,2013-10-26 12:57:00,
2013-10-26 08:58:00,42.0,32.9,29.86,SSW,199,4.0,21.0,70,0.00,,,0.00,VWS V14.00,2013-10-26 12:58:00,
2013-10-26 08:59:00,42.0,32.9,29.86,East,94,4.0,21.0,70,0.00,,,0.00,VWS V14.00,2013-10-26 12:59:00,
2013-10-26 09:00:00,42.0,32.9,29.86,South,184,8.0,21.0,70,0.00,,,0.00,VWS V14.00,2013-10-26 13:00:00,
2013-10-26 09:01:00,42.0,32.6,29.86,SW,225,7.0,12.0,69,0.00,,,0.00,VWS V14.00,2013-10-26 13:01:00,
2013-10-26 09:02:00,42.0,32.9,29.86,SSW,200,6.0,19.0,70,0.00,,,0.00,VWS V14.00,2013-10-26 13:02:00,
2013-10-26 09:03:00,42.0,32.9,29.87,SSW,210,4.0,16.0,70,0.00,,,0.00,VWS V14.00,2013-10-26 13:03:00,
2013-10-26 09:04:00,42.0,32.9,29.86,South,188,4.0,16.0,70,0.00,,,0.00,VWS V14.00,2013-10-26 13:04:00,
2013-10-26 09:05:00,42.0,32.9,29.87,SW,229,1.0,16.0,70,0.00,,,0.00,VWS V14.00,2013-10-26 13:05:00,
2013-10-26 09:06:00,42.0,32.9,29.87,WSW,252,4.0,18.0,70,0.00,,,0.00,VWS V14.00,2013-10-26 13:06:00,
2013-10-26 09:07:00,42.0,32.9,29.86,SSW,205,9.0,21.0,70,0.00,,,0.00,VWS V14.00,2013-10-26 13:07:00,
2013-10-26 09:08:00,42.0,32.9,29.86,SW,215,5.0,18.0,70,0.00,,,0.00,VWS V14.00,2013-10-26 13:08:00,
2013-10-26 09:09:00,42.0,33.3,29.87,SSW,203,6.0,18.0,71,0.00,,,0.00,VWS V14.00,2013-10-26 13:09:00,
2013-10-26 09:10:00,42.0,32.9,29.87,WSW,242,13.0,20.0,70,0.00,,,0.00,VWS V14.00,2013-10-26 13:10:00,
2013-10-26 09:11:00,42.0,32.9,29.87,WSW,240,7.0,20.0,70,0.00,,,0.00,VWS V14.00,2013-10-26 13:11:00,
2013-10-26 09:12:00,42.0,32.6,29.86,SW,225,14.0,16.0,69,0.00,,,0.00,VWS V14.00,2013-10-26 13:12:00,
2013-10-26 09:13:00,42.0,33.3,29.86,SW,222,6.0,20.0,71,0.00,,,0.00,VWS V14.00,2013-10-26 13:13:00,
2013-10-26 09:14:00,42.0,33.3,29.86,SW,224,4.0,20.0,71,0.00,,,0.00,VWS V14.00,2013-10-26 13:14:00,
2013-10-26 09:15:00,42.0,33.3,29.86,West,259,12.0,20.0,71,0.00,,,0.00,VWS V14.00,2013-10-26 13:15:00,
2013-10-26 09:16:00,42.0,33.3,29.86,West,264,16.0,20.0,71,0.00,,,0.00,VWS V14.00,2013-10-26 13:16:00,
2013-10-26 09:17:00,42.0,32.9,29.87,South,188,8.0,18.0,70,0.00,,,0.00,VWS V14.00,2013-10-26 13:17:00,
2013-10-26 09:18:00,42.0,33.3,29.86,SW,222,5.0,20.0,71,0.00,,,0.00,VWS V14.00,2013-10-26 13:18:00,
2013-10-26 09:19:00,42.0,32.9,29.86,SW,221,4.0,20.0,70,0.00,,,0.00,VWS V14.00,2013-10-26 13:19:00,
2013-10-26 09:20:00,42.0,32.9,29.86,SW,234,17.0,20.0,70,0.00,,,0.00,VWS V14.00,2013-10-26 13:20:00,
2013-10-26 09:21:00,42.0,32.9,29.85,South,182,13.0,20.0,70,0.00,,,0.00,VWS V14.00,2013-10-26 13:21:00,
2013-10-26 09:22:00,42.0,32.9,29.87,SW,223,3.0,20.0,70,0.00,,,0.00,VWS V14.00,2013-10-26 13:22:00,
2013-10-26 09:23:00,42.0,32.9,29.85,SSW,211,9.0,20.0,70,0.00,,,0.00,VWS V14.00,2013-10-26 13:23:00,
2013-10-26 09:24:00,42.0,32.9,29.85,SSW,205,10.0,20.0,70,0.00,,,0.00,VWS V14.00,2013-10-26 13:24:00,
2013-10-26 09:25:00,42.0,32.9,29.86,South,186,3.0,20.0,70,0.00,,,0.00,VWS V14.00,2013-10-26 13:25:00,
2013-10-26 09:26:00,42.0,32.9,29.85,SW,227,13.0,22.0,70,0.00,,,0.00,VWS V14.00,2013-10-26 13:26:00,
2013-10-26 09:27:00,42.0,32.9,29.86,SSW,197,10.0,20.0,70,0.00,,,0.00,VWS V14.00,2013-10-26 13:27:00,
2013-10-26 09:28:00,42.0,32.9,29.85,SSW,193,12.0,22.0,70,0.00,,,0.00,VWS V14.00,2013-10-26 13:28:00,
2013-10-26 09:29:00,42.0,33.3,29.85,SSE,156,9.0,22.0,71,0.00,,,0.00,VWS V14.00,2013-10-26 13:29:00,
2013-10-26 09:30:00,42.0,32.9,29.85,SE,138,7.0,22.0,70,0.00,,,0.00,VWS V14.00,2013-10-26 13:30:00,
2013-10-26 09:31:00,42.0,32.9,29.85,SSW,193,10.0,12.0,70,0.00,,,0.00,VWS V14.00,2013-10-26 13:31:00,
2013-10-26 09:32:00,42.0,32.9,29.85,SSW,192,5.0,20.0,70,0.00,,,0.00,VWS V14.00,2013-10-26 13:32:00,
2013-10-26 09:33:00,42.0,33.3,29.84,SW,230,7.0,16.0,71,0.00,,,0.00,VWS V14.00,2013-10-26 13:33:00,
2013-10-26 09:34:00,42.0,33.3,29.84,SW,236,10.0,16.0,71,0.00,,,0.00,VWS V14.00,2013-10-26 13:34:00,
2013-10-26 09:35:00,42.0,33.3,29.84,SW,232,5.0,16.0,71,0.00,,,0.00,VWS V14.00,2013-10-26 13:35:00,
2013-10-26 09:36:00,42.0,33.3,29.84,SW,229,9.0,18.0,71,0.00,,,0.00,VWS V14.00,2013-10-26 13:36:00,
2013-10-26 09:37:00,42.0,32.9,29.85,South,172,6.0,22.0,70,0.00,,,0.00,VWS V14.00,2013-10-26 13:37:00,
2013-10-26 09:38:00,42.1,33.0,29.84,SSE,164,14.0,19.0,70,0.00,,,0.00,VWS V14.00,2013-10-26 13:38:00,
2013-10-26 09:39:00,42.1,33.0,29.84,SSW,196,4.0,19.0,70,0.00,,,0.00,VWS V14.00,2013-10-26 13:39:00,
2013-10-26 09:40:00,42.1,33.0,29.84,SW,223,3.0,19.0,70,0.00,,,0.00,VWS V14.00,2013-10-26 13:40:00,
2013-10-26 09:41:00,42.1,33.4,29.84,South,185,10.0,19.0,71,0.00,,,0.00,VWS V14.00,2013-10-26 13:41:00,
2013-10-26 09:42:00,42.0,33.3,29.85,SSE,163,5.0,15.0,71,0.00,,,0.00,VWS V14.00,2013-10-26 13:42:00,
2013-10-26 09:43:00,42.2,33.8,29.83,SW,223,9.0,19.0,72,0.00,,,0.00,VWS V14.00,2013-10-26 13:43:00,
2013-10-26 09:44:00,42.2,33.8,29.84,SW,227,10.0,19.0,72,0.00,,,0.00,VWS V14.00,2013-10-26 13:44:00,
2013-10-26 09:45:00,42.2,33.5,29.84,SW,234,10.0,28.0,71,0.00,,,0.00,VWS V14.00,2013-10-26 13:45:00,
2013-10-26 09:46:00,42.2,33.5,29.84,WSW,241,15.0,28.0,71,0.00,,,0.00,VWS V14.00,2013-10-26 13:46:00,
2013-10-26 09:47:00,42.0,33.3,29.84,SW,218,6.0,18.0,71,0.00,,,0.00,VWS V14.00,2013-10-26 13:47:00,
2013-10-26 09:48:00,42.3,33.6,29.84,SW,223,6.0,28.0,71,0.00,,,0.00,VWS V14.00,2013-10-26 13:48:00,
2013-10-26 09:49:00,42.3,33.6,29.84,WSW,241,12.0,28.0,71,0.00,,,0.00,VWS V14.00,2013-10-26 13:49:00,
2013-10-26 09:50:00,42.3,33.6,29.84,SSW,199,9.0,28.0,71,0.00,,,0.00,VWS V14.00,2013-10-26 13:50:00,
2013-10-26 09:51:00,42.3,33.6,29.84,SSE,163,6.0,28.0,71,0.00,,,0.00,VWS V14.00,2013-10-26 13:51:00,
2013-10-26 09:52:00,42.2,33.5,29.84,South,173,13.0,19.0,71,0.00,,,0.00,VWS V14.00,2013-10-26 13:52:00,
2013-10-26 09:53:00,42.3,33.6,29.84,SW,235,11.0,28.0,71,0.00,,,0.00,VWS V14.00,2013-10-26 13:53:00,
2013-10-26 09:54:00,42.3,33.2,29.84,SSW,213,9.0,28.0,70,0.00,,,0.00,VWS V14.00,2013-10-26 13:54:00,
2013-10-26 09:55:00,42.3,33.2,29.85,SW,219,11.0,28.0,70,0.00,,,0.00,VWS V14.00,2013-10-26 13:55:00,
2013-10-26 09:56:00,42.4,33.3,29.85,SW,229,5.0,28.0,70,0.00,,,0.00,VWS V14.00,2013-10-26 13:56:00,
2013-10-26 09:57:00,42.3,33.6,29.84,SW,225,9.0,28.0,71,0.00,,,0.00,VWS V14.00,2013-10-26 13:57:00,
2013-10-26 09:58:00,42.4,33.7,29.85,SW,221,11.0,28.0,71,0.00,,,0.00,VWS V14.00,2013-10-26 13:58:00,
2013-10-26 09:59:00,42.4,33.7,29.85,WSW,254,10.0,28.0,71,0.00,,,0.00,VWS V14.00,2013-10-26 13:59:00,
2013-10-26 10:00:00,42.4,33.7,29.85,South,189,7.0,28.0,71,0.00,,,0.00,VWS V14.00,2013-10-26 14:00:00,
2013-10-26 10:01:00,42.4,33.3,29.85,SSW,202,4.0,12.0,70,0.00,,,0.00,VWS V14.00,2013-10-26 14:01:00,
2013-10-26 10:02:00,42.3,33.6,29.84,WSW,238,15.0,28.0,71,0.00,,,0.00,VWS V14.00,2013-10-26 14:02:00,
2013-10-26 10:03:00,42.4,33.3,29.85,SW,215,14.0,14.0,70,0.00,,,0.00,VWS V14.00,2013-10-26 14:03:00,
2013-10-26 10:04:00,42.4,33.3,29.85,SSW,213,6.0,14.0,70,0.00,,,0.00,VWS V14.00,2013-10-26 14:04:00,
2013-10-26 10:05:00,42.4,33.3,29.85,SW,234,7.0,14.0,70,0.00,,,0.00,VWS V14.00,2013-10-26 14:05:00,
2013-10-26 10:06:00,42.4,33.3,29.85,WSW,244,5.0,14.0,70,0.00,,,0.00,VWS V14.00,2013-10-26 14:06:00,
2013-10-26 10:07:00,42.4,33.3,29.85,SSW,213,7.0,28.0,70,0.00,,,0.00,VWS V14.00,2013-10-26 14:07:00,
2013-10-26 10:08:00,42.4,33.3,29.85,SW,232,11.0,14.0,70,0.00,,,0.00,VWS V14.00,2013-10-26 14:08:00,
2013-10-26 10:09:00,42.4,33.3,29.85,SW,223,4.0,15.0,70,0.00,,,0.00,VWS V14.00,2013-10-26 14:09:00,
2013-10-26 10:10:00,42.4,33.3,29.85,South,186,11.0,15.0,70,0.00,,,0.00,VWS V14.00,2013-10-26 14:10:00,
2013-10-26 10:11:00,42.4,33.3,29.85,SSW,206,5.0,15.0,70,0.00,,,0.00,VWS V14.00,2013-10-26 14:11:00,
2013-10-26 10:12:00,42.4,33.3,29.85,SSW,202,4.0,12.0,70,0.00,,,0.00,VWS V14.00,2013-10-26 14:12:00,
2013-10-26 10:13:00,42.4,33.3,29.85,SW,232,5.0,15.0,70,0.00,,,0.00,VWS V14.00,2013-10-26 14:13:00,
2013-10-26 10:14:00,42.5,33.4,29.85,SSW,210,6.0,15.0,70,0.00,,,0.00,VWS V14.00,2013-10-26 14:14:00,
2013-10-26 10:15:00,42.5,33.4,29.85,SSW,212,5.0,15.0,70,0.00,,,0.00,VWS V14.00,2013-10-26 14:15:00,
2013-10-26 10:16:00,42.4,33.3,29.85,SW,225,4.0,15.0,70,0.00,,,0.00,VWS V14.00,2013-10-26 14:16:00,
2013-10-26 10:17:00,42.4,33.3,29.85,SW,232,9.0,14.0,70,0.00,,,0.00,VWS V14.00,2013-10-26 14:17:00,
2013-10-26 10:18:00,42.4,33.3,29.85,South,179,7.0,15.0,70,0.00,,,0.00,VWS V14.00,2013-10-26 14:18:00,
2013-10-26 10:19:00,42.5,33.4,29.85,SSW,192,5.0,15.0,70,0.00,,,0.00,VWS V14.00,2013-10-26 14:19:00,
2013-10-26 10:20:00,42.4,33.0,29.85,SW,230,9.0,18.0,69,0.00,,,0.00,VWS V14.00,2013-10-26 14:20:00,
2013-10-26 10:21:00,42.4,33.0,29.84,West,259,7.0,18.0,69,0.00,,,0.00,VWS V14.00,2013-10-26 14:21:00,
2013-10-26 10:22:00,42.4,33.3,29.85,SW,225,7.0,15.0,70,0.00,,,0.00,VWS V14.00,2013-10-26 14:22:00,
2013-10-26 10:23:00,42.4,33.0,29.85,South,182,4.0,18.0,69,0.00,,,0.00,VWS V14.00,2013-10-26 14:23:00,
2013-10-26 10:24:00,42.4,33.0,29.84,South,182,9.0,18.0,69,0.00,,,0.00,VWS V14.00,2013-10-26 14:24:00,
2013-10-26 10:25:00,42.5,33.4,29.84,WSW,237,3.0,18.0,70,0.00,,,0.00,VWS V14.00,2013-10-26 14:25:00,
2013-10-26 10:26:00,42.4,33.3,29.84,SW,223,11.0,18.0,70,0.00,,,0.00,VWS V14.00,2013-10-26 14:26:00,
2013-10-26 10:27:00,42.4,33.3,29.85,SW,221,2.0,15.0,70,0.00,,,0.00,VWS V14.00,2013-10-26 14:27:00,
2013-10-26 10:28:00,42.5,33.4,29.84,WSW,238,2.0,18.0,70,0.00,,,0.00,VWS V14.00,2013-10-26 14:28:00,
2013-10-26 10:29:00,42.5,33.8,29.84,SSW,202,2.0,18.0,71,0.00,,,0.00,VWS V14.00,2013-10-26 14:29:00,
2013-10-26 10:30:00,42.5,33.4,29.84,SSW,193,9.0,18.0,70,0.00,,,0.00,VWS V14.00,2013-10-26 14:30:00,
2013-10-26 10:31:00,42.5,33.4,29.84,West,264,10.0,12.0,70,0.00,,,0.00,VWS V14.00,2013-10-26 14:31:00,
2013-10-26 10:32:00,42.4,33.0,29.84,SW,223,10.0,18.0,69,0.00,,,0.00,VWS V14.00,2013-10-26 14:32:00,
2013-10-26 10:33:00,42.5,33.4,29.84,SW,218,5.0,12.0,70,0.00,,,0.00,VWS V14.00,2013-10-26 14:33:00,
2013-10-26 10:34:00,42.6,33.5,29.84,SW,223,3.0,14.0,70,0.00,,,0.00,VWS V14.00,2013-10-26 14:34:00,
2013-10-26 10:35:00,42.6,33.5,29.84,SW,219,4.0,14.0,70,0.00,,,0.00,VWS V14.00,2013-10-26 14:35:00,
2013-10-26 10:36:00,42.6,33.5,29.84,SW,225,12.0,14.0,70,0.00,,,0.00,VWS V14.00,2013-10-26 14:36:00,
2013-10-26 10:37:00,42.5,33.4,29.84,SSW,206,9.0,18.0,70,0.00,,,0.00,VWS V14.00,2013-10-26 14:37:00,
2013-10-26 10:38:00,42.7,33.6,29.84,SSW,203,7.0,14.0,70,0.00,,,0.00,VWS V14.00,2013-10-26 14:38:00,
2013-10-26 10:39:00,42.7,33.6,29.84,SW,221,7.0,14.0,70,0.00,,,0.00,VWS V14.00,2013-10-26 14:39:00,
2013-10-26 10:40:00,42.7,33.6,29.84,SSW,201,4.0,16.0,70,0.00,,,0.00,VWS V14.00,2013-10-26 14:40:00,
2013-10-26 10:41:00,42.8,33.7,29.84,WSW,238,10.0,16.0,70,0.00,,,0.00,VWS V14.00,2013-10-26 14:41:00,
2013-10-26 10:42:00,42.5,33.4,29.84,SW,233,5.0,12.0,70,0.00,,,0.00,VWS V14.00,2013-10-26 14:42:00,
2013-10-26 10:43:00,42.8,33.3,29.84,SW,219,5.0,16.0,69,0.00,,,0.00,VWS V14.00,2013-10-26 14:43:00,
2013-10-26 10:44:00,42.8,33.7,29.84,SSW,202,6.0,16.0,70,0.00,,,0.00,VWS V14.00,2013-10-26 14:44:00,
2013-10-26 10:45:00,42.9,33.8,29.84,SW,219,1.0,16.0,70,0.00,,,0.00,VWS V14.00,2013-10-26 14:45:00,
2013-10-26 10:46:00,42.9,33.8,29.84,SSW,212,3.0,16.0,70,0.00,,,0.00,VWS V14.00,2013-10-26 14:46:00,
2013-10-26 10:47:00,42.6,33.5,29.84,SW,234,2.0,14.0,70,0.00,,,0.00,VWS V14.00,2013-10-26 14:47:00,
2013-10-26 10:48:00,43.0,33.9,29.84,SW,216,4.0,16.0,70,0.00,,,0.00,VWS V14.00,2013-10-26 14:48:00,
2013-10-26 10:49:00,43.0,33.9,29.84,WSW,238,3.0,16.0,70,0.00,,,0.00,VWS V14.00,2013-10-26 14:49:00,
2013-10-26 10:50:00,43.0,33.9,29.84,WSW,237,2.0,16.0,70,0.00,,,0.00,VWS V14.00,2013-10-26 14:50:00,
2013-10-26 10:51:00,43.0,33.9,29.84,SW,236,4.0,16.0,70,0.00,,,0.00,VWS V14.00,2013-10-26 14:51:00,
2013-10-26 10:52:00,42.8,33.7,29.84,SSW,199,3.0,16.0,70,0.00,,,0.00,VWS V14.00,2013-10-26 14:52:00,
2013-10-26 10:53:00,43.1,34.0,29.84,SW,225,3.0,16.0,70,0.00,,,0.00,VWS V14.00,2013-10-26 14:53:00,
2013-10-26 10:54:00,43.1,34.0,29.84,SW,221,4.0,16.0,70,0.00,,,0.00,VWS V14.00,2013-10-26 14:54:00,
2013-10-26 10:55:00,43.1,34.0,29.84,SW,224,6.0,16.0,70,0.00,,,0.00,VWS V14.00,2013-10-26 14:55:00,
2013-10-26 10:56:00,43.1,34.0,29.84,SSW,210,2.0,16.0,70,0.00,,,0.00,VWS V14.00,2013-10-26 14:56:00,
2013-10-26 10:57:00,42.9,33.8,29.84,SW,234,9.0,16.0,70,0.00,,,0.00,VWS V14.00,2013-10-26 14:57:00,
2013-10-26 10:58:00,43.2,34.1,29.84,SW,227,12.0,16.0,70,0.00,,,0.00,VWS V14.00,2013-10-26 14:58:00,
2013-10-26 10:59:00,43.2,33.7,29.84,WSW,237,6.0,16.0,69,0.00,,,0.00,VWS V14.00,2013-10-26 14:59:00,
2013-10-26 11:00:00,43.2,33.7,29.84,SW,234,3.0,16.0,69,0.00,,,0.00,VWS V14.00,2013-10-26 15:00:00,
2013-10-26 11:01:00,43.2,33.7,29.84,SW,235,4.0,10.0,69,0.00,,,0.00,VWS V14.00,2013-10-26 15:01:00,
2013-10-26 11:02:00,43.0,33.9,29.84,WSW,237,1.0,16.0,70,0.00,,,0.00,VWS V14.00,2013-10-26 15:02:00,
2013-10-26 11:03:00,43.3,33.8,29.84,SSW,209,5.0,10.0,69,0.00,,,0.00,VWS V14.00,2013-10-26 15:03:00,
2013-10-26 11:04:00,43.3,34.2,29.84,SW,226,7.0,10.0,70,0.00,,,0.00,VWS V14.00,2013-10-26 15:04:00,
2013-10-26 11:05:00,43.3,33.8,29.84,SW,217,5.0,10.0,69,0.00,,,0.00,VWS V14.00,2013-10-26 15:05:00,
2013-10-26 11:06:00,43.3,33.8,29.84,SW,219,3.0,10.0,69,0.00,,,0.00,VWS V14.00,2013-10-26 15:06:00,
2013-10-26 11:07:00,43.2,34.1,29.84,SSW,205,5.0,16.0,70,0.00,,,0.00,VWS V14.00,2013-10-26 15:07:00,
2013-10-26 11:08:00,43.4,33.9,29.84,SW,227,2.0,11.0,69,0.00,,,0.00,VWS V14.00,2013-10-26 15:08:00,
2013-10-26 11:09:00,43.4,33.9,29.84,SSE,168,11.0,11.0,69,0.00,,,0.00,VWS V14.00,2013-10-26 15:09:00,
2013-10-26 11:10:00,43.4,34.3,29.84,WSW,243,6.0,11.0,70,0.00,,,0.00,VWS V14.00,2013-10-26 15:10:00,
2013-10-26 11:11:00,43.4,33.9,29.84,WSW,241,9.0,14.0,69,0.00,,,0.00,VWS V14.00,2013-10-26 15:11:00,
2013-10-26 11:12:00,43.3,33.8,29.84,WSW,240,4.0,10.0,69,0.00,,,0.00,VWS V14.00,2013-10-26 15:12:00,
2013-10-26 11:13:00,43.4,33.9,29.84,SSW,213,4.0,14.0,69,0.00,,,0.00,VWS V14.00,2013-10-26 15:13:00,
2013-10-26 11:14:00,43.4,33.9,29.84,SW,223,6.0,14.0,69,0.00,,,0.00,VWS V14.00,2013-10-26 15:14:00,
2013-10-26 11:15:00,43.4,33.9,29.84,SW,231,4.0,14.0,69,0.00,,,0.00,VWS V14.00,2013-10-26 15:15:00,
2013-10-26 11:16:00,43.4,33.9,29.84,SW,229,0.0,14.0,69,0.00,,,0.00,VWS V14.00,2013-10-26 15:16:00,
2013-10-26 11:17:00,43.4,33.9,29.84,SW,217,6.0,10.0,69,0.00,,,0.00,VWS V14.00,2013-10-26 15:17:00,
2013-10-26 11:18:00,43.4,34.3,29.84,SW,232,0.0,14.0,70,0.00,,,0.00,VWS V14.00,2013-10-26 15:18:00,
2013-10-26 11:19:00,43.5,34.4,29.84,SW,222,6.0,14.0,70,0.00,,,0.00,VWS V14.00,2013-10-26 15:19:00,
2013-10-26 11:20:00,43.5,34.0,29.84,SW,221,2.0,14.0,69,0.00,,,0.00,VWS V14.00,2013-10-26 15:20:00,
2013-10-26 11:21:00,43.5,34.4,29.84,SW,214,4.0,14.0,70,0.00,,,0.00,VWS V14.00,2013-10-26 15:21:00,
2013-10-26 11:22:00,43.4,33.9,29.84,SSW,202,4.0,14.0,69,0.00,,,0.00,VWS V14.00,2013-10-26 15:22:00,
2013-10-26 11:23:00,43.5,34.4,29.84,SW,216,4.0,14.0,70,0.00,,,0.00,VWS V14.00,2013-10-26 15:23:00,
2013-10-26 11:24:00,43.6,34.5,29.84,SSW,198,2.0,14.0,70,0.00,,,0.00,VWS V14.00,2013-10-26 15:24:00,
2013-10-26 11:25:00,43.6,34.5,29.83,SSW,201,2.0,14.0,70,0.00,,,0.00,VWS V14.00,2013-10-26 15:25:00,
2013-10-26 11:26:00,43.6,34.5,29.84,SSW,199,6.0,14.0,70,0.00,,,0.00,VWS V14.00,2013-10-26 15:26:00,
2013-10-26 11:27:00,43.4,33.9,29.84,SW,232,4.0,14.0,69,0.00,,,0.00,VWS V14.00,2013-10-26 15:27:00,
2013-10-26 11:28:00,43.7,34.2,29.83,SW,216,3.0,14.0,69,0.00,,,0.00,VWS V14.00,2013-10-26 15:28:00,
2013-10-26 11:29:00,43.7,34.2,29.84,SW,234,6.0,14.0,69,0.00,,,0.00,VWS V14.00,2013-10-26 15:29:00,
2013-10-26 11:30:00,43.8,34.3,29.84,WSW,238,2.0,14.0,69,0.00,,,0.00,VWS V14.00,2013-10-26 15:30:00,
2013-10-26 11:31:00,43.8,34.7,29.84,SW,236,3.0,6.0,70,0.00,,,0.00,VWS V14.00,2013-10-26 15:31:00,
2013-10-26 11:32:00,43.5,34.4,29.84,SW,220,5.0,14.0,70,0.00,,,0.00,VWS V14.00,2013-10-26 15:32:00,
2013-10-26 11:33:00,43.9,34.4,29.83,SW,236,3.0,12.0,69,0.00,,,0.00,VWS V14.00,2013-10-26 15:33:00,
2013-10-26 11:34:00,43.9,34.4,29.83,SW,222,0.0,12.0,69,0.00,,,0.00,VWS V14.00,2013-10-26 15:34:00,
2013-10-26 11:35:00,43.9,34.4,29.83,SW,222,5.0,12.0,69,0.00,,,0.00,VWS V14.00,2013-10-26 15:35:00,
2013-10-26 11:36:00,44.0,34.5,29.84,SW,231,2.0,12.0,69,0.00,,,0.00,VWS V14.00,2013-10-26 15:36:00,
2013-10-26 11:37:00,43.7,34.2,29.84,SSE,161,7.0,14.0,69,0.00,,,0.00,VWS V14.00,2013-10-26 15:37:00,
2013-10-26 11:38:00,44.0,34.1,29.83,WSW,239,6.0,12.0,68,0.00,,,0.00,VWS V14.00,2013-10-26 15:38:00,
2013-10-26 11:39:00,44.1,34.2,29.83,SW,229,9.0,13.0,68,0.00,,,0.00,VWS V14.00,2013-10-26 15:39:00,
2013-10-26 11:40:00,44.1,34.2,29.84,SSW,205,15.0,22.0,68,0.00,,,0.00,VWS V14.00,2013-10-26 15:40:00,
2013-10-26 11:41:00,44.1,33.9,29.83,South,188,10.0,22.0,67,0.00,,,0.00,VWS V14.00,2013-10-26 15:41:00,
2013-10-26 11:42:00,43.8,34.7,29.84,SSW,194,2.0,9.0,70,0.00,,,0.00,VWS V14.00,2013-10-26 15:42:00,
2013-10-26 11:43:00,44.2,34.0,29.83,SW,234,13.0,22.0,67,0.00,,,0.00,VWS V14.00,2013-10-26 15:43:00,
2013-10-26 11:44:00,44.3,34.0,29.83,WSW,239,10.0,22.0,67,0.00,,,0.00,VWS V14.00,2013-10-26 15:44:00,
2013-10-26 11:45:00,44.3,34.0,29.83,SW,230,4.0,22.0,67,0.00,,,0.00,VWS V14.00,2013-10-26 15:45:00,
2013-10-26 11:46:00,44.3,34.0,29.83,SW,221,12.0,22.0,67,0.00,,,0.00,VWS V14.00,2013-10-26 15:46:00,
2013-10-26 11:47:00,44.0,34.5,29.83,WSW,252,7.0,12.0,69,0.00,,,0.00,VWS V14.00,2013-10-26 15:47:00,
2013-10-26 11:48:00,44.3,34.0,29.83,SW,236,9.0,22.0,67,0.00,,,0.00,VWS V14.00,2013-10-26 15:48:00,
2013-10-26 11:49:00,44.3,34.0,29.83,SW,234,9.0,22.0,67,0.00,,,0.00,VWS V14.00,2013-10-26 15:49:00,
2013-10-26 11:50:00,44.3,34.0,29.83,SW,228,5.0,22.0,67,0.00,,,0.00,VWS V14.00,2013-10-26 15:50:00,
2013-10-26 11:51:00,44.4,34.1,29.83,SW,229,5.0,22.0,67,0.00,,,0.00,VWS V14.00,2013-10-26 15:51:00,
2013-10-26 11:52:00,44.2,34.0,29.83,SSW,200,6.0,22.0,67,0.00,,,0.00,VWS V14.00,2013-10-26 15:52:00,
2013-10-26 11:53:00,44.4,34.9,29.83,SSW,211,6.0,22.0,69,0.00,,,0.00,VWS V14.00,2013-10-26 15:53:00,
2013-10-26 11:54:00,44.4,34.9,29.83,SW,222,10.0,22.0,69,0.00,,,0.00,VWS V14.00,2013-10-26 15:54:00,
2013-10-26 11:55:00,44.4,34.5,29.83,WSW,242,6.0,22.0,68,0.00,,,0.00,VWS V14.00,2013-10-26 15:55:00,
2013-10-26 11:56:00,44.4,34.5,29.83,SW,232,6.0,22.0,68,0.00,,,0.00,VWS V14.00,2013-10-26 15:56:00,
2013-10-26 11:57:00,44.3,33.7,29.83,WSW,247,4.0,22.0,66,0.00,,,0.00,VWS V14.00,2013-10-26 15:57:00,
2013-10-26 11:58:00,44.5,34.2,29.83,SW,236,6.0,22.0,67,0.00,,,0.00,VWS V14.00,2013-10-26 15:58:00,
2013-10-26 11:59:00,44.4,34.1,29.83,SW,232,9.0,22.0,67,0.00,,,0.00,VWS V14.00,2013-10-26 15:59:00,
2013-10-26 12:00:00,44.4,34.1,29.83,South,182,4.0,22.0,67,0.00,,,0.00,VWS V14.00,2013-10-26 16:00:00,
2013-10-26 12:01:00,44.4,34.1,29.83,SW,231,7.0,8.0,67,0.00,,,0.00,VWS V14.00,2013-10-26 16:01:00,
2013-10-26 12:02:00,44.4,34.5,29.83,SW,236,1.0,22.0,68,0.00,,,0.00,VWS V14.00,2013-10-26 16:02:00,
2013-10-26 12:03:00,44.4,34.1,29.83,WSW,247,4.0,11.0,67,0.00,,,0.00,VWS V14.00,2013-10-26 16:03:00,
2013-10-26 12:04:00,44.4,34.1,29.83,SW,236,10.0,14.0,67,0.00,,,0.00,VWS V14.00,2013-10-26 16:04:00,
2013-10-26 12:05:00,44.4,34.1,29.83,SW,224,5.0,14.0,67,0.00,,,0.00,VWS V14.00,2013-10-26 16:05:00,
2013-10-26 12:06:00,44.4,34.5,29.83,WSW,244,5.0,14.0,68,0.00,,,0.00,VWS V14.00,2013-10-26 16:06:00,
2013-10-26 12:07:00,44.5,34.2,29.83,West,267,10.0,22.0,67,0.00,,,0.00,VWS V14.00,2013-10-26 16:07:00,
2013-10-26 12:08:00,44.4,34.5,29.83,SSW,202,11.0,14.0,68,0.00,,,0.00,VWS V14.00,2013-10-26 16:08:00,
2013-10-26 12:09:00,44.4,34.5,29.82,WSW,254,10.0,14.0,68,0.00,,,0.00,VWS V14.00,2013-10-26 16:09:00,
2013-10-26 12:10:00,44.4,34.5,29.83,SSW,205,8.0,14.0,68,0.00,,,0.00,VWS V14.00,2013-10-26 16:10:00,
2013-10-26 12:11:00,44.4,34.5,29.83,West,269,10.0,14.0,68,0.00,,,0.00,VWS V14.00,2013-10-26 16:11:00,
2013-10-26 12:12:00,44.4,34.1,29.83,SW,231,10.0,11.0,67,0.00,,,0.00,VWS V14.00,2013-10-26 16:12:00,
2013-10-26 12:13:00,44.3,34.8,29.83,SSW,208,4.0,18.0,69,0.00,,,0.00,VWS V14.00,2013-10-26 16:13:00,
2013-10-26 12:14:00,44.3,34.8,29.82,SSW,207,2.0,18.0,69,0.00,,,0.00,VWS V14.00,2013-10-26 16:14:00,
2013-10-26 12:15:00,44.3,35.2,29.82,WSW,246,5.0,18.0,70,0.00,,,0.00,VWS V14.00,2013-10-26 16:15:00,
2013-10-26 12:16:00,44.3,34.8,29.83,WSW,248,13.0,18.0,69,0.00,,,0.00,VWS V14.00,2013-10-26 16:16:00,
2013-10-26 12:17:00,44.4,34.5,29.83,WSW,238,3.0,14.0,68,0.00,,,0.00,VWS V14.00,2013-10-26 16:17:00,
2013-10-26 12:18:00,44.2,34.7,29.82,SSW,202,7.0,18.0,69,0.00,,,0.00,VWS V14.00,2013-10-26 16:18:00,
2013-10-26 12:19:00,44.2,34.7,29.82,SSW,199,9.0,18.0,69,0.00,,,0.00,VWS V14.00,2013-10-26 16:19:00,
2013-10-26 12:20:00,44.2,35.0,29.82,WSW,244,9.0,18.0,70,0.00,,,0.00,VWS V14.00,2013-10-26 16:20:00,
2013-10-26 12:21:00,44.2,35.0,29.82,SW,214,15.0,18.0,70,0.00,,,0.00,VWS V14.00,2013-10-26 16:21:00,
2013-10-26 12:22:00,44.3,34.4,29.83,SSW,200,5.0,18.0,68,0.00,,,0.00,VWS V14.00,2013-10-26 16:22:00,
2013-10-26 12:23:00,44.2,34.7,29.82,WSW,250,5.0,18.0,69,0.00,,,0.00,VWS V14.00,2013-10-26 16:23:00,
2013-10-26 12:24:00,44.2,34.7,29.82,SW,219,10.0,20.0,69,0.00,,,0.00,VWS V14.00,2013-10-26 16:24:00,
2013-10-26 12:25:00,44.2,34.3,29.82,WSW,240,5.0,20.0,68,0.00,,,0.00,VWS V14.00,2013-10-26 16:25:00,
2013-10-26 12:26:00,44.2,34.7,29.82,SW,234,16.0,20.0,69,0.00,,,0.00,VWS V14.00,2013-10-26 16:26:00,
2013-10-26 12:27:00,44.3,34.8,29.83,SW,229,7.0,18.0,69,0.00,,,0.00,VWS V14.00,2013-10-26 16:27:00,
2013-10-26 12:28:00,44.3,34.8,29.82,SSW,202,7.0,20.0,69,0.00,,,0.00,VWS V14.00,2013-10-26 16:28:00,
2013-10-26 12:29:00,44.3,34.8,29.83,SSW,213,8.0,20.0,69,0.00,,,0.00,VWS V14.00,2013-10-26 16:29:00,
2013-10-26 12:30:00,44.3,34.8,29.83,SW,217,9.0,20.0,69,0.00,,,0.00,VWS V14.00,2013-10-26 16:30:00,
2013-10-26 12:31:00,44.3,34.8,29.82,SW,217,6.0,11.0,69,0.00,,,0.00,VWS V14.00,2013-10-26 16:31:00,
2013-10-26 12:32:00,44.2,34.7,29.82,WSW,257,5.0,18.0,69,0.00,,,0.00,VWS V14.00,2013-10-26 16:32:00,
2013-10-26 12:33:00,44.3,34.8,29.82,SW,230,4.0,13.0,69,0.00,,,0.00,VWS V14.00,2013-10-26 16:33:00,
2013-10-26 12:34:00,44.3,35.2,29.82,SSW,211,13.0,13.0,70,0.00,,,0.00,VWS V14.00,2013-10-26 16:34:00,
2013-10-26 12:35:00,44.4,35.2,29.82,SW,232,6.0,13.0,70,0.00,,,0.00,VWS V14.00,2013-10-26 16:35:00,
2013-10-26 12:36:00,44.4,35.2,29.82,WSW,250,17.0,17.0,70,0.00,,,0.00,VWS V14.00,2013-10-26 16:36:00,
2013-10-26 12:37:00,44.2,34.7,29.82,SSW,204,14.0,20.0,69,0.00,,,0.00,VWS V14.00,2013-10-26 16:37:00,
2013-10-26 12:38:00,44.5,35.0,29.82,SSW,204,11.0,17.0,69,0.00,,,0.00,VWS V14.00,2013-10-26 16:38:00,
2013-10-26 12:39:00,44.5,35.0,29.82,SW,226,6.0,17.0,69,0.00,,,0.00,VWS V14.00,2013-10-26 16:39:00,
2013-10-26 12:40:00,44.5,35.0,29.82,SW,226,4.0,17.0,69,0.00,,,0.00,VWS V14.00,2013-10-26 16:40:00,
2013-10-26 12:41:00,44.6,35.1,29.82,SW,232,16.0,17.0,69,0.00,,,0.00,VWS V14.00,2013-10-26 16:41:00,
2013-10-26 12:42:00,44.3,34.8,29.82,SW,232,9.0,13.0,69,0.00,,,0.00,VWS V14.00,2013-10-26 16:42:00,
2013-10-26 12:43:00,44.6,35.1,29.82,SW,221,4.0,20.0,69,0.00,,,0.00,VWS V14.00,2013-10-26 16:43:00,
2013-10-26 12:44:00,44.6,35.1,29.82,SW,228,4.0,20.0,69,0.00,,,0.00,VWS V14.00,2013-10-26 16:44:00,
2013-10-26 12:45:00,44.6,35.1,29.82,WSW,250,10.0,20.0,69,0.00,,,0.00,VWS V14.00,2013-10-26 16:45:00,
2013-10-26 12:46:00,44.6,35.1,29.82,WSW,246,7.0,20.0,69,0.00,,,0.00,VWS V14.00,2013-10-26 16:46:00,
2013-10-26 12:47:00,44.4,34.9,29.82,SW,218,13.0,17.0,69,0.00,,,0.00,VWS V14.00,2013-10-26 16:47:00,
2013-10-26 12:48:00,44.6,35.1,29.82,SW,217,6.0,20.0,69,0.00,,,0.00,VWS V14.00,2013-10-26 16:48:00,
2013-10-26 12:49:00,44.6,35.1,29.82,SW,228,3.0,20.0,69,0.00,,,0.00,VWS V14.00,2013-10-26 16:49:00,
2013-10-26 12:50:00,44.6,35.1,29.82,SW,230,9.0,20.0,69,0.00,,,0.00,VWS V14.00,2013-10-26 16:50:00,
2013-10-26 12:51:00,44.6,35.4,29.82,SW,221,3.0,20.0,70,0.00,,,0.00,VWS V14.00,2013-10-26 16:51:00,
2013-10-26 12:52:00,44.6,35.1,29.83,SW,218,12.0,20.0,69,0.00,,,0.00,VWS V14.00,2013-10-26 16:52:00,
2013-10-26 12:53:00,44.6,35.1,29.82,WSW,237,16.0,20.0,69,0.00,,,0.00,VWS V14.00,2013-10-26 16:53:00,
2013-10-26 12:54:00,44.6,35.1,29.82,South,188,4.0,20.0,69,0.00,,,0.00,VWS V14.00,2013-10-26 16:54:00,
2013-10-26 12:55:00,44.6,35.1,29.81,SW,214,2.0,20.0,69,0.00,,,0.00,VWS V14.00,2013-10-26 16:55:00,
2013-10-26 12:56:00,44.7,35.2,29.81,SW,218,5.0,20.0,69,0.00,,,0.00,VWS V14.00,2013-10-26 16:56:00,
2013-10-26 12:57:00,44.6,35.1,29.82,SW,226,13.0,20.0,69,0.00,,,0.00,VWS V14.00,2013-10-26 16:57:00,
2013-10-26 12:58:00,44.7,35.2,29.81,WSW,240,6.0,20.0,69,0.00,,,0.00,VWS V14.00,2013-10-26 16:58:00,
2013-10-26 12:59:00,44.7,35.2,29.81,West,261,12.0,20.0,69,0.00,,,0.00,VWS V14.00,2013-10-26 16:59:00,
2013-10-26 13:00:00,44.8,35.3,29.81,SW,215,9.0,20.0,69,0.00,,,0.00,VWS V14.00,2013-10-26 17:00:00,
2013-10-26 13:01:00,44.9,35.7,29.81,SW,233,12.0,16.0,70,0.00,,,0.00,VWS V14.00,2013-10-26 17:01:00,
2013-10-26 13:02:00,44.6,35.4,29.82,WSW,245,3.0,20.0,70,0.00,,,0.00,VWS V14.00,2013-10-26 17:02:00,
2013-10-26 13:03:00,45.0,35.5,29.81,SW,234,2.0,16.0,69,0.00,,,0.00,VWS V14.00,2013-10-26 17:03:00,
2013-10-26 13:04:00,45.0,35.5,29.81,WSW,257,11.0,16.0,69,0.00,,,0.00,VWS V14.00,2013-10-26 17:04:00,
2013-10-26 13:05:00,45.0,35.5,29.81,WSW,237,4.0,18.0,69,0.00,,,0.00,VWS V14.00,2013-10-26 17:05:00,
2013-10-26 13:06:00,45.0,35.5,29.81,SSW,195,6.0,18.0,69,0.00,,,0.00,VWS V14.00,2013-10-26 17:06:00,
2013-10-26 13:07:00,44.7,35.2,29.81,SW,224,6.0,20.0,69,0.00,,,0.00,VWS V14.00,2013-10-26 17:07:00,
2013-10-26 13:08:00,45.1,35.9,29.81,SSW,200,10.0,18.0,70,0.00,,,0.00,VWS V14.00,2013-10-26 17:08:00,
2013-10-26 13:09:00,45.2,35.7,29.81,WSW,240,4.0,18.0,69,0.00,,,0.00,VWS V14.00,2013-10-26 17:09:00,
2013-10-26 13:10:00,45.2,36.0,29.81,SW,233,12.0,18.0,70,0.00,,,0.00,VWS V14.00,2013-10-26 17:10:00,
2013-10-26 13:11:00,45.3,36.1,29.81,SSE,165,4.0,18.0,70,0.00,,,0.00,VWS V14.00,2013-10-26 17:11:00,
2013-10-26 13:12:00,44.9,35.7,29.81,South,190,7.0,16.0,70,0.00,,,0.00,VWS V14.00,2013-10-26 17:12:00,
2013-10-26 13:13:00,45.4,36.2,29.81,WSW,254,16.0,19.0,70,0.00,,,0.00,VWS V14.00,2013-10-26 17:13:00,
2013-10-26 13:14:00,45.4,35.8,29.81,SSW,200,9.0,19.0,69,0.00,,,0.00,VWS V14.00,2013-10-26 17:14:00,
2013-10-26 13:15:00,45.4,35.8,29.81,South,176,6.0,19.0,69,0.00,,,0.00,VWS V14.00,2013-10-26 17:15:00,
2013-10-26 13:16:00,45.4,35.8,29.81,SW,234,4.0,19.0,69,0.00,,,0.00,VWS V14.00,2013-10-26 17:16:00,
2013-10-26 13:17:00,45.1,35.9,29.81,WSW,244,12.0,18.0,70,0.00,,,0.00,VWS V14.00,2013-10-26 17:17:00,
2013-10-26 13:18:00,45.6,36.8,29.81,WSW,246,9.0,19.0,71,0.00,,,0.00,VWS V14.00,2013-10-26 17:18:00,
2013-10-26 13:19:00,45.7,36.5,29.81,SW,225,10.0,19.0,70,0.00,,,0.00,VWS V14.00,2013-10-26 17:19:00,
2013-10-26 13:20:00,45.8,36.6,29.81,SW,227,12.0,19.0,70,0.00,,,0.00,VWS V14.00,2013-10-26 17:20:00,
2013-10-26 13:21:00,45.9,36.3,29.81,WSW,247,13.0,19.0,69,0.00,,,0.00,VWS V14.00,2013-10-26 17:21:00,
2013-10-26 13:22:00,45.3,36.1,29.81,SW,229,8.0,18.0,70,0.00,,,0.00,VWS V14.00,2013-10-26 17:22:00,
2013-10-26 13:23:00,46.1,36.5,29.80,SW,232,7.0,19.0,69,0.00,,,0.00,VWS V14.00,2013-10-26 17:23:00,
2013-10-26 13:24:00,46.1,36.5,29.80,SW,219,5.0,19.0,69,0.00,,,0.00,VWS V14.00,2013-10-26 17:24:00,
2013-10-26 13:25:00,46.2,37.0,29.80,WSW,240,6.0,19.0,70,0.00,,,0.00,VWS V14.00,2013-10-26 17:25:00,
2013-10-26 13:26:00,46.3,36.7,29.80,WSW,239,5.0,19.0,69,0.00,,,0.00,VWS V14.00,2013-10-26 17:26:00,
2013-10-26 13:27:00,45.5,36.3,29.81,SW,234,4.0,19.0,70,0.00,,,0.00,VWS V14.00,2013-10-26 17:27:00,
2013-10-26 13:28:00,46.4,36.8,29.80,WSW,242,5.0,19.0,69,0.00,,,0.00,VWS V14.00,2013-10-26 17:28:00,
2013-10-26 13:29:00,46.5,36.9,29.80,WSW,237,5.0,19.0,69,0.00,,,0.00,VWS V14.00,2013-10-26 17:29:00,
2013-10-26 13:30:00,46.7,37.1,29.80,WSW,237,3.0,19.0,69,0.00,,,0.00,VWS V14.00,2013-10-26 17:30:00,
2013-10-26 13:31:00,46.8,37.2,29.80,WSW,252,15.0,15.0,69,0.00,,,0.00,VWS V14.00,2013-10-26 17:31:00,
2013-10-26 13:32:00,46.0,36.4,29.81,SW,222,10.0,19.0,69,0.00,,,0.00,VWS V14.00,2013-10-26 17:32:00,
2013-10-26 13:33:00,47.0,37.4,29.80,SW,214,6.0,15.0,69,0.00,,,0.00,VWS V14.00,2013-10-26 17:33:00,
2013-10-26 13:34:00,47.1,37.5,29.80,SW,222,9.0,15.0,69,0.00,,,0.00,VWS V14.00,2013-10-26 17:34:00,
2013-10-26 13:35:00,47.2,37.6,29.80,SW,230,12.0,15.0,69,0.00,,,0.00,VWS V14.00,2013-10-26 17:35:00,
2013-10-26 13:36:00,47.2,36.8,29.80,SW,229,12.0,15.0,67,0.00,,,0.00,VWS V14.00,2013-10-26 17:36:00,
2013-10-26 13:37:00,46.3,36.7,29.80,WSW,241,7.0,19.0,69,0.00,,,0.00,VWS V14.00,2013-10-26 17:37:00,
2013-10-26 13:38:00,47.2,37.2,29.80,SW,229,9.0,15.0,68,0.00,,,0.00,VWS V14.00,2013-10-26 17:38:00,
2013-10-26 13:39:00,47.3,36.9,29.80,SW,217,8.0,19.0,67,0.00,,,0.00,VWS V14.00,2013-10-26 17:39:00,
2013-10-26 13:40:00,47.3,36.9,29.80,WSW,254,10.0,20.0,67,0.00,,,0.00,VWS V14.00,2013-10-26 17:40:00,
2013-10-26 13:41:00,47.3,36.9,29.80,West,263,9.0,20.0,67,0.00,,,0.00,VWS V14.00,2013-10-26 17:41:00,
2013-10-26 13:42:00,46.9,37.3,29.80,SSW,203,7.0,15.0,69,0.00,,,0.00,VWS V14.00,2013-10-26 17:42:00,
2013-10-26 13:43:00,47.6,37.6,29.80,West,259,5.0,20.0,68,0.00,,,0.00,VWS V14.00,2013-10-26 17:43:00,
2013-10-26 13:44:00,47.7,37.7,29.80,SW,214,4.0,20.0,68,0.00,,,0.00,VWS V14.00,2013-10-26 17:44:00,
2013-10-26 13:45:00,47.9,37.9,29.80,SSW,200,4.0,20.0,68,0.00,,,0.00,VWS V14.00,2013-10-26 17:45:00,
2013-10-26 13:46:00,48.0,38.0,29.80,SSE,165,10.0,20.0,68,0.00,,,0.00,VWS V14.00,2013-10-26 17:46:00,
2013-10-26 13:47:00,47.2,36.8,29.80,WSW,239,1.0,15.0,67,0.00,,,0.00,VWS V14.00,2013-10-26 17:47:00,
2013-10-26 13:48:00,48.1,37.7,29.80,SSE,153,14.0,20.0,67,0.00,,,0.00,VWS V14.00,2013-10-26 17:48:00,
2013-10-26 13:49:00,48.1,37.7,29.79,SW,233,4.0,20.0,67,0.00,,,0.00,VWS V14.00,2013-10-26 17:49:00,
2013-10-26 13:50:00,48.1,37.3,29.80,SSW,196,8.0,20.0,66,0.00,,,0.00,VWS V14.00,2013-10-26 17:50:00,
2013-10-26 13:51:00,48.1,37.3,29.79,WSW,241,5.0,20.0,66,0.00,,,0.00,VWS V14.00,2013-10-26 17:51:00,
2013-10-26 13:52:00,47.4,37.0,29.80,WSW,241,5.0,20.0,67,0.00,,,0.00,VWS V14.00,2013-10-26 17:52:00,
2013-10-26 13:53:00,48.0,37.6,29.79,SW,234,4.0,20.0,67,0.00,,,0.00,VWS V14.00,2013-10-26 17:53:00,
2013-10-26 13:54:00,48.0,37.6,29.80,SW,226,8.0,20.0,67,0.00,,,0.00,VWS V14.00,2013-10-26 17:54:00,
2013-10-26 13:55:00,48.0,37.6,29.80,SW,231,12.0,20.0,67,0.00,,,0.00,VWS V14.00,2013-10-26 17:55:00,
2013-10-26 13:56:00,48.0,37.6,29.80,SSW,207,3.0,20.0,67,0.00,,,0.00,VWS V14.00,2013-10-26 17:56:00,
2013-10-26 13:57:00,48.1,38.0,29.80,South,184,4.0,20.0,68,0.00,,,0.00,VWS V14.00,2013-10-26 17:57:00,
2013-10-26 13:58:00,48.0,37.6,29.80,SSW,201,9.0,22.0,67,0.00,,,0.00,VWS V14.00,2013-10-26 17:58:00,
2013-10-26 13:59:00,48.1,37.7,29.79,SSW,211,9.0,22.0,67,0.00,,,0.00,VWS V14.00,2013-10-26 17:59:00,
2013-10-26 14:00:00,48.0,37.6,29.79,SW,236,12.0,22.0,67,0.00,,,0.00,VWS V14.00,2013-10-26 18:00:00,
2013-10-26 14:01:00,48.0,37.6,29.79,SW,218,13.0,19.0,67,0.00,,,0.00,VWS V14.00,2013-10-26 18:01:00,
2013-10-26 14:02:00,48.0,37.2,29.79,SW,223,3.0,20.0,66,0.00,,,0.00,VWS V14.00,2013-10-26 18:02:00,
2013-10-26 14:03:00,48.0,37.2,29.80,WSW,240,5.0,19.0,66,0.00,,,0.00,VWS V14.00,2013-10-26 18:03:00,
2013-10-26 14:04:00,47.9,37.1,29.80,SW,236,6.0,19.0,66,0.00,,,0.00,VWS V14.00,2013-10-26 18:04:00,
2013-10-26 14:05:00,47.9,37.1,29.80,WSW,238,5.0,19.0,66,0.00,,,0.00,VWS V14.00,2013-10-26 18:05:00,
2013-10-26 14:06:00,47.9,37.1,29.80,WSW,237,6.0,19.0,66,0.00,,,0.00,VWS V14.00,2013-10-26 18:06:00,
2013-10-26 14:07:00,48.0,37.6,29.80,SW,232,18.0,20.0,67,0.00,,,0.00,VWS V14.00,2013-10-26 18:07:00,
2013-10-26 14:08:00,47.9,37.5,29.80,SSW,203,17.0,19.0,67,0.00,,,0.00,VWS V14.00,2013-10-26 18:08:00,
2013-10-26 14:09:00,47.9,37.1,29.80,SW,229,13.0,23.0,66,0.00,,,0.00,VWS V14.00,2013-10-26 18:09:00,
2013-10-26 14:10:00,47.9,37.1,29.80,SW,223,12.0,23.0,66,0.00,,,0.00,VWS V14.00,2013-10-26 18:10:00,
2013-10-26 14:11:00,48.0,37.2,29.80,SW,227,9.0,23.0,66,0.00,,,0.00,VWS V14.00,2013-10-26 18:11:00,
2013-10-26 14:12:00,48.0,37.6,29.80,WSW,243,11.0,19.0,67,0.00,,,0.00,VWS V14.00,2013-10-26 18:12:00,
2013-10-26 14:13:00,48.1,37.3,29.80,SW,235,15.0,23.0,66,0.00,,,0.00,VWS V14.00,2013-10-26 18:13:00,
2013-10-26 14:14:00,48.1,37.3,29.80,SSW,196,5.0,23.0,66,0.00,,,0.00,VWS V14.00,2013-10-26 18:14:00,
2013-10-26 14:15:00,48.1,37.3,29.80,SW,222,6.0,23.0,66,0.00,,,0.00,VWS V14.00,2013-10-26 18:15:00,
2013-10-26 14:16:00,48.1,37.3,29.80,SW,230,5.0,23.0,66,0.00,,,0.00,VWS V14.00,2013-10-26 18:16:00,
2013-10-26 14:17:00,47.9,37.1,29.80,WSW,238,4.0,19.0,66,0.00,,,0.00,VWS V14.00,2013-10-26 18:17:00,
2013-10-26 14:18:00,48.0,37.2,29.80,SW,226,6.0,23.0,66,0.00,,,0.00,VWS V14.00,2013-10-26 18:18:00,
2013-10-26 14:19:00,48.0,37.2,29.80,SW,232,6.0,23.0,66,0.00,,,0.00,VWS V14.00,2013-10-26 18:19:00,
2013-10-26 14:20:00,47.9,37.1,29.80,SW,221,10.0,23.0,66,0.00,,,0.00,VWS V14.00,2013-10-26 18:20:00,
2013-10-26 14:21:00,47.9,37.1,29.80,SW,227,7.0,23.0,66,0.00,,,0.00,VWS V14.00,2013-10-26 18:21:00,
2013-10-26 14:22:00,48.0,37.2,29.80,SW,218,4.0,23.0,66,0.00,,,0.00,VWS V14.00,2013-10-26 18:22:00,
2013-10-26 14:23:00,47.8,37.0,29.79,SW,233,2.0,23.0,66,0.00,,,0.00,VWS V14.00,2013-10-26 18:23:00,
2013-10-26 14:24:00,47.7,36.9,29.79,WSW,256,6.0,23.0,66,0.00,,,0.00,VWS V14.00,2013-10-26 18:24:00,
2013-10-26 14:25:00,47.8,37.0,29.79,SW,234,6.0,23.0,66,0.00,,,0.00,VWS V14.00,2013-10-26 18:25:00,
2013-10-26 14:26:00,47.7,37.3,29.79,WSW,240,9.0,23.0,67,0.00,,,0.00,VWS V14.00,2013-10-26 18:26:00,
2013-10-26 14:27:00,48.1,37.7,29.80,SSW,203,6.0,23.0,67,0.00,,,0.00,VWS V14.00,2013-10-26 18:27:00,
2013-10-26 14:28:00,47.7,37.3,29.79,SW,234,5.0,23.0,67,0.00,,,0.00,VWS V14.00,2013-10-26 18:28:00,
2013-10-26 14:29:00,47.7,37.3,29.79,SW,229,14.0,23.0,67,0.00,,,0.00,VWS V14.00,2013-10-26 18:29:00,
2013-10-26 14:30:00,47.7,37.3,29.79,SSW,194,12.0,23.0,67,0.00,,,0.00,VWS V14.00,2013-10-26 18:30:00,
2013-10-26 14:31:00,47.7,37.3,29.79,SW,226,12.0,12.0,67,0.00,,,0.00,VWS V14.00,2013-10-26 18:31:00,
2013-10-26 14:32:00,47.8,37.0,29.80,SW,225,6.0,23.0,66,0.00,,,0.00,VWS V14.00,2013-10-26 18:32:00,
2013-10-26 14:33:00,47.7,37.3,29.79,SW,225,7.0,13.0,67,0.00,,,0.00,VWS V14.00,2013-10-26 18:33:00,
2013-10-26 14:34:00,47.7,37.7,29.79,SSE,166,4.0,13.0,68,0.00,,,0.00,VWS V14.00,2013-10-26 18:34:00,
2013-10-26 14:35:00,47.8,37.8,29.79,WSW,252,7.0,13.0,68,0.00,,,0.00,VWS V14.00,2013-10-26 18:35:00,
2013-10-26 14:36:00,47.8,37.8,29.79,SW,230,3.0,13.0,68,0.00,,,0.00,VWS V14.00,2013-10-26 18:36:00,
2013-10-26 14:37:00,47.7,37.3,29.79,WSW,246,7.0,23.0,67,0.00,,,0.00,VWS V14.00,2013-10-26 18:37:00,
2013-10-26 14:38:00,47.9,37.5,29.79,SW,229,4.0,16.0,67,0.00,,,0.00,VWS V14.00,2013-10-26 18:38:00,
2013-10-26 14:39:00,48.0,37.6,29.79,SW,234,5.0,16.0,67,0.00,,,0.00,VWS V14.00,2013-10-26 18:39:00,
2013-10-26 14:40:00,48.0,37.6,29.79,SW,229,4.0,16.0,67,0.00,,,0.00,VWS V14.00,2013-10-26 18:40:00,
2013-10-26 14:41:00,48.1,37.7,29.79,WSW,244,4.0,16.0,67,0.00,,,0.00,VWS V14.00,2013-10-26 18:41:00,
2013-10-26 14:42:00,47.7,37.3,29.79,SW,222,5.0,13.0,67,0.00,,,0.00,VWS V14.00,2013-10-26 18:42:00,
2013-10-26 14:43:00,48.1,38.0,29.79,SW,218,3.0,16.0,68,0.00,,,0.00,VWS V14.00,2013-10-26 18:43:00,
2013-10-26 14:44:00,48.2,38.2,29.79,SW,226,1.0,16.0,68,0.00,,,0.00,VWS V14.00,2013-10-26 18:44:00,
2013-10-26 14:45:00,48.3,38.6,29.79,SW,225,3.0,16.0,69,0.00,,,0.00,VWS V14.00,2013-10-26 18:45:00,
2013-10-26 14:46:00,48.3,38.2,29.79,SW,232,6.0,16.0,68,0.00,,,0.00,VWS V14.00,2013-10-26 18:46:00,
2013-10-26 14:47:00,47.9,37.9,29.79,SW,222,10.0,16.0,68,0.00,,,0.00,VWS V14.00,2013-10-26 18:47:00,
2013-10-26 14:48:00,48.4,38.3,29.79,SSW,211,5.0,16.0,68,0.00,,,0.00,VWS V14.00,2013-10-26 18:48:00,
2013-10-26 14:49:00,48.5,38.4,29.79,WSW,240,3.0,16.0,68,0.00,,,0.00,VWS V14.00,2013-10-26 18:49:00,
2013-10-26 14:50:00,48.5,38.4,29.79,SW,233,3.0,16.0,68,0.00,,,0.00,VWS V14.00,2013-10-26 18:50:00,
2013-10-26 14:51:00,48.6,38.5,29.79,WSW,248,14.0,16.0,68,0.00,,,0.00,VWS V14.00,2013-10-26 18:51:00,
2013-10-26 14:52:00,48.1,38.0,29.79,SW,222,14.0,16.0,68,0.00,,,0.00,VWS V14.00,2013-10-26 18:52:00,
2013-10-26 14:53:00,48.6,38.2,29.79,SW,217,4.0,16.0,67,0.00,,,0.00,VWS V14.00,2013-10-26 18:53:00,
2013-10-26 14:54:00,48.6,38.2,29.80,SW,221,5.0,16.0,67,0.00,,,0.00,VWS V14.00,2013-10-26 18:54:00,
2013-10-26 14:55:00,48.6,38.2,29.80,SSW,194,3.0,16.0,67,0.00,,,0.00,VWS V14.00,2013-10-26 18:55:00,
2013-10-26 14:56:00,48.6,38.2,29.79,WSW,238,9.0,16.0,67,0.00,,,0.00,VWS V14.00,2013-10-26 18:56:00,
2013-10-26 14:57:00,48.3,37.9,29.79,SW,229,5.0,16.0,67,0.00,,,0.00,VWS V14.00,2013-10-26 18:57:00,
2013-10-26 14:58:00,48.6,38.2,29.79,SW,234,15.0,16.0,67,0.00,,,0.00,VWS V14.00,2013-10-26 18:58:00,
2013-10-26 14:59:00,48.6,37.8,29.79,WSW,244,6.0,16.0,66,0.00,,,0.00,VWS V14.00,2013-10-26 18:59:00,
2013-10-26 15:00:00,48.6,37.8,29.79,SW,225,5.0,16.0,66,0.00,,,0.00,VWS V14.00,2013-10-26 19:00:00,
2013-10-26 15:01:00,48.6,38.2,29.80,SW,235,4.0,10.0,67,0.00,,,0.00,VWS V14.00,2013-10-26 19:01:00,
2013-10-26 15:02:00,48.6,38.2,29.79,SW,221,5.0,16.0,67,0.00,,,0.00,VWS V14.00,2013-10-26 19:02:00,
2013-10-26 15:03:00,48.6,38.2,29.80,SSW,213,2.0,10.0,67,0.00,,,0.00,VWS V14.00,2013-10-26 19:03:00,
2013-10-26 15:04:00,48.6,38.2,29.80,WSW,257,4.0,10.0,67,0.00,,,0.00,VWS V14.00,2013-10-26 19:04:00,
2013-10-26 15:05:00,48.6,38.2,29.80,SW,223,6.0,10.0,67,0.00,,,0.00,VWS V14.00,2013-10-26 19:05:00,
2013-10-26 15:06:00,48.6,38.5,29.80,SW,233,4.0,13.0,68,0.00,,,0.00,VWS V14.00,2013-10-26 19:06:00,
2013-10-26 15:07:00,48.6,38.2,29.79,SSW,201,1.0,16.0,67,0.00,,,0.00,VWS V14.00,2013-10-26 19:07:00,
2013-10-26 15:08:00,48.6,38.2,29.80,SW,236,5.0,13.0,67,0.00,,,0.00,VWS V14.00,2013-10-26 19:08:00,
2013-10-26 15:09:00,48.7,38.2,29.80,SW,227,15.0,16.0,67,0.00,,,0.00,VWS V14.00,2013-10-26 19:09:00,
2013-10-26 15:10:00,48.6,38.2,29.80,SW,229,6.0,16.0,67,0.00,,,0.00,VWS V14.00,2013-10-26 19:10:00,
2013-10-26 15:11:00,48.7,37.9,29.79,SW,233,3.0,16.0,66,0.00,,,0.00,VWS V14.00,2013-10-26 19:11:00,
2013-10-26 15:12:00,48.6,38.2,29.80,SSW,209,6.0,10.0,67,0.00,,,0.00,VWS V14.00,2013-10-26 19:12:00,
2013-10-26 15:13:00,48.7,38.2,29.80,SW,232,7.0,16.0,67,0.00,,,0.00,VWS V14.00,2013-10-26 19:13:00,
2013-10-26 15:14:00,48.7,38.2,29.80,West,261,4.0,16.0,67,0.00,,,0.00,VWS V14.00,2013-10-26 19:14:00,
2013-10-26 15:15:00,48.7,38.2,29.80,SW,217,8.0,16.0,67,0.00,,,0.00,VWS V14.00,2013-10-26 19:15:00,
2013-10-26 15:16:00,48.7,38.2,29.80,SSW,192,2.0,16.0,67,0.00,,,0.00,VWS V14.00,2013-10-26 19:16:00,
2013-10-26 15:17:00,48.6,38.2,29.80,SSW,199,6.0,13.0,67,0.00,,,0.00,VWS V14.00,2013-10-26 19:17:00,
2013-10-26 15:18:00,48.7,38.2,29.80,SW,226,10.0,16.0,67,0.00,,,0.00,VWS V14.00,2013-10-26 19:18:00,
2013-10-26 15:19:00,48.7,38.2,29.80,SW,233,6.0,16.0,67,0.00,,,0.00,VWS V14.00,2013-10-26 19:19:00,
2013-10-26 15:20:00,48.8,38.3,29.80,WSW,243,3.0,16.0,67,0.00,,,0.00,VWS V14.00,2013-10-26 19:20:00,
2013-10-26 15:21:00,48.8,38.3,29.80,WSW,245,6.0,16.0,67,0.00,,,0.00,VWS V14.00,2013-10-26 19:21:00,
2013-10-26 15:22:00,48.7,38.2,29.80,WSW,252,7.0,16.0,67,0.00,,,0.00,VWS V14.00,2013-10-26 19:22:00,
2013-10-26 15:23:00,48.8,38.3,29.80,SW,230,6.0,16.0,67,0.00,,,0.00,VWS V14.00,2013-10-26 19:23:00,
2013-10-26 15:24:00,48.8,38.3,29.80,SW,226,6.0,16.0,67,0.00,,,0.00,VWS V14.00,2013-10-26 19:24:00,
2013-10-26 15:25:00,48.8,38.3,29.80,SW,226,2.0,16.0,67,0.00,,,0.00,VWS V14.00,2013-10-26 19:25:00,
2013-10-26 15:26:00,48.8,38.3,29.80,SW,232,10.0,16.0,67,0.00,,,0.00,VWS V14.00,2013-10-26 19:26:00,
2013-10-26 15:27:00,48.7,38.2,29.80,South,188,4.0,16.0,67,0.00,,,0.00,VWS V14.00,2013-10-26 19:27:00,
2013-10-26 15:28:00,48.8,38.3,29.80,WSW,247,3.0,16.0,67,0.00,,,0.00,VWS V14.00,2013-10-26 19:28:00,
2013-10-26 15:29:00,48.8,38.3,29.80,SW,226,3.0,16.0,67,0.00,,,0.00,VWS V14.00,2013-10-26 19:29:00,
2013-10-26 15:30:00,48.8,38.3,29.80,WSW,238,6.0,16.0,67,0.00,,,0.00,VWS V14.00,2013-10-26 19:30:00,
2013-10-26 15:31:00,48.8,38.3,29.80,WSW,254,13.0,13.0,67,0.00,,,0.00,VWS V14.00,2013-10-26 19:31:00,
2013-10-26 15:32:00,48.7,38.2,29.80,SW,227,4.0,16.0,67,0.00,,,0.00,VWS V14.00,2013-10-26 19:32:00,
2013-10-26 15:33:00,48.8,38.3,29.80,WSW,240,7.0,13.0,67,0.00,,,0.00,VWS V14.00,2013-10-26 19:33:00,
2013-10-26 15:34:00,48.8,38.3,29.80,WSW,238,7.0,13.0,67,0.00,,,0.00,VWS V14.00,2013-10-26 19:34:00,
2013-10-26 15:35:00,48.8,38.3,29.80,SW,228,6.0,13.0,67,0.00,,,0.00,VWS V14.00,2013-10-26 19:35:00,
2013-10-26 15:36:00,48.8,38.3,29.80,SW,222,3.0,13.0,67,0.00,,,0.00,VWS V14.00,2013-10-26 19:36:00,
2013-10-26 15:37:00,48.8,38.3,29.80,SW,229,9.0,16.0,67,0.00,,,0.00,VWS V14.00,2013-10-26 19:37:00,
2013-10-26 15:38:00,48.8,38.7,29.80,SW,234,6.0,13.0,68,0.00,,,0.00,VWS V14.00,2013-10-26 19:38:00,
2013-10-26 15:39:00,48.8,38.7,29.80,WSW,241,5.0,13.0,68,0.00,,,0.00,VWS V14.00,2013-10-26 19:39:00,
2013-10-26 15:40:00,48.8,38.3,29.80,SW,228,4.0,13.0,67,0.00,,,0.00,VWS V14.00,2013-10-26 19:40:00,
2013-10-26 15:41:00,48.8,38.7,29.80,SW,226,6.0,13.0,68,0.00,,,0.00,VWS V14.00,2013-10-26 19:41:00,
2013-10-26 15:42:00,48.8,38.3,29.80,WSW,241,12.0,13.0,67,0.00,,,0.00,VWS V14.00,2013-10-26 19:42:00,
2013-10-26 15:43:00,48.8,38.7,29.80,SW,221,4.0,14.0,68,0.00,,,0.00,VWS V14.00,2013-10-26 19:43:00,
2013-10-26 15:44:00,48.8,38.7,29.80,SW,223,3.0,14.0,68,0.00,,,0.00,VWS V14.00,2013-10-26 19:44:00,
2013-10-26 15:45:00,48.8,38.7,29.80,SW,227,6.0,14.0,68,0.00,,,0.00,VWS V14.00,2013-10-26 19:45:00,
2013-10-26 15:46:00,48.8,38.7,29.80,SSW,213,3.0,14.0,68,0.00,,,0.00,VWS V14.00,2013-10-26 19:46:00,
2013-10-26 15:47:00,48.8,38.7,29.80,WSW,237,3.0,13.0,68,0.00,,,0.00,VWS V14.00,2013-10-26 19:47:00,
2013-10-26 15:48:00,48.8,38.7,29.80,SW,222,7.0,14.0,68,0.00,,,0.00,VWS V14.00,2013-10-26 19:48:00,
2013-10-26 15:49:00,48.9,38.8,29.80,SW,229,6.0,14.0,68,0.00,,,0.00,VWS V14.00,2013-10-26 19:49:00,
2013-10-26 15:50:00,49.0,38.9,29.80,SW,230,6.0,14.0,68,0.00,,,0.00,VWS V14.00,2013-10-26 19:50:00,
2013-10-26 15:51:00,49.1,39.0,29.80,SW,226,8.0,14.0,68,0.00,,,0.00,VWS V14.00,2013-10-26 19:51:00,
2013-10-26 15:52:00,48.8,38.7,29.80,SW,227,7.0,14.0,68,0.00,,,0.00,VWS V14.00,2013-10-26 19:52:00,
2013-10-26 15:53:00,49.2,39.1,29.80,SW,221,9.0,14.0,68,0.00,,,0.00,VWS V14.00,2013-10-26 19:53:00,
2013-10-26 15:54:00,49.3,39.2,29.81,SW,217,12.0,14.0,68,0.00,,,0.00,VWS V14.00,2013-10-26 19:54:00,
2013-10-26 15:55:00,49.4,39.3,29.81,WSW,248,7.0,14.0,68,0.00,,,0.00,VWS V14.00,2013-10-26 19:55:00,
2013-10-26 15:56:00,49.4,38.9,29.81,SW,219,10.0,14.0,67,0.00,,,0.00,VWS V14.00,2013-10-26 19:56:00,
2013-10-26 15:57:00,48.8,38.7,29.80,SW,234,9.0,14.0,68,0.00,,,0.00,VWS V14.00,2013-10-26 19:57:00,
2013-10-26 15:58:00,49.5,39.0,29.81,SW,222,6.0,14.0,67,0.00,,,0.00,VWS V14.00,2013-10-26 19:58:00,
2013-10-26 15:59:00,49.4,38.9,29.80,West,275,4.0,14.0,67,0.00,,,0.00,VWS V14.00,2013-10-26 19:59:00,
2013-10-26 16:00:00,49.4,38.9,29.80,SW,227,5.0,14.0,67,0.00,,,0.00,VWS V14.00,2013-10-26 20:00:00,
2013-10-26 16:01:00,49.4,38.9,29.81,WSW,244,5.0,10.0,67,0.00,,,0.00,VWS V14.00,2013-10-26 20:01:00,
2013-10-26 16:02:00,49.2,39.1,29.80,SW,236,11.0,14.0,68,0.00,,,0.00,VWS V14.00,2013-10-26 20:02:00,
2013-10-26 16:03:00,49.4,38.9,29.81,WSW,244,4.0,11.0,67,0.00,,,0.00,VWS V14.00,2013-10-26 20:03:00,
2013-10-26 16:04:00,49.4,38.9,29.80,WSW,240,3.0,11.0,67,0.00,,,0.00,VWS V14.00,2013-10-26 20:04:00,
2013-10-26 16:05:00,49.4,39.3,29.80,SW,221,10.0,11.0,68,0.00,,,0.00,VWS V14.00,2013-10-26 20:05:00,
2013-10-26 16:06:00,49.4,38.9,29.80,WSW,254,2.0,11.0,67,0.00,,,0.00,VWS V14.00,2013-10-26 20:06:00,
2013-10-26 16:07:00,49.4,38.9,29.81,West,262,3.0,14.0,67,0.00,,,0.00,VWS V14.00,2013-10-26 20:07:00,
2013-10-26 16:08:00,49.4,38.9,29.80,SW,226,6.0,11.0,67,0.00,,,0.00,VWS V14.00,2013-10-26 20:08:00,
2013-10-26 16:09:00,49.4,38.9,29.80,SW,218,5.0,11.0,67,0.00,,,0.00,VWS V14.00,2013-10-26 20:09:00,
2013-10-26 16:10:00,49.4,38.9,29.80,SW,233,2.0,11.0,67,0.00,,,0.00,VWS V14.00,2013-10-26 20:10:00,
2013-10-26 16:11:00,49.4,38.9,29.80,SW,232,1.0,11.0,67,0.00,,,0.00,VWS V14.00,2013-10-26 20:11:00,
2013-10-26 16:12:00,49.4,38.9,29.81,WSW,253,7.0,10.0,67,0.00,,,0.00,VWS V14.00,2013-10-26 20:12:00,
2013-10-26 16:13:00,49.4,39.3,29.80,WSW,243,5.0,11.0,68,0.00,,,0.00,VWS V14.00,2013-10-26 20:13:00,
2013-10-26 16:14:00,49.4,39.3,29.80,WSW,243,3.0,11.0,68,0.00,,,0.00,VWS V14.00,2013-10-26 20:14:00,
2013-10-26 16:15:00,49.4,39.3,29.80,WSW,241,5.0,11.0,68,0.00,,,0.00,VWS V14.00,2013-10-26 20:15:00,
2013-10-26 16:16:00,49.4,39.3,29.80,SW,214,5.0,12.0,68,0.00,,,0.00,VWS V14.00,2013-10-26 20:16:00,
2013-10-26 16:17:00,49.4,38.9,29.80,SW,226,3.0,11.0,67,0.00,,,0.00,VWS V14.00,2013-10-26 20:17:00,
2013-10-26 16:18:00,49.5,39.4,29.81,SW,226,7.0,12.0,68,0.00,,,0.00,VWS V14.00,2013-10-26 20:18:00,
2013-10-26 16:19:00,49.5,39.4,29.80,SW,226,5.0,12.0,68,0.00,,,0.00,VWS V14.00,2013-10-26 20:19:00,
2013-10-26 16:20:00,49.5,39.4,29.80,SW,229,5.0,12.0,68,0.00,,,0.00,VWS V14.00,2013-10-26 20:20:00,
2013-10-26 16:21:00,49.5,39.4,29.80,SW,227,4.0,12.0,68,0.00,,,0.00,VWS V14.00,2013-10-26 20:21:00,
2013-10-26 16:22:00,49.4,39.3,29.80,WSW,247,11.0,11.0,68,0.00,,,0.00,VWS V14.00,2013-10-26 20:22:00,
2013-10-26 16:23:00,49.6,39.5,29.80,South,178,5.0,12.0,68,0.00,,,0.00,VWS V14.00,2013-10-26 20:23:00,
2013-10-26 16:24:00,49.6,39.5,29.80,SW,232,1.0,12.0,68,0.00,,,0.00,VWS V14.00,2013-10-26 20:24:00,
2013-10-26 16:25:00,49.6,39.5,29.81,SW,215,3.0,12.0,68,0.00,,,0.00,VWS V14.00,2013-10-26 20:25:00,
2013-10-26 16:26:00,49.6,39.5,29.80,SW,219,3.0,12.0,68,0.00,,,0.00,VWS V14.00,2013-10-26 20:26:00,
2013-10-26 16:27:00,49.5,39.4,29.81,West,269,5.0,12.0,68,0.00,,,0.00,VWS V14.00,2013-10-26 20:27:00,
2013-10-26 16:28:00,49.7,39.6,29.80,SW,226,6.0,12.0,68,0.00,,,0.00,VWS V14.00,2013-10-26 20:28:00,
2013-10-26 16:29:00,49.7,39.6,29.81,WSW,242,7.0,12.0,68,0.00,,,0.00,VWS V14.00,2013-10-26 20:29:00,
2013-10-26 16:30:00,49.7,39.6,29.81,WSW,240,4.0,12.0,68,0.00,,,0.00,VWS V14.00,2013-10-26 20:30:00,
2013-10-26 16:31:00,49.7,40.0,29.81,SW,234,11.0,11.0,69,0.00,,,0.00,VWS V14.00,2013-10-26 20:31:00,
2013-10-26 16:32:00,49.6,39.5,29.80,South,178,4.0,12.0,68,0.00,,,0.00,VWS V14.00,2013-10-26 20:32:00,
2013-10-26 16:33:00,49.8,39.7,29.80,SW,232,3.0,11.0,68,0.00,,,0.00,VWS V14.00,2013-10-26 20:33:00,
2013-10-26 16:34:00,49.8,39.7,29.80,WSW,250,4.0,11.0,68,0.00,,,0.00,VWS V14.00,2013-10-26 20:34:00,
2013-10-26 16:35:00,49.8,39.7,29.80,SW,232,6.0,11.0,68,0.00,,,0.00,VWS V14.00,2013-10-26 20:35:00,
2013-10-26 16:36:00,49.8,39.7,29.80,SW,232,3.0,11.0,68,0.00,,,0.00,VWS V14.00,2013-10-26 20:36:00,
2013-10-26 16:37:00,49.6,39.5,29.81,SW,218,5.0,12.0,68,0.00,,,0.00,VWS V14.00,2013-10-26 20:37:00,
2013-10-26 16:38:00,49.9,39.8,29.80,SW,223,6.0,11.0,68,0.00,,,0.00,VWS V14.00,2013-10-26 20:38:00,
2013-10-26 16:39:00,49.8,39.7,29.80,SSW,210,2.0,11.0,68,0.00,,,0.00,VWS V14.00,2013-10-26 20:39:00,
2013-10-26 16:40:00,49.8,39.7,29.80,SW,233,6.0,11.0,68,0.00,,,0.00,VWS V14.00,2013-10-26 20:40:00,
2013-10-26 16:41:00,49.8,39.7,29.81,WSW,237,6.0,11.0,68,0.00,,,0.00,VWS V14.00,2013-10-26 20:41:00,
2013-10-26 16:42:00,49.8,39.7,29.80,SW,233,7.0,11.0,68,0.00,,,0.00,VWS V14.00,2013-10-26 20:42:00,
2013-10-26 16:43:00,49.7,39.6,29.81,West,265,8.0,12.0,68,0.00,,,0.00,VWS V14.00,2013-10-26 20:43:00,
2013-10-26 16:44:00,49.7,39.6,29.81,WSW,254,2.0,12.0,68,0.00,,,0.00,VWS V14.00,2013-10-26 20:44:00,
2013-10-26 16:45:00,49.7,39.6,29.81,WSW,254,3.0,12.0,68,0.00,,,0.00,VWS V14.00,2013-10-26 20:45:00,
2013-10-26 16:46:00,49.7,39.6,29.81,SW,215,6.0,12.0,68,0.00,,,0.00,VWS V14.00,2013-10-26 20:46:00,
2013-10-26 16:47:00,49.8,39.7,29.80,SW,232,3.0,11.0,68,0.00,,,0.00,VWS V14.00,2013-10-26 20:47:00,
2013-10-26 16:48:00,49.6,39.9,29.81,SW,234,2.0,12.0,69,0.00,,,0.00,VWS V14.00,2013-10-26 20:48:00,
2013-10-26 16:49:00,49.6,39.9,29.81,WSW,244,6.0,14.0,69,0.00,,,0.00,VWS V14.00,2013-10-26 20:49:00,
2013-10-26 16:50:00,49.5,39.4,29.81,WSW,238,7.0,14.0,68,0.00,,,0.00,VWS V14.00,2013-10-26 20:50:00,
2013-10-26 16:51:00,49.5,39.8,29.81,SW,225,15.0,15.0,69,0.00,,,0.00,VWS V14.00,2013-10-26 20:51:00,
2013-10-26 16:52:00,49.8,39.3,29.81,SW,236,4.0,11.0,67,0.00,,,0.00,VWS V14.00,2013-10-26 20:52:00,
2013-10-26 16:53:00,49.6,39.9,29.80,SW,226,10.0,15.0,69,0.00,,,0.00,VWS V14.00,2013-10-26 20:53:00,
2013-10-26 16:54:00,49.5,39.8,29.80,SSW,194,5.0,15.0,69,0.00,,,0.00,VWS V14.00,2013-10-26 20:54:00,
2013-10-26 16:55:00,49.6,39.9,29.80,SSW,200,5.0,15.0,69,0.00,,,0.00,VWS V14.00,2013-10-26 20:55:00,
2013-10-26 16:56:00,49.6,39.9,29.80,SW,225,6.0,15.0,69,0.00,,,0.00,VWS V14.00,2013-10-26 20:56:00,
2013-10-26 16:57:00,49.6,39.9,29.81,WSW,243,7.0,12.0,69,0.00,,,0.00,VWS V14.00,2013-10-26 20:57:00,
2013-10-26 16:58:00,49.9,40.2,29.80,SW,223,4.0,15.0,69,0.00,,,0.00,VWS V14.00,2013-10-26 20:58:00,
2013-10-26 16:59:00,49.9,40.2,29.80,SW,232,7.0,15.0,69,0.00,,,0.00,VWS V14.00,2013-10-26 20:59:00,
2013-10-26 17:00:00,50.0,40.2,29.80,SW,236,2.0,15.0,69,0.00,,,0.00,VWS V14.00,2013-10-26 21:00:00,
2013-10-26 17:01:00,50.1,40.0,29.80,SW,232,4.0,12.0,68,0.00,,,0.00,VWS V14.00,2013-10-26 21:01:00,
2013-10-26 17:02:00,49.5,39.8,29.80,SW,225,4.0,15.0,69,0.00,,,0.00,VWS V14.00,2013-10-26 21:02:00,
2013-10-26 17:03:00,50.2,40.1,29.80,SW,235,7.0,12.0,68,0.00,,,0.00,VWS V14.00,2013-10-26 21:03:00,
2013-10-26 17:04:00,50.2,40.1,29.80,South,190,6.0,12.0,68,0.00,,,0.00,VWS V14.00,2013-10-26 21:04:00,
2013-10-26 17:05:00,50.2,40.1,29.80,SW,226,3.0,12.0,68,0.00,,,0.00,VWS V14.00,2013-10-26 21:05:00,
2013-10-26 17:06:00,50.2,40.1,29.80,SSW,196,6.0,12.0,68,0.00,,,0.00,VWS V14.00,2013-10-26 21:06:00,
2013-10-26 17:07:00,49.7,40.0,29.80,SW,223,3.0,15.0,69,0.00,,,0.00,VWS V14.00,2013-10-26 21:07:00,
2013-10-26 17:08:00,50.0,39.9,29.80,SW,230,9.0,15.0,68,0.00,,,0.00,VWS V14.00,2013-10-26 21:08:00,
2013-10-26 17:09:00,50.0,39.9,29.80,SW,230,3.0,15.0,68,0.00,,,0.00,VWS V14.00,2013-10-26 21:09:00,
2013-10-26 17:10:00,50.0,39.9,29.80,SW,230,3.0,15.0,68,0.00,,,0.00,VWS V14.00,2013-10-26 21:10:00,
2013-10-26 17:11:00,50.1,40.3,29.80,SW,236,4.0,15.0,69,0.00,,,0.00,VWS V14.00,2013-10-26 21:11:00,
2013-10-26 17:12:00,50.1,40.0,29.80,SW,234,4.0,12.0,68,0.00,,,0.00,VWS V14.00,2013-10-26 21:12:00,
2013-10-26 17:13:00,50.0,39.9,29.80,SW,223,3.0,15.0,68,0.00,,,0.00,VWS V14.00,2013-10-26 21:13:00,
2013-10-26 17:14:00,50.0,39.9,29.80,SW,232,6.0,15.0,68,0.00,,,0.00,VWS V14.00,2013-10-26 21:14:00,
2013-10-26 17:15:00,50.0,39.9,29.80,SW,227,4.0,15.0,68,0.00,,,0.00,VWS V14.00,2013-10-26 21:15:00,
2013-10-26 17:16:00,50.0,39.9,29.80,WSW,237,3.0,15.0,68,0.00,,,0.00,VWS V14.00,2013-10-26 21:16:00,
2013-10-26 17:17:00,50.1,40.0,29.80,SW,227,4.0,15.0,68,0.00,,,0.00,VWS V14.00,2013-10-26 21:17:00,
2013-10-26 17:18:00,49.9,39.8,29.80,WSW,237,7.0,15.0,68,0.00,,,0.00,VWS V14.00,2013-10-26 21:18:00,
2013-10-26 17:19:00,49.9,40.2,29.80,WSW,240,4.0,15.0,69,0.00,,,0.00,VWS V14.00,2013-10-26 21:19:00,
2013-10-26 17:20:00,49.9,40.2,29.80,SSW,209,2.0,15.0,69,0.00,,,0.00,VWS V14.00,2013-10-26 21:20:00,
2013-10-26 17:21:00,49.8,40.0,29.80,WSW,241,3.0,15.0,69,0.00,,,0.00,VWS V14.00,2013-10-26 21:21:00,
2013-10-26 17:22:00,50.1,40.3,29.80,SSW,212,10.0,15.0,69,0.00,,,0.00,VWS V14.00,2013-10-26 21:22:00,
2013-10-26 17:23:00,49.8,40.0,29.81,WSW,247,6.0,15.0,69,0.00,,,0.00,VWS V14.00,2013-10-26 21:23:00,
2013-10-26 17:24:00,49.8,40.0,29.81,SW,220,3.0,15.0,69,0.00,,,0.00,VWS V14.00,2013-10-26 21:24:00,
2013-10-26 17:25:00,49.8,40.0,29.80,SW,234,9.0,15.0,69,0.00,,,0.00,VWS V14.00,2013-10-26 21:25:00,
2013-10-26 17:26:00,49.7,40.0,29.80,SW,232,4.0,15.0,69,0.00,,,0.00,VWS V14.00,2013-10-26 21:26:00,
2013-10-26 17:27:00,49.9,39.8,29.80,WSW,237,5.0,15.0,68,0.00,,,0.00,VWS V14.00,2013-10-26 21:27:00,
2013-10-26 17:28:00,49.7,40.0,29.80,SW,232,4.0,15.0,69,0.00,,,0.00,VWS V14.00,2013-10-26 21:28:00,
2013-10-26 17:29:00,49.7,40.0,29.80,SW,224,3.0,15.0,69,0.00,,,0.00,VWS V14.00,2013-10-26 21:29:00,
2013-10-26 17:30:00,49.7,40.0,29.80,SW,225,9.0,15.0,69,0.00,,,0.00,VWS V14.00,2013-10-26 21:30:00,
2013-10-26 17:31:00,49.7,40.0,29.81,West,259,6.0,9.0,69,0.00,,,0.00,VWS V14.00,2013-10-26 21:31:00,
2013-10-26 17:32:00,49.8,40.0,29.80,WSW,241,3.0,15.0,69,0.00,,,0.00,VWS V14.00,2013-10-26 21:32:00,
2013-10-26 17:33:00,49.7,40.0,29.81,SW,230,3.0,11.0,69,0.00,,,0.00,VWS V14.00,2013-10-26 21:33:00,
2013-10-26 17:34:00,49.7,40.0,29.81,SW,229,7.0,11.0,69,0.00,,,0.00,VWS V14.00,2013-10-26 21:34:00,
2013-10-26 17:35:00,49.7,40.0,29.81,SW,221,11.0,11.0,69,0.00,,,0.00,VWS V14.00,2013-10-26 21:35:00,
2013-10-26 17:36:00,49.7,40.0,29.81,SW,229,9.0,11.0,69,0.00,,,0.00,VWS V14.00,2013-10-26 21:36:00,
2013-10-26 17:37:00,49.7,40.0,29.80,SW,232,4.0,15.0,69,0.00,,,0.00,VWS V14.00,2013-10-26 21:37:00,
2013-10-26 17:38:00,49.7,40.0,29.81,SW,230,7.0,11.0,69,0.00,,,0.00,VWS V14.00,2013-10-26 21:38:00,
2013-10-26 17:39:00,49.7,40.0,29.81,WSW,237,5.0,11.0,69,0.00,,,0.00,VWS V14.00,2013-10-26 21:39:00,
2013-10-26 17:40:00,49.7,40.0,29.81,WSW,254,2.0,11.0,69,0.00,,,0.00,VWS V14.00,2013-10-26 21:40:00,
2013-10-26 17:41:00,49.7,40.0,29.81,WSW,253,3.0,11.0,69,0.00,,,0.00,VWS V14.00,2013-10-26 21:41:00,
2013-10-26 17:42:00,49.7,40.0,29.81,WSW,254,4.0,11.0,69,0.00,,,0.00,VWS V14.00,2013-10-26 21:42:00,
2013-10-26 17:43:00,49.7,40.3,29.81,WSW,252,4.0,11.0,70,0.00,,,0.00,VWS V14.00,2013-10-26 21:43:00,
2013-10-26 17:44:00,49.7,40.3,29.81,SW,215,5.0,11.0,70,0.00,,,0.00,VWS V14.00,2013-10-26 21:44:00,
2013-10-26 17:45:00,49.6,39.9,29.81,WSW,248,8.0,11.0,69,0.00,,,0.00,VWS V14.00,2013-10-26 21:45:00,
2013-10-26 17:46:00,49.6,39.9,29.81,WSW,238,3.0,11.0,69,0.00,,,0.00,VWS V14.00,2013-10-26 21:46:00,
2013-10-26 17:47:00,49.7,40.0,29.81,SW,232,3.0,11.0,69,0.00,,,0.00,VWS V14.00,2013-10-26 21:47:00,
2013-10-26 17:48:00,49.6,39.9,29.81,SW,232,2.0,12.0,69,0.00,,,0.00,VWS V14.00,2013-10-26 21:48:00,
2013-10-26 17:49:00,49.6,39.9,29.81,SW,232,1.0,12.0,69,0.00,,,0.00,VWS V14.00,2013-10-26 21:49:00,
2013-10-26 17:50:00,49.6,40.2,29.81,SW,232,4.0,12.0,70,0.00,,,0.00,VWS V14.00,2013-10-26 21:50:00,
2013-10-26 17:51:00,49.6,40.2,29.81,SW,231,5.0,12.0,70,0.00,,,0.00,VWS V14.00,2013-10-26 21:51:00,
2013-10-26 17:52:00,49.7,40.3,29.81,WSW,254,3.0,11.0,70,0.00,,,0.00,VWS V14.00,2013-10-26 21:52:00,
2013-10-26 17:53:00,49.6,40.2,29.81,West,259,5.0,12.0,70,0.00,,,0.00,VWS V14.00,2013-10-26 21:53:00,
2013-10-26 17:54:00,49.6,40.2,29.81,WSW,250,6.0,12.0,70,0.00,,,0.00,VWS V14.00,2013-10-26 21:54:00,
2013-10-26 17:55:00,49.6,40.2,29.81,WSW,244,4.0,12.0,70,0.00,,,0.00,VWS V14.00,2013-10-26 21:55:00,
2013-10-26 17:56:00,49.6,40.2,29.82,WSW,242,6.0,12.0,70,0.00,,,0.00,VWS V14.00,2013-10-26 21:56:00,
2013-10-26 17:57:00,49.6,39.9,29.81,WSW,247,5.0,11.0,69,0.00,,,0.00,VWS V14.00,2013-10-26 21:57:00,
2013-10-26 17:58:00,49.6,40.2,29.82,West,261,2.0,12.0,70,0.00,,,0.00,VWS V14.00,2013-10-26 21:58:00,
2013-10-26 17:59:00,49.6,40.2,29.82,WSW,245,3.0,12.0,70,0.00,,,0.00,VWS V14.00,2013-10-26 21:59:00,
2013-10-26 18:00:00,49.6,40.2,29.82,WSW,249,3.0,12.0,70,0.00,,,0.00,VWS V14.00,2013-10-26 22:00:00,
2013-10-26 18:01:00,49.6,40.2,29.82,WSW,248,3.0,6.0,70,0.00,,,0.00,VWS V14.00,2013-10-26 22:01:00,
2013-10-26 18:02:00,49.6,40.2,29.81,SW,230,1.0,12.0,70,0.00,,,0.00,VWS V14.00,2013-10-26 22:02:00,
2013-10-26 18:03:00,49.6,40.2,29.82,WSW,246,3.0,7.0,70,0.00,,,0.00,VWS V14.00,2013-10-26 22:03:00,
2013-10-26 18:04:00,49.6,40.2,29.82,WSW,245,4.0,7.0,70,0.00,,,0.00,VWS V14.00,2013-10-26 22:04:00,
2013-10-26 18:05:00,49.6,40.2,29.82,SW,223,9.0,12.0,70,0.00,,,0.00,VWS V14.00,2013-10-26 22:05:00,
2013-10-26 18:06:00,49.6,40.2,29.82,WSW,248,5.0,12.0,70,0.00,,,0.00,VWS V14.00,2013-10-26 22:06:00,
2013-10-26 18:07:00,49.6,40.2,29.81,West,259,4.0,12.0,70,0.00,,,0.00,VWS V14.00,2013-10-26 22:07:00,
2013-10-26 18:08:00,49.6,40.2,29.82,SW,232,5.0,12.0,70,0.00,,,0.00,VWS V14.00,2013-10-26 22:08:00,
2013-10-26 18:09:00,49.6,40.2,29.82,SW,232,2.0,12.0,70,0.00,,,0.00,VWS V14.00,2013-10-26 22:09:00,
2013-10-26 18:10:00,49.6,40.2,29.82,SW,228,6.0,12.0,70,0.00,,,0.00,VWS V14.00,2013-10-26 22:10:00,
2013-10-26 18:11:00,49.6,40.2,29.82,SW,229,5.0,12.0,70,0.00,,,0.00,VWS V14.00,2013-10-26 22:11:00,
2013-10-26 18:12:00,49.6,40.2,29.82,WSW,246,3.0,7.0,70,0.00,,,0.00,VWS V14.00,2013-10-26 22:12:00,
2013-10-26 18:13:00,49.7,40.3,29.82,WSW,239,6.0,12.0,70,0.00,,,0.00,VWS V14.00,2013-10-26 22:13:00,
2013-10-26 18:14:00,49.7,40.3,29.82,WSW,237,2.0,12.0,70,0.00,,,0.00,VWS V14.00,2013-10-26 22:14:00,
2013-10-26 18:15:00,49.7,40.3,29.83,WSW,237,4.0,12.0,70,0.00,,,0.00,VWS V14.00,2013-10-26 22:15:00,
2013-10-26 18:16:00,49.6,40.2,29.82,WSW,238,6.0,12.0,70,0.00,,,0.00,VWS V14.00,2013-10-26 22:16:00,
2013-10-26 18:17:00,49.6,40.2,29.82,SW,234,6.0,12.0,70,0.00,,,0.00,VWS V14.00,2013-10-26 22:17:00,
2013-10-26 18:18:00,49.6,40.2,29.83,WSW,238,3.0,12.0,70,0.00,,,0.00,VWS V14.00,2013-10-26 22:18:00,
2013-10-26 18:19:00,49.6,40.2,29.83,WSW,238,0.0,12.0,70,0.00,,,0.00,VWS V14.00,2013-10-26 22:19:00,
2013-10-26 18:20:00,49.6,40.6,29.84,NNW,329,3.0,12.0,71,0.00,,,0.00,VWS V14.00,2013-10-26 22:20:00,
2013-10-26 18:21:00,49.6,40.6,29.85,WNW,300,21.0,21.0,71,0.00,,,0.00,VWS V14.00,2013-10-26 22:21:00,
2013-10-26 18:22:00,49.6,40.2,29.82,SW,229,4.0,12.0,70,0.00,,,0.00,VWS V14.00,2013-10-26 22:22:00,
2013-10-26 18:23:00,49.4,40.8,29.86,NW,304,13.0,21.0,72,0.00,,,0.00,VWS V14.00,2013-10-26 22:23:00,
2013-10-26 18:24:00,49.2,40.9,29.86,NNW,332,10.0,21.0,73,0.00,,,0.00,VWS V14.00,2013-10-26 22:24:00,
2013-10-26 18:25:00,49.0,40.7,29.86,NW,319,4.0,21.0,73,0.00,,,0.00,VWS V14.00,2013-10-26 22:25:00,
2013-10-26 18:26:00,48.7,41.1,29.86,North,350,8.0,21.0,75,0.00,,,0.00,VWS V14.00,2013-10-26 22:26:00,
2013-10-26 18:27:00,49.6,40.2,29.83,WSW,237,0.0,12.0,70,0.00,,,0.00,VWS V14.00,2013-10-26 22:27:00,
2013-10-26 18:28:00,48.1,40.9,29.87,NW,324,7.0,21.0,76,0.00,,,0.00,VWS V14.00,2013-10-26 22:28:00,
2013-10-26 18:29:00,47.7,40.8,29.87,NW,317,7.0,21.0,77,0.00,,,0.00,VWS V14.00,2013-10-26 22:29:00,
2013-10-26 18:30:00,47.3,40.8,29.87,NW,320,3.0,21.0,78,0.00,,,0.00,VWS V14.00,2013-10-26 22:30:00,
2013-10-26 18:31:00,46.9,40.7,29.87,NW,311,3.0,12.0,79,0.00,,,0.00,VWS V14.00,2013-10-26 22:31:00,
2013-10-26 18:32:00,49.6,40.6,29.86,NNW,342,18.0,21.0,71,0.00,,,0.00,VWS V14.00,2013-10-26 22:32:00,
2013-10-26 18:33:00,46.2,40.7,29.87,NNW,336,2.0,12.0,81,0.00,,,0.00,VWS V14.00,2013-10-26 22:33:00,
2013-10-26 18:34:00,45.9,40.4,29.87,NW,322,3.0,12.0,81,0.00,,,0.01,VWS V14.00,2013-10-26 22:34:00,
2013-10-26 18:35:00,45.6,40.4,29.87,NW,322,3.0,12.0,82,0.00,,,0.01,VWS V14.00,2013-10-26 22:35:00,
2013-10-26 18:36:00,45.4,40.5,29.88,NW,316,4.0,12.0,83,0.00,,,0.01,VWS V14.00,2013-10-26 22:36:00,
2013-10-26 18:37:00,48.4,40.8,29.87,NW,309,8.0,21.0,75,0.00,,,0.00,VWS V14.00,2013-10-26 22:37:00,
2013-10-26 18:38:00,45.0,40.5,29.88,NNW,331,2.0,12.0,84,0.14,,,0.02,VWS V14.00,2013-10-26 22:38:00,
2013-10-26 18:39:00,44.7,40.5,29.88,NNW,331,3.0,12.0,85,0.14,,,0.02,VWS V14.00,2013-10-26 22:39:00,
2013-10-26 18:40:00,44.5,40.3,29.88,NNW,332,2.0,12.0,85,0.14,,,0.02,VWS V14.00,2013-10-26 22:40:00,
2013-10-26 18:41:00,44.3,40.4,29.88,NW,323,8.0,12.0,86,0.14,,,0.02,VWS V14.00,2013-10-26 22:41:00,
2013-10-26 18:42:00,46.6,40.8,29.87,NNW,344,6.0,12.0,80,0.00,,,0.00,VWS V14.00,2013-10-26 22:42:00,
2013-10-26 18:43:00,44.1,40.5,29.88,NW,319,10.0,12.0,87,0.12,,,0.03,VWS V14.00,2013-10-26 22:43:00,
2013-10-26 18:44:00,43.9,40.3,29.89,NW,319,4.0,12.0,87,0.12,,,0.03,VWS V14.00,2013-10-26 22:44:00,
2013-10-26 18:45:00,43.8,40.5,29.88,NNW,327,3.0,12.0,88,0.12,,,0.03,VWS V14.00,2013-10-26 22:45:00,
2013-10-26 18:46:00,43.7,40.4,29.88,NNW,327,0.0,12.0,88,0.12,,,0.03,VWS V14.00,2013-10-26 22:46:00,
2013-10-26 18:47:00,45.1,40.2,29.88,NNW,327,9.0,12.0,83,0.00,,,0.01,VWS V14.00,2013-10-26 22:47:00,
2013-10-26 18:48:00,43.4,40.4,29.88,NW,326,0.0,12.0,89,0.10,,,0.03,VWS V14.00,2013-10-26 22:48:00,
2013-10-26 18:49:00,43.4,40.4,29.88,NW,326,1.0,12.0,89,0.09,,,0.03,VWS V14.00,2013-10-26 22:49:00,
2013-10-26 18:50:00,43.3,40.3,29.89,NW,326,1.0,12.0,89,0.08,,,0.03,VWS V14.00,2013-10-26 22:50:00,
2013-10-26 18:51:00,43.2,40.2,29.89,NW,326,1.0,12.0,89,0.07,,,0.03,VWS V14.00,2013-10-26 22:51:00,
2013-10-26 18:52:00,44.2,40.3,29.88,NW,321,3.0,12.0,86,0.14,,,0.02,VWS V14.00,2013-10-26 22:52:00,
2013-10-26 18:53:00,43.1,40.4,29.89,NW,325,2.0,12.0,90,0.06,,,0.03,VWS V14.00,2013-10-26 22:53:00,
2013-10-26 18:54:00,43.0,40.3,29.89,NW,325,0.0,12.0,90,0.05,,,0.03,VWS V14.00,2013-10-26 22:54:00,
2013-10-26 18:55:00,43.0,40.6,29.89,NW,325,0.0,12.0,91,0.05,,,0.04,VWS V14.00,2013-10-26 22:55:00,
2013-10-26 18:56:00,42.9,40.5,29.89,NW,325,2.0,12.0,91,0.05,,,0.04,VWS V14.00,2013-10-26 22:56:00,
2013-10-26 18:57:00,43.6,40.3,29.88,NNW,327,0.0,12.0,88,0.12,,,0.03,VWS V14.00,2013-10-26 22:57:00,
2013-10-26 18:58:00,42.9,40.5,29.89,NW,325,2.0,12.0,91,0.05,,,0.04,VWS V14.00,2013-10-26 22:58:00,
2013-10-26 18:59:00,42.9,40.5,29.89,NW,323,3.0,12.0,91,0.05,,,0.04,VWS V14.00,2013-10-26 22:59:00,
2013-10-26 19:00:00,42.9,40.5,29.89,NW,323,0.0,12.0,91,0.05,,,0.04,VWS V14.00,2013-10-26 23:00:00,
2013-10-26 19:01:00,42.8,40.6,29.89,NW,323,0.0,2.0,92,0.05,,,0.04,VWS V14.00,2013-10-26 23:01:00,
2013-10-26 19:02:00,43.1,40.4,29.89,NW,326,2.0,12.0,90,0.07,,,0.03,VWS V14.00,2013-10-26 23:02:00,
2013-10-26 19:03:00,42.8,40.6,29.88,NW,323,1.0,3.0,92,0.05,,,0.04,VWS V14.00,2013-10-26 23:03:00,
2013-10-26 19:04:00,42.7,40.5,29.88,NW,323,1.0,3.0,92,0.05,,,0.04,VWS V14.00,2013-10-26 23:04:00,
2013-10-26 19:05:00,42.7,40.5,29.88,NW,323,0.0,4.0,92,0.05,,,0.04,VWS V14.00,2013-10-26 23:05:00,
2013-10-26 19:06:00,42.7,40.5,29.88,NW,323,0.0,4.0,92,0.05,,,0.04,VWS V14.00,2013-10-26 23:06:00,
2013-10-26 19:07:00,42.9,40.5,29.89,NW,325,1.0,12.0,91,0.05,,,0.04,VWS V14.00,2013-10-26 23:07:00,
2013-10-26 19:08:00,42.7,40.5,29.88,NW,323,0.0,4.0,92,0.04,,,0.04,VWS V14.00,2013-10-26 23:08:00,
2013-10-26 19:09:00,42.7,40.8,29.88,NW,323,0.0,4.0,93,0.04,,,0.04,VWS V14.00,2013-10-26 23:09:00,
2013-10-26 19:10:00,42.7,40.8,29.88,NW,323,2.0,4.0,93,0.04,,,0.04,VWS V14.00,2013-10-26 23:10:00,
2013-10-26 19:11:00,42.7,40.8,29.88,NW,323,0.0,4.0,93,0.00,,,0.04,VWS V14.00,2013-10-26 23:11:00,
2013-10-26 19:12:00,42.8,40.6,29.88,NW,323,1.0,2.0,92,0.05,,,0.04,VWS V14.00,2013-10-26 23:12:00,
2013-10-26 19:13:00,42.7,40.8,29.88,NW,323,0.0,4.0,93,0.00,,,0.04,VWS V14.00,2013-10-26 23:13:00,
2013-10-26 19:14:00,42.7,40.8,29.89,NW,323,2.0,4.0,93,0.00,,,0.04,VWS V14.00,2013-10-26 23:14:00,
2013-10-26 19:15:00,42.6,40.7,29.89,NW,323,0.0,4.0,93,0.00,,,0.04,VWS V14.00,2013-10-26 23:15:00,
2013-10-26 19:16:00,42.6,40.7,29.89,NW,323,0.0,4.0,93,0.00,,,0.04,VWS V14.00,2013-10-26 23:16:00,
2013-10-26 19:17:00,42.7,40.5,29.88,NW,323,0.0,4.0,92,0.05,,,0.04,VWS V14.00,2013-10-26 23:17:00,
2013-10-26 19:18:00,42.6,40.7,29.89,NW,323,1.0,4.0,93,0.00,,,0.04,VWS V14.00,2013-10-26 23:18:00,
2013-10-26 19:19:00,42.6,40.7,29.89,NW,323,0.0,4.0,93,0.00,,,0.04,VWS V14.00,2013-10-26 23:19:00,
2013-10-26 19:20:00,42.6,40.7,29.89,NW,323,0.0,4.0,93,0.00,,,0.04,VWS V14.00,2013-10-26 23:20:00,
2013-10-26 19:21:00,42.6,40.7,29.89,NW,323,0.0,4.0,93,0.00,,,0.04,VWS V14.00,2013-10-26 23:21:00,
2013-10-26 19:22:00,42.7,40.8,29.88,NW,323,0.0,4.0,93,0.00,,,0.04,VWS V14.00,2013-10-26 23:22:00,
2013-10-26 19:23:00,42.5,40.9,29.89,NW,323,0.0,4.0,94,0.00,,,0.04,VWS V14.00,2013-10-26 23:23:00,
2013-10-26 19:24:00,42.5,40.6,29.89,NW,323,0.0,4.0,93,0.00,,,0.04,VWS V14.00,2013-10-26 23:24:00,
2013-10-26 19:25:00,42.5,40.6,29.89,NW,323,0.0,4.0,93,0.00,,,0.04,VWS V14.00,2013-10-26 23:25:00,
2013-10-26 19:26:00,42.5,40.6,29.89,NW,323,0.0,4.0,93,0.00,,,0.04,VWS V14.00,2013-10-26 23:26:00,
2013-10-26 19:27:00,42.6,40.7,29.89,NW,323,0.0,4.0,93,0.00,,,0.04,VWS V14.00,2013-10-26 23:27:00,
2013-10-26 19:28:00,42.5,40.6,29.89,NW,323,0.0,4.0,93,0.00,,,0.04,VWS V14.00,2013-10-26 23:28:00,
2013-10-26 19:29:00,42.5,40.9,29.89,NW,323,0.0,4.0,94,0.00,,,0.04,VWS V14.00,2013-10-26 23:29:00,
2013-10-26 19:30:00,42.5,40.9,29.89,NW,323,0.0,4.0,94,0.00,,,0.04,VWS V14.00,2013-10-26 23:30:00,
2013-10-26 19:31:00,42.5,40.9,29.89,NW,323,0.0,0.0,94,0.00,,,0.04,VWS V14.00,2013-10-26 23:31:00,
2013-10-26 19:32:00,42.6,40.7,29.89,NW,323,0.0,4.0,93,0.00,,,0.04,VWS V14.00,2013-10-26 23:32:00,
2013-10-26 19:33:00,42.4,40.8,29.89,NW,323,0.0,2.0,94,0.00,,,0.04,VWS V14.00,2013-10-26 23:33:00,
2013-10-26 19:34:00,42.4,40.8,29.89,NW,323,0.0,2.0,94,0.00,,,0.04,VWS V14.00,2013-10-26 23:34:00,
2013-10-26 19:35:00,42.4,40.8,29.89,NW,323,0.0,2.0,94,0.00,,,0.04,VWS V14.00,2013-10-26 23:35:00,
2013-10-26 19:36:00,42.4,40.8,29.89,NW,323,2.0,3.0,94,0.00,,,0.04,VWS V14.00,2013-10-26 23:36:00,
2013-10-26 19:37:00,42.5,40.6,29.89,NW,323,0.0,4.0,93,0.00,,,0.04,VWS V14.00,2013-10-26 23:37:00,
2013-10-26 19:38:00,42.4,40.8,29.90,NW,323,0.0,3.0,94,0.00,,,0.04,VWS V14.00,2013-10-26 23:38:00,
2013-10-26 19:39:00,42.4,40.8,29.90,NW,323,1.0,3.0,94,0.00,,,0.04,VWS V14.00,2013-10-26 23:39:00,
2013-10-26 19:40:00,42.4,40.8,29.90,NW,323,0.0,3.0,94,0.00,,,0.04,VWS V14.00,2013-10-26 23:40:00,
2013-10-26 19:41:00,42.4,40.8,29.90,NW,323,0.0,3.0,94,0.00,,,0.04,VWS V14.00,2013-10-26 23:41:00,
2013-10-26 19:42:00,42.5,40.9,29.89,NW,323,0.0,1.0,94,0.00,,,0.04,VWS V14.00,2013-10-26 23:42:00,
2013-10-26 19:43:00,42.3,40.7,29.90,NW,323,0.0,3.0,94,0.00,,,0.04,VWS V14.00,2013-10-26 23:43:00,
2013-10-26 19:44:00,42.3,40.7,29.90,NW,323,0.0,3.0,94,0.00,,,0.04,VWS V14.00,2013-10-26 23:44:00,
2013-10-26 19:45:00,42.3,40.7,29.90,NW,323,0.0,3.0,94,0.00,,,0.04,VWS V14.00,2013-10-26 23:45:00,
2013-10-26 19:46:00,42.3,40.7,29.90,NW,323,0.0,3.0,94,0.00,,,0.04,VWS V14.00,2013-10-26 23:46:00,
2013-10-26 19:47:00,42.4,40.8,29.90,NW,323,0.0,3.0,94,0.00,,,0.04,VWS V14.00,2013-10-26 23:47:00,
2013-10-26 19:48:00,42.3,40.7,29.90,NW,323,0.0,3.0,94,0.00,,,0.04,VWS V14.00,2013-10-26 23:48:00,
2013-10-26 19:49:00,42.2,40.6,29.90,NW,323,0.0,3.0,94,0.00,,,0.04,VWS V14.00,2013-10-26 23:49:00,
2013-10-26 19:50:00,42.2,40.6,29.91,NW,323,2.0,3.0,94,0.00,,,0.04,VWS V14.00,2013-10-26 23:50:00,
2013-10-26 19:51:00,42.2,40.6,29.90,NW,323,0.0,3.0,94,0.00,,,0.04,VWS V14.00,2013-10-26 23:51:00,
2013-10-26 19:52:00,42.4,40.8,29.90,NW,323,0.0,3.0,94,0.00,,,0.04,VWS V14.00,2013-10-26 23:52:00,
2013-10-26 19:53:00,42.2,40.6,29.91,NW,323,0.0,3.0,94,0.00,,,0.04,VWS V14.00,2013-10-26 23:53:00,
2013-10-26 19:54:00,42.2,40.6,29.91,NW,323,0.0,3.0,94,0.00,,,0.04,VWS V14.00,2013-10-26 23:54:00,
2013-10-26 19:55:00,42.2,40.6,29.91,NW,323,0.0,3.0,94,0.00,,,0.04,VWS V14.00,2013-10-26 23:55:00,
2013-10-26 19:56:00,42.2,40.6,29.91,NW,323,2.0,4.0,94,0.00,,,0.04,VWS V14.00,2013-10-26 23:56:00,
2013-10-26 19:57:00,42.3,40.7,29.90,NW,323,2.0,3.0,94,0.00,,,0.04,VWS V14.00,2013-10-26 23:57:00,
2013-10-26 19:58:00,42.2,40.6,29.91,NW,323,3.0,4.0,94,0.00,,,0.04,VWS V14.00,2013-10-26 23:58:00,
2013-10-26 19:59:00,42.1,40.5,29.91,NW,323,2.0,4.0,94,0.00,,,0.04,VWS V14.00,2013-10-26 23:59:00,
2013-10-26 20:00:00,42.1,40.5,29.91,NW,323,2.0,4.0,94,0.00,,,0.04,VWS V14.00,2013-10-27 00:00:00,
2013-10-26 20:01:00,42.1,40.5,29.91,NW,323,2.0,3.0,94,0.00,,,0.04,VWS V14.00,2013-10-27 00:01:00,
2013-10-26 20:02:00,42.2,40.6,29.90,NW,323,0.0,3.0,94,0.00,,,0.04,VWS V14.00,2013-10-27 00:02:00,
2013-10-26 20:03:00,42.1,40.5,29.91,NW,323,1.0,3.0,94,0.00,,,0.04,VWS V14.00,2013-10-27 00:03:00,
2013-10-26 20:04:00,42.1,40.5,29.91,NW,323,2.0,3.0,94,0.00,,,0.04,VWS V14.00,2013-10-27 00:04:00,
2013-10-26 20:05:00,42.1,40.5,29.91,NW,323,0.0,3.0,94,0.00,,,0.04,VWS V14.00,2013-10-27 00:05:00,
2013-10-26 20:06:00,42.0,40.4,29.91,NW,323,1.0,3.0,94,0.00,,,0.04,VWS V14.00,2013-10-27 00:06:00,
2013-10-26 20:07:00,42.2,40.6,29.91,NW,323,0.0,4.0,94,0.00,,,0.04,VWS V14.00,2013-10-27 00:07:00,
2013-10-26 20:08:00,42.0,40.4,29.91,NW,323,1.0,3.0,94,0.00,,,0.04,VWS V14.00,2013-10-27 00:08:00,
2013-10-26 20:09:00,42.0,40.4,29.91,NW,323,0.0,3.0,94,0.00,,,0.04,VWS V14.00,2013-10-27 00:09:00,
2013-10-26 20:10:00,42.0,40.4,29.91,NW,323,0.0,3.0,94,0.00,,,0.04,VWS V14.00,2013-10-27 00:10:00,
2013-10-26 20:11:00,41.9,40.6,29.91,NW,323,0.0,3.0,95,0.00,,,0.04,VWS V14.00,2013-10-27 00:11:00,
2013-10-26 20:12:00,42.1,40.5,29.91,NW,323,0.0,3.0,94,0.00,,,0.04,VWS V14.00,2013-10-27 00:12:00,
2013-10-26 20:13:00,41.9,40.6,29.91,NW,323,2.0,3.0,95,0.00,,,0.04,VWS V14.00,2013-10-27 00:13:00,
2013-10-26 20:14:00,41.9,40.6,29.91,NW,323,2.0,3.0,95,0.00,,,0.04,VWS V14.00,2013-10-27 00:14:00,
2013-10-26 20:15:00,41.8,40.5,29.92,NW,323,0.0,4.0,95,0.00,,,0.04,VWS V14.00,2013-10-27 00:15:00,
2013-10-26 20:16:00,41.8,40.5,29.92,NW,323,0.0,4.0,95,0.00,,,0.04,VWS V14.00,2013-10-27 00:16:00,
2013-10-26 20:17:00,42.0,40.4,29.91,NW,323,0.0,3.0,94,0.00,,,0.04,VWS V14.00,2013-10-27 00:17:00,
2013-10-26 20:18:00,41.8,40.2,29.92,NW,322,0.0,4.0,94,0.00,,,0.04,VWS V14.00,2013-10-27 00:18:00,
2013-10-26 20:19:00,41.7,40.1,29.92,NW,323,0.0,4.0,94,0.00,,,0.04,VWS V14.00,2013-10-27 00:19:00,
2013-10-26 20:20:00,41.7,40.1,29.92,NW,323,0.0,4.0,94,0.00,,,0.04,VWS V14.00,2013-10-27 00:20:00,
2013-10-26 20:21:00,41.7,40.1,29.92,NW,323,0.0,4.0,94,0.00,,,0.04,VWS V14.00,2013-10-27 00:21:00,
2013-10-26 20:22:00,41.9,40.6,29.91,NW,323,1.0,3.0,95,0.00,,,0.04,VWS V14.00,2013-10-27 00:22:00,
2013-10-26 20:23:00,41.6,40.0,29.92,NW,323,0.0,4.0,94,0.00,,,0.04,VWS V14.00,2013-10-27 00:23:00,
2013-10-26 20:24:00,41.6,40.0,29.92,NW,322,0.0,4.0,94,0.00,,,0.04,VWS V14.00,2013-10-27 00:24:00,
2013-10-26 20:25:00,41.5,39.9,29.92,NW,323,0.0,4.0,94,0.00,,,0.04,VWS V14.00,2013-10-27 00:25:00,
2013-10-26 20:26:00,41.5,39.9,29.92,NW,323,2.0,4.0,94,0.00,,,0.04,VWS V14.00,2013-10-27 00:26:00,
2013-10-26 20:27:00,41.8,40.5,29.92,NW,323,2.0,4.0,95,0.00,,,0.04,VWS V14.00,2013-10-27 00:27:00,
2013-10-26 20:28:00,41.5,40.2,29.92,NW,323,0.0,4.0,95,0.00,,,0.04,VWS V14.00,2013-10-27 00:28:00,
2013-10-26 20:29:00,41.4,40.1,29.92,NW,323,0.0,4.0,95,0.00,,,0.04,VWS V14.00,2013-10-27 00:29:00,
2013-10-26 20:30:00,41.4,40.1,29.92,NW,323,0.0,4.0,95,0.00,,,0.04,VWS V14.00,2013-10-27 00:30:00,
2013-10-26 20:31:00,41.4,40.1,29.92,NW,322,0.0,0.0,95,0.00,,,0.04,VWS V14.00,2013-10-27 00:31:00,
2013-10-26 20:32:00,41.6,40.0,29.92,NW,323,0.0,4.0,94,0.00,,,0.04,VWS V14.00,2013-10-27 00:32:00,
2013-10-26 20:33:00,41.3,39.7,29.92,NW,322,0.0,0.0,94,0.00,,,0.04,VWS V14.00,2013-10-27 00:33:00,
2013-10-26 20:34:00,41.3,39.7,29.92,NW,322,0.0,0.0,94,0.00,,,0.04,VWS V14.00,2013-10-27 00:34:00,
2013-10-26 20:35:00,41.2,39.9,29.92,NW,323,0.0,1.0,95,0.00,,,0.04,VWS V14.00,2013-10-27 00:35:00,
2013-10-26 20:36:00,41.2,39.6,29.92,NW,322,0.0,1.0,94,0.00,,,0.04,VWS V14.00,2013-10-27 00:36:00,
2013-10-26 20:37:00,41.5,39.9,29.92,NW,322,0.0,4.0,94,0.00,,,0.04,VWS V14.00,2013-10-27 00:37:00,
2013-10-26 20:38:00,41.1,39.5,29.92,NW,322,0.0,1.0,94,0.00,,,0.04,VWS V14.00,2013-10-27 00:38:00,
2013-10-26 20:39:00,41.1,39.5,29.92,NW,323,0.0,1.0,94,0.00,,,0.04,VWS V14.00,2013-10-27 00:39:00,
2013-10-26 20:40:00,41.1,39.5,29.92,NW,322,0.0,1.0,94,0.00,,,0.04,VWS V14.00,2013-10-27 00:40:00,
2013-10-26 20:41:00,41.0,39.4,29.93,NW,323,1.0,1.0,94,0.00,,,0.04,VWS V14.00,2013-10-27 00:41:00,
2013-10-26 20:42:00,41.3,40.0,29.92,NW,323,0.0,0.0,95,0.00,,,0.04,VWS V14.00,2013-10-27 00:42:00,
2013-10-26 20:43:00,40.9,39.6,29.93,NW,323,0.0,2.0,95,0.00,,,0.04,VWS V14.00,2013-10-27 00:43:00,
2013-10-26 20:44:00,40.9,39.6,29.93,NW,322,0.0,2.0,95,0.00,,,0.04,VWS V14.00,2013-10-27 00:44:00,
2013-10-26 20:45:00,40.9,39.6,29.93,NW,323,2.0,2.0,95,0.00,,,0.04,VWS V14.00,2013-10-27 00:45:00,
2013-10-26 20:46:00,40.8,39.5,29.93,NW,322,0.0,2.0,95,0.00,,,0.04,VWS V14.00,2013-10-27 00:46:00,
2013-10-26 20:47:00,41.2,39.6,29.92,NW,322,0.0,1.0,94,0.00,,,0.04,VWS V14.00,2013-10-27 00:47:00,
2013-10-26 20:48:00,40.8,39.5,29.93,NW,323,0.0,2.0,95,0.00,,,0.04,VWS V14.00,2013-10-27 00:48:00,
2013-10-26 20:49:00,40.8,39.5,29.93,NW,323,0.0,2.0,95,0.00,,,0.04,VWS V14.00,2013-10-27 00:49:00,
2013-10-26 20:50:00,40.7,39.4,29.93,NW,323,0.0,2.0,95,0.00,,,0.04,VWS V14.00,2013-10-27 00:50:00,
2013-10-26 20:51:00,40.7,39.4,29.93,NW,323,0.0,2.0,95,0.00,,,0.04,VWS V14.00,2013-10-27 00:51:00,
2013-10-26 20:52:00,41.0,39.7,29.93,NW,323,1.0,1.0,95,0.00,,,0.04,VWS V14.00,2013-10-27 00:52:00,
2013-10-26 20:53:00,40.7,39.4,29.93,NW,322,2.0,2.0,95,0.00,,,0.04,VWS V14.00,2013-10-27 00:53:00,
2013-10-26 20:54:00,40.6,39.3,29.93,NW,323,1.0,3.0,95,0.00,,,0.04,VWS V14.00,2013-10-27 00:54:00,
2013-10-26 20:55:00,40.6,39.3,29.93,NW,323,0.0,3.0,95,0.00,,,0.04,VWS V14.00,2013-10-27 00:55:00,
2013-10-26 20:56:00,40.6,39.3,29.93,NW,323,0.0,3.0,95,0.00,,,0.04,VWS V14.00,2013-10-27 00:56:00,
2013-10-26 20:57:00,40.8,39.5,29.93,NW,323,1.0,2.0,95,0.00,,,0.04,VWS V14.00,2013-10-27 00:57:00,
2013-10-26 20:58:00,40.5,39.2,29.93,NW,322,2.0,3.0,95,0.00,,,0.04,VWS V14.00,2013-10-27 00:58:00,
2013-10-26 20:59:00,40.5,39.2,29.93,NW,322,0.0,3.0,95,0.00,,,0.04,VWS V14.00,2013-10-27 00:59:00,
2013-10-26 21:00:00,40.5,39.2,29.93,NW,323,0.0,3.0,95,0.00,,,0.04,VWS V14.00,2013-10-27 01:00:00,
2013-10-26 21:01:00,40.5,39.2,29.93,NW,323,0.0,0.0,95,0.00,,,0.04,VWS V14.00,2013-10-27 01:01:00,
2013-10-26 21:02:00,40.7,39.4,29.93,NW,323,0.0,2.0,95,0.00,,,0.04,VWS V14.00,2013-10-27 01:02:00,
2013-10-26 21:03:00,40.4,39.1,29.93,NW,323,0.0,0.0,95,0.00,,,0.04,VWS V14.00,2013-10-27 01:03:00,
2013-10-26 21:04:00,40.4,39.1,29.93,NW,323,0.0,1.0,95,0.00,,,0.04,VWS V14.00,2013-10-27 01:04:00,
2013-10-26 21:05:00,40.3,39.0,29.93,NW,322,0.0,1.0,95,0.00,,,0.04,VWS V14.00,2013-10-27 01:05:00,
2013-10-26 21:06:00,40.3,39.0,29.93,NW,323,0.0,1.0,95,0.00,,,0.04,VWS V14.00,2013-10-27 01:06:00,
2013-10-26 21:07:00,40.6,39.3,29.93,NW,322,0.0,3.0,95,0.00,,,0.04,VWS V14.00,2013-10-27 01:07:00,
2013-10-26 21:08:00,40.3,39.0,29.93,NW,323,0.0,1.0,95,0.00,,,0.04,VWS V14.00,2013-10-27 01:08:00,
2013-10-26 21:09:00,40.2,38.9,29.93,NW,323,0.0,1.0,95,0.00,,,0.04,VWS V14.00,2013-10-27 01:09:00,
2013-10-26 21:10:00,40.2,38.9,29.93,NW,323,1.0,2.0,95,0.00,,,0.04,VWS V14.00,2013-10-27 01:10:00,
2013-10-26 21:11:00,40.2,38.9,29.94,NW,323,1.0,4.0,95,0.00,,,0.04,VWS V14.00,2013-10-27 01:11:00,
2013-10-26 21:12:00,40.4,39.1,29.93,NW,323,0.0,0.0,95,0.00,,,0.04,VWS V14.00,2013-10-27 01:12:00,
2013-10-26 21:13:00,40.2,38.9,29.93,NW,323,0.0,4.0,95,0.00,,,0.04,VWS V14.00,2013-10-27 01:13:00,
2013-10-26 21:14:00,40.2,38.9,29.93,NW,323,0.0,4.0,95,0.00,,,0.04,VWS V14.00,2013-10-27 01:14:00,
2013-10-26 21:15:00,40.2,38.9,29.94,NW,323,0.0,4.0,95,0.00,,,0.04,VWS V14.00,2013-10-27 01:15:00,
2013-10-26 21:16:00,40.1,38.8,29.94,NW,323,2.0,4.0,95,0.00,,,0.04,VWS V14.00,2013-10-27 01:16:00,
2013-10-26 21:17:00,40.3,39.0,29.93,NW,323,0.0,1.0,95,0.00,,,0.04,VWS V14.00,2013-10-27 01:17:00,
2013-10-26 21:18:00,40.1,38.8,29.94,NW,322,2.0,4.0,95,0.00,,,0.04,VWS V14.00,2013-10-27 01:18:00,
2013-10-26 21:19:00,40.1,38.8,29.94,NW,323,0.0,4.0,95,0.00,,,0.04,VWS V14.00,2013-10-27 01:19:00,
2013-10-26 21:20:00,40.1,38.8,29.94,NW,323,0.0,4.0,95,0.00,,,0.04,VWS V14.00,2013-10-27 01:20:00,
2013-10-26 21:21:00,40.1,38.8,29.94,NW,322,1.0,4.0,95,0.00,,,0.04,VWS V14.00,2013-10-27 01:21:00,
2013-10-26 21:22:00,40.2,38.9,29.93,NW,323,0.0,4.0,95,0.00,,,0.04,VWS V14.00,2013-10-27 01:22:00,
2013-10-26 21:23:00,40.0,38.7,29.94,NW,323,0.0,4.0,95,0.00,,,0.04,VWS V14.00,2013-10-27 01:23:00,
2013-10-26 21:24:00,40.0,38.7,29.94,NW,323,0.0,4.0,95,0.00,,,0.04,VWS V14.00,2013-10-27 01:24:00,
2013-10-26 21:25:00,40.0,38.7,29.94,NW,322,0.0,4.0,95,0.00,,,0.04,VWS V14.00,2013-10-27 01:25:00,
2013-10-26 21:26:00,40.0,38.7,29.94,NW,323,1.0,4.0,95,0.00,,,0.04,VWS V14.00,2013-10-27 01:26:00,
2013-10-26 21:27:00,40.1,38.8,29.94,NW,322,0.0,4.0,95,0.00,,,0.04,VWS V14.00,2013-10-27 01:27:00,
2013-10-26 21:28:00,40.0,38.7,29.94,NW,322,0.0,4.0,95,0.00,,,0.04,VWS V14.00,2013-10-27 01:28:00,
2013-10-26 21:29:00,40.0,38.7,29.94,NW,322,3.0,4.0,95,0.00,,,0.04,VWS V14.00,2013-10-27 01:29:00,
2013-10-26 21:30:00,40.0,38.7,29.94,NW,315,2.0,5.0,95,0.00,,,0.04,VWS V14.00,2013-10-27 01:30:00,
2013-10-26 21:31:00,40.0,38.7,29.94,NW,315,0.0,3.0,95,0.00,,,0.04,VWS V14.00,2013-10-27 01:31:00,
2013-10-26 21:32:00,40.1,38.8,29.94,NW,322,0.0,4.0,95,0.00,,,0.04,VWS V14.00,2013-10-27 01:32:00,
2013-10-26 21:33:00,40.0,38.7,29.94,NW,309,4.0,6.0,95,0.00,,,0.04,VWS V14.00,2013-10-27 01:33:00,
2013-10-26 21:34:00,40.0,38.7,29.94,NW,307,0.0,6.0,95,0.00,,,0.04,VWS V14.00,2013-10-27 01:34:00,
2013-10-26 21:35:00,40.0,38.7,29.95,NW,308,1.0,6.0,95,0.00,,,0.04,VWS V14.00,2013-10-27 01:35:00,
2013-10-26 21:36:00,40.0,38.7,29.95,NW,304,2.0,6.0,95,0.00,,,0.04,VWS V14.00,2013-10-27 01:36:00,
2013-10-26 21:37:00,40.0,38.7,29.94,NW,322,2.0,4.0,95,0.00,,,0.04,VWS V14.00,2013-10-27 01:37:00,
2013-10-26 21:38:00,40.0,38.7,29.95,West,259,0.0,9.0,95,0.00,,,0.04,VWS V14.00,2013-10-27 01:38:00,
2013-10-26 21:39:00,40.0,38.4,29.95,West,259,0.0,9.0,94,0.00,,,0.04,VWS V14.00,2013-10-27 01:39:00,
2013-10-26 21:40:00,40.0,38.4,29.95,West,259,0.0,9.0,94,0.00,,,0.04,VWS V14.00,2013-10-27 01:40:00,
2013-10-26 21:41:00,40.0,38.4,29.95,West,259,0.0,9.0,94,0.00,,,0.04,VWS V14.00,2013-10-27 01:41:00,
2013-10-26 21:42:00,40.0,38.7,29.94,NW,315,2.0,3.0,95,0.00,,,0.04,VWS V14.00,2013-10-27 01:42:00,
2013-10-26 21:43:00,40.0,38.4,29.95,West,259,0.0,9.0,94,0.00,,,0.04,VWS V14.00,2013-10-27 01:43:00,
2013-10-26 21:44:00,40.0,38.4,29.95,West,259,0.0,9.0,94,0.00,,,0.04,VWS V14.00,2013-10-27 01:44:00,
2013-10-26 21:45:00,40.0,38.4,29.95,West,259,0.0,9.0,94,0.00,,,0.04,VWS V14.00,2013-10-27 01:45:00,
2013-10-26 21:46:00,40.0,38.4,29.95,West,259,0.0,9.0,94,0.00,,,0.04,VWS V14.00,2013-10-27 01:46:00,
2013-10-26 21:47:00,40.0,38.7,29.94,West,259,1.0,9.0,95,0.00,,,0.04,VWS V14.00,2013-10-27 01:47:00,
2013-10-26 21:48:00,39.9,38.3,29.95,West,259,0.0,9.0,94,0.00,,,0.04,VWS V14.00,2013-10-27 01:48:00,
2013-10-26 21:49:00,39.9,38.3,29.95,West,259,1.0,9.0,94,0.00,,,0.04,VWS V14.00,2013-10-27 01:49:00,
2013-10-26 21:50:00,39.9,38.3,29.95,West,259,0.0,9.0,94,0.00,,,0.04,VWS V14.00,2013-10-27 01:50:00,
2013-10-26 21:51:00,39.8,38.2,29.95,West,259,0.0,9.0,94,0.00,,,0.04,VWS V14.00,2013-10-27 01:51:00,
2013-10-26 21:52:00,40.0,38.4,29.95,West,259,0.0,9.0,94,0.00,,,0.04,VWS V14.00,2013-10-27 01:52:00,
2013-10-26 21:53:00,39.8,38.2,29.95,West,259,1.0,9.0,94,0.00,,,0.04,VWS V14.00,2013-10-27 01:53:00,
2013-10-26 21:54:00,39.8,38.2,29.95,West,259,0.0,9.0,94,0.00,,,0.04,VWS V14.00,2013-10-27 01:54:00,
2013-10-26 21:55:00,39.8,38.2,29.95,West,259,0.0,9.0,94,0.00,,,0.04,VWS V14.00,2013-10-27 01:55:00,
2013-10-26 21:56:00,39.8,38.2,29.95,West,259,0.0,9.0,94,0.00,,,0.04,VWS V14.00,2013-10-27 01:56:00,
2013-10-26 21:57:00,40.0,38.4,29.95,West,259,0.0,9.0,94,0.00,,,0.04,VWS V14.00,2013-10-27 01:57:00,
2013-10-26 21:58:00,39.7,38.1,29.95,West,259,1.0,9.0,94,0.00,,,0.04,VWS V14.00,2013-10-27 01:58:00,
2013-10-26 21:59:00,39.7,37.8,29.95,West,259,0.0,9.0,93,0.00,,,0.04,VWS V14.00,2013-10-27 01:59:00,
2013-10-26 22:00:00,39.7,37.8,29.95,West,259,0.0,9.0,93,0.00,,,0.04,VWS V14.00,2013-10-27 02:00:00,
2013-10-26 22:01:00,39.7,37.8,29.95,West,259,0.0,0.0,93,0.00,,,0.04,VWS V14.00,2013-10-27 02:01:00,
2013-10-26 22:02:00,39.8,38.2,29.95,West,259,0.0,9.0,94,0.00,,,0.04,VWS V14.00,2013-10-27 02:02:00,
2013-10-26 22:03:00,39.6,37.8,29.96,West,259,0.0,2.0,93,0.00,,,0.04,VWS V14.00,2013-10-27 02:03:00,
2013-10-26 22:04:00,39.5,37.7,29.96,West,259,0.0,2.0,93,0.00,,,0.04,VWS V14.00,2013-10-27 02:04:00,
2013-10-26 22:05:00,39.5,37.7,29.96,West,259,0.0,2.0,93,0.00,,,0.04,VWS V14.00,2013-10-27 02:05:00,
2013-10-26 22:06:00,39.5,37.7,29.96,West,259,0.0,2.0,93,0.00,,,0.04,VWS V14.00,2013-10-27 02:06:00,
2013-10-26 22:07:00,39.7,38.1,29.95,West,259,0.0,9.0,94,0.00,,,0.04,VWS V14.00,2013-10-27 02:07:00,
2013-10-26 22:08:00,39.4,37.5,29.96,West,259,1.0,2.0,93,0.00,,,0.04,VWS V14.00,2013-10-27 02:08:00,
2013-10-26 22:09:00,39.4,37.5,29.96,West,259,0.0,2.0,93,0.00,,,0.04,VWS V14.00,2013-10-27 02:09:00,
2013-10-26 22:10:00,39.3,37.5,29.96,West,259,0.0,3.0,93,0.00,,,0.04,VWS V14.00,2013-10-27 02:10:00,
2013-10-26 22:11:00,39.3,37.5,29.96,West,259,0.0,3.0,93,0.00,,,0.04,VWS V14.00,2013-10-27 02:11:00,
2013-10-26 22:12:00,39.6,37.8,29.95,West,259,0.0,2.0,93,0.00,,,0.04,VWS V14.00,2013-10-27 02:12:00,
2013-10-26 22:13:00,39.3,37.5,29.96,West,259,0.0,3.0,93,0.00,,,0.04,VWS V14.00,2013-10-27 02:13:00,
2013-10-26 22:14:00,39.2,37.3,29.96,West,259,0.0,3.0,93,0.00,,,0.04,VWS V14.00,2013-10-27 02:14:00,
2013-10-26 22:15:00,39.2,37.3,29.96,West,259,0.0,3.0,93,0.00,,,0.04,VWS V14.00,2013-10-27 02:15:00,
2013-10-26 22:16:00,39.2,37.3,29.96,West,259,0.0,3.0,93,0.00,,,0.04,VWS V14.00,2013-10-27 02:16:00,
2013-10-26 22:17:00,39.4,37.5,29.96,West,259,0.0,2.0,93,0.00,,,0.04,VWS V14.00,2013-10-27 02:17:00,
2013-10-26 22:18:00,39.1,37.2,29.96,West,259,0.0,3.0,93,0.00,,,0.04,VWS V14.00,2013-10-27 02:18:00,
2013-10-26 22:19:00,39.1,37.2,29.96,West,259,0.0,3.0,93,0.00,,,0.04,VWS V14.00,2013-10-27 02:19:00,
2013-10-26 22:20:00,39.1,37.2,29.96,West,259,0.0,3.0,93,0.00,,,0.04,VWS V14.00,2013-10-27 02:20:00,
2013-10-26 22:21:00,39.0,37.2,29.96,West,259,0.0,3.0,93,0.00,,,0.04,VWS V14.00,2013-10-27 02:21:00,
2013-10-26 22:22:00,39.3,37.5,29.96,West,259,1.0,3.0,93,0.00,,,0.04,VWS V14.00,2013-10-27 02:22:00,
2013-10-26 22:23:00,39.0,37.2,29.96,West,259,0.0,3.0,93,0.00,,,0.04,VWS V14.00,2013-10-27 02:23:00,
2013-10-26 22:24:00,38.9,37.0,29.97,West,259,1.0,3.0,93,0.00,,,0.04,VWS V14.00,2013-10-27 02:24:00,
2013-10-26 22:25:00,38.9,37.0,29.97,West,259,0.0,3.0,93,0.00,,,0.04,VWS V14.00,2013-10-27 02:25:00,
2013-10-26 22:26:00,38.9,37.0,29.97,West,259,0.0,3.0,93,0.00,,,0.04,VWS V14.00,2013-10-27 02:26:00,
2013-10-26 22:27:00,39.1,37.2,29.96,West,259,0.0,3.0,93,0.00,,,0.04,VWS V14.00,2013-10-27 02:27:00,
2013-10-26 22:28:00,38.8,37.0,29.97,West,259,1.0,3.0,93,0.00,,,0.04,VWS V14.00,2013-10-27 02:28:00,
2013-10-26 22:29:00,38.8,37.0,29.97,West,259,0.0,3.0,93,0.00,,,0.04,VWS V14.00,2013-10-27 02:29:00,
2013-10-26 22:30:00,38.8,37.0,29.97,West,259,1.0,3.0,93,0.00,,,0.04,VWS V14.00,2013-10-27 02:30:00,
2013-10-26 22:31:00,38.8,37.0,29.97,West,259,0.0,1.0,93,0.00,,,0.04,VWS V14.00,2013-10-27 02:31:00,
2013-10-26 22:32:00,39.0,37.2,29.97,West,259,0.0,3.0,93,0.00,,,0.04,VWS V14.00,2013-10-27 02:32:00,
2013-10-26 22:33:00,38.8,37.0,29.97,West,259,0.0,4.0,93,0.00,,,0.04,VWS V14.00,2013-10-27 02:33:00,
2013-10-26 22:34:00,38.8,37.0,29.97,West,259,1.0,4.0,93,0.00,,,0.04,VWS V14.00,2013-10-27 02:34:00,
2013-10-26 22:35:00,38.8,37.0,29.97,West,259,0.0,4.0,93,0.00,,,0.04,VWS V14.00,2013-10-27 02:35:00,
2013-10-26 22:36:00,38.8,37.0,29.97,West,259,0.0,4.0,93,0.00,,,0.04,VWS V14.00,2013-10-27 02:36:00,
2013-10-26 22:37:00,38.9,37.0,29.97,West,259,1.0,3.0,93,0.00,,,0.04,VWS V14.00,2013-10-27 02:37:00,
2013-10-26 22:38:00,38.8,37.0,29.97,West,259,0.0,4.0,93,0.00,,,0.04,VWS V14.00,2013-10-27 02:38:00,
2013-10-26 22:39:00,38.8,37.0,29.97,West,259,0.0,4.0,93,0.00,,,0.04,VWS V14.00,2013-10-27 02:39:00,
2013-10-26 22:40:00,38.8,37.0,29.97,West,259,2.0,4.0,93,0.00,,,0.04,VWS V14.00,2013-10-27 02:40:00,
2013-10-26 22:41:00,38.8,37.0,29.97,West,259,0.0,4.0,93,0.00,,,0.04,VWS V14.00,2013-10-27 02:41:00,
2013-10-26 22:42:00,38.8,37.0,29.97,West,259,0.0,4.0,93,0.00,,,0.04,VWS V14.00,2013-10-27 02:42:00,
2013-10-26 22:43:00,38.7,36.8,29.97,West,259,0.0,4.0,93,0.00,,,0.04,VWS V14.00,2013-10-27 02:43:00,
2013-10-26 22:44:00,38.7,36.8,29.97,West,259,0.0,4.0,93,0.00,,,0.04,VWS V14.00,2013-10-27 02:44:00,
2013-10-26 22:45:00,38.7,36.8,29.97,West,259,1.0,4.0,93,0.00,,,0.04,VWS V14.00,2013-10-27 02:45:00,
2013-10-26 22:46:00,38.7,36.8,29.98,West,259,0.0,4.0,93,0.00,,,0.04,VWS V14.00,2013-10-27 02:46:00,
2013-10-26 22:47:00,38.8,37.0,29.97,West,259,0.0,4.0,93,0.00,,,0.04,VWS V14.00,2013-10-27 02:47:00,
2013-10-26 22:48:00,38.6,36.8,29.98,West,259,0.0,4.0,93,0.00,,,0.04,VWS V14.00,2013-10-27 02:48:00,
2013-10-26 22:49:00,38.6,36.8,29.98,West,259,0.0,4.0,93,0.00,,,0.04,VWS V14.00,2013-10-27 02:49:00,
2013-10-26 22:50:00,38.6,36.8,29.98,West,259,0.0,4.0,93,0.00,,,0.04,VWS V14.00,2013-10-27 02:50:00,
2013-10-26 22:51:00,38.6,36.8,29.98,West,259,1.0,4.0,93,0.00,,,0.04,VWS V14.00,2013-10-27 02:51:00,
2013-10-26 22:52:00,38.8,37.0,29.97,West,259,2.0,4.0,93,0.00,,,0.04,VWS V14.00,2013-10-27 02:52:00,
2013-10-26 22:53:00,38.5,36.7,29.98,West,259,0.0,4.0,93,0.00,,,0.04,VWS V14.00,2013-10-27 02:53:00,
2013-10-26 22:54:00,38.5,36.7,29.98,West,259,3.0,4.0,93,0.00,,,0.04,VWS V14.00,2013-10-27 02:54:00,
2013-10-26 22:55:00,38.5,36.4,29.98,West,259,0.0,4.0,92,0.00,,,0.04,VWS V14.00,2013-10-27 02:55:00,
2013-10-26 22:56:00,38.5,36.4,29.98,West,259,0.0,4.0,92,0.00,,,0.04,VWS V14.00,2013-10-27 02:56:00,
2013-10-26 22:57:00,38.7,36.8,29.98,West,259,1.0,4.0,93,0.00,,,0.04,VWS V14.00,2013-10-27 02:57:00,
2013-10-26 22:58:00,38.4,36.3,29.98,West,259,0.0,4.0,92,0.00,,,0.04,VWS V14.00,2013-10-27 02:58:00,
2013-10-26 22:59:00,38.4,36.6,29.98,West,259,0.0,4.0,93,0.00,,,0.04,VWS V14.00,2013-10-27 02:59:00,
2013-10-26 23:00:00,38.4,36.3,29.98,West,259,0.0,4.0,92,0.00,,,0.04,VWS V14.00,2013-10-27 03:00:00,
2013-10-26 23:01:00,38.4,36.3,29.98,West,259,0.0,0.0,92,0.00,,,0.04,VWS V14.00,2013-10-27 03:01:00,
2013-10-26 23:02:00,38.6,36.8,29.98,West,259,0.0,4.0,93,0.00,,,0.04,VWS V14.00,2013-10-27 03:02:00,
2013-10-26 23:03:00,38.4,36.3,29.98,West,259,0.0,0.0,92,0.00,,,0.04,VWS V14.00,2013-10-27 03:03:00,
2013-10-26 23:04:00,38.4,36.3,29.98,West,259,0.0,0.0,92,0.00,,,0.04,VWS V14.00,2013-10-27 03:04:00,
2013-10-26 23:05:00,38.3,36.2,29.98,West,259,2.0,2.0,92,0.00,,,0.04,VWS V14.00,2013-10-27 03:05:00,
2013-10-26 23:06:00,38.3,36.2,29.98,West,261,2.0,5.0,92,0.00,,,0.04,VWS V14.00,2013-10-27 03:06:00,
2013-10-26 23:07:00,38.4,36.3,29.98,West,259,0.0,4.0,92,0.00,,,0.04,VWS V14.00,2013-10-27 03:07:00,
2013-10-26 23:08:00,38.3,36.2,29.98,West,259,2.0,5.0,92,0.00,,,0.04,VWS V14.00,2013-10-27 03:08:00,
2013-10-26 23:09:00,38.3,36.2,29.98,West,259,1.0,5.0,92,0.00,,,0.04,VWS V14.00,2013-10-27 03:09:00,
2013-10-26 23:10:00,38.4,36.3,29.98,West,259,1.0,5.0,92,0.00,,,0.04,VWS V14.00,2013-10-27 03:10:00,
2013-10-26 23:11:00,38.3,36.2,29.98,West,259,0.0,5.0,92,0.00,,,0.04,VWS V14.00,2013-10-27 03:11:00,
2013-10-26 23:12:00,38.4,36.3,29.98,West,259,0.0,0.0,92,0.00,,,0.04,VWS V14.00,2013-10-27 03:12:00,
2013-10-26 23:13:00,38.4,36.3,29.99,West,261,2.0,6.0,92,0.00,,,0.04,VWS V14.00,2013-10-27 03:13:00,
2013-10-26 23:14:00,38.4,36.3,29.99,West,261,1.0,6.0,92,0.00,,,0.04,VWS V14.00,2013-10-27 03:14:00,
2013-10-26 23:15:00,38.4,36.3,29.99,West,261,0.0,6.0,92,0.00,,,0.04,VWS V14.00,2013-10-27 03:15:00,
2013-10-26 23:16:00,38.4,36.3,29.99,West,261,0.0,6.0,92,0.00,,,0.04,VWS V14.00,2013-10-27 03:16:00,
2013-10-26 23:17:00,38.4,36.3,29.99,West,261,3.0,5.0,92,0.00,,,0.04,VWS V14.00,2013-10-27 03:17:00,
2013-10-26 23:18:00,38.5,36.1,29.99,West,261,0.0,6.0,91,0.00,,,0.04,VWS V14.00,2013-10-27 03:18:00,
2013-10-26 23:19:00,38.5,36.4,29.99,West,261,4.0,6.0,92,0.00,,,0.04,VWS V14.00,2013-10-27 03:19:00,
2013-10-26 23:20:00,38.5,36.4,29.99,West,260,0.0,6.0,92,0.00,,,0.04,VWS V14.00,2013-10-27 03:20:00,
2013-10-26 23:21:00,38.6,36.2,29.99,West,260,0.0,6.0,91,0.00,,,0.04,VWS V14.00,2013-10-27 03:21:00,
2013-10-26 23:22:00,38.4,36.3,29.98,West,261,0.0,6.0,92,0.00,,,0.04,VWS V14.00,2013-10-27 03:22:00,
2013-10-26 23:23:00,38.6,36.2,29.99,West,260,0.0,6.0,91,0.00,,,0.04,VWS V14.00,2013-10-27 03:23:00,
2013-10-26 23:24:00,38.6,36.2,29.99,West,260,3.0,6.0,91,0.00,,,0.04,VWS V14.00,2013-10-27 03:24:00,
2013-10-26 23:25:00,38.6,36.2,29.99,West,261,0.0,6.0,91,0.00,,,0.04,VWS V14.00,2013-10-27 03:25:00,
2013-10-26 23:26:00,38.6,36.2,29.99,West,261,0.0,6.0,91,0.00,,,0.04,VWS V14.00,2013-10-27 03:26:00,
2013-10-26 23:27:00,38.5,36.4,29.99,West,261,0.0,6.0,92,0.00,,,0.04,VWS V14.00,2013-10-27 03:27:00,
2013-10-26 23:28:00,38.6,36.2,29.99,West,261,0.0,6.0,91,0.00,,,0.04,VWS V14.00,2013-10-27 03:28:00,
2013-10-26 23:29:00,38.6,36.2,29.99,West,260,0.0,6.0,91,0.00,,,0.04,VWS V14.00,2013-10-27 03:29:00,
2013-10-26 23:30:00,38.6,35.9,29.99,West,260,1.0,6.0,90,0.00,,,0.04,VWS V14.00,2013-10-27 03:30:00,
2013-10-26 23:31:00,38.5,35.8,29.99,West,260,0.0,2.0,90,0.00,,,0.04,VWS V14.00,2013-10-27 03:31:00,
2013-10-26 23:32:00,38.6,36.2,29.99,West,260,0.0,6.0,91,0.00,,,0.04,VWS V14.00,2013-10-27 03:32:00,
2013-10-26 23:33:00,38.4,35.7,29.99,West,261,0.0,2.0,90,0.00,,,0.04,VWS V14.00,2013-10-27 03:33:00,
2013-10-26 23:34:00,38.4,35.7,29.99,West,261,0.0,2.0,90,0.00,,,0.04,VWS V14.00,2013-10-27 03:34:00,
2013-10-26 23:35:00,38.4,35.7,29.99,West,260,0.0,2.0,90,0.00,,,0.04,VWS V14.00,2013-10-27 03:35:00,
2013-10-26 23:36:00,38.4,35.7,29.99,West,260,0.0,2.0,90,0.00,,,0.04,VWS V14.00,2013-10-27 03:36:00,
2013-10-26 23:37:00,38.6,36.2,29.99,West,261,0.0,6.0,91,0.00,,,0.04,VWS V14.00,2013-10-27 03:37:00,
2013-10-26 23:38:00,38.3,35.6,29.99,West,261,0.0,2.0,90,0.00,,,0.04,VWS V14.00,2013-10-27 03:38:00,
2013-10-26 23:39:00,38.3,35.6,29.99,West,261,0.0,2.0,90,0.00,,,0.04,VWS V14.00,2013-10-27 03:39:00,
2013-10-26 23:40:00,38.2,35.5,29.99,West,261,2.0,2.0,90,0.00,,,0.04,VWS V14.00,2013-10-27 03:40:00,
2013-10-26 23:41:00,38.1,35.4,29.99,West,261,0.0,2.0,90,0.00,,,0.04,VWS V14.00,2013-10-27 03:41:00,
2013-10-26 23:42:00,38.5,35.8,29.99,West,260,0.0,2.0,90,0.00,,,0.04,VWS V14.00,2013-10-27 03:42:00,
2013-10-26 23:43:00,38.1,35.4,29.99,West,260,0.0,2.0,90,0.00,,,0.04,VWS V14.00,2013-10-27 03:43:00,
2013-10-26 23:44:00,38.1,35.4,29.99,West,261,3.0,3.0,90,0.00,,,0.04,VWS V14.00,2013-10-27 03:44:00,
2013-10-26 23:45:00,38.0,35.3,29.99,West,261,0.0,3.0,90,0.00,,,0.04,VWS V14.00,2013-10-27 03:45:00,
2013-10-26 23:46:00,38.0,35.3,29.99,West,261,0.0,3.0,90,0.00,,,0.04,VWS V14.00,2013-10-27 03:46:00,
2013-10-26 23:47:00,38.3,35.6,29.99,West,260,0.0,2.0,90,0.00,,,0.04,VWS V14.00,2013-10-27 03:47:00,
2013-10-26 23:48:00,38.0,35.3,29.99,West,260,0.0,3.0,90,0.00,,,0.04,VWS V14.00,2013-10-27 03:48:00,
2013-10-26 23:49:00,37.9,35.2,29.99,West,260,0.0,3.0,90,0.00,,,0.04,VWS V14.00,2013-10-27 03:49:00,
2013-10-26 23:50:00,37.9,35.2,29.99,West,260,0.0,3.0,90,0.00,,,0.04,VWS V14.00,2013-10-27 03:50:00,
2013-10-26 23:51:00,37.9,35.2,29.99,West,261,0.0,3.0,90,0.00,,,0.04,VWS V14.00,2013-10-27 03:51:00,
2013-10-26 23:52:00,38.1,35.4,29.99,West,260,0.0,2.0,90,0.00,,,0.04,VWS V14.00,2013-10-27 03:52:00,
2013-10-26 23:53:00,37.8,35.1,29.99,West,261,0.0,3.0,90,0.00,,,0.04,VWS V14.00,2013-10-27 03:53:00,
2013-10-26 23:54:00,37.8,35.1,29.99,West,261,0.0,3.0,90,0.00,,,0.04,VWS V14.00,2013-10-27 03:54:00,
2013-10-26 23:55:00,37.8,35.1,29.99,West,261,0.0,3.0,90,0.00,,,0.04,VWS V14.00,2013-10-27 03:55:00,
2013-10-26 23:56:00,37.8,35.1,29.99,West,260,0.0,3.0,90,0.00,,,0.04,VWS V14.00,2013-10-27 03:56:00,
2013-10-26 23:57:00,38.0,35.3,29.99,West,261,0.0,3.0,90,0.00,,,0.04,VWS V14.00,2013-10-27 03:57:00,
2013-10-26 23:58:00,37.7,35.0,29.99,West,260,0.0,3.0,90,0.00,,,0.04,VWS V14.00,2013-10-27 03:58:00,
2013-10-26 23:59:00,37.7,35.0,29.99,West,261,0.0,3.0,90,0.00,,,0.04,VWS V14.00,2013-10-27 03:59:00,